[[{"header":{"parameterUnit":"m.s-1","parameterCategory":1,"la1":30.6,"la2":29.2853,"lo1":-89.7004,"lo2":-87.6739,"dy":0.0162,"dx":0.0183,"nx":112,"ny":82,"refTime":"2024-08-20T18:00:00:Z","depth":0,"parameterNumber":2,"parameterNumberName":"U-component_of_WINDS"},"data":[0.0,0.0,0.0,0.0,0.0,0.0,0.0,0.0,0.0,0.0,0.0,0.0,0.0,0.0,0.0,0.0,0.0,0.0,0.0,0.0,0.0,0.0,0.0,0.0,0.0,0.0,0.0,0.0,0.0,0.0,0.0,0.0,0.0,0.0,0.0,0.0,0.0,0.0,0.0,0.0,0.0,0.0,0.0,0.0,0.0,0.0,0.0,0.0,0.0,0.0,0.0,0.0,0.0,0.0,0.0,0.0,0.0,0.0,0.0,0.0,0.0,0.0,0.0,0.0,0.0,0.0,0.0,0.0,0.0,0.0,0.0,0.0,0.0,0.0,0.0,0.0,0.0,0.0,0.0,0.0,0.0,0.0,0.0,0.0,0.0,0.0,0.0,0.0,0.0,0.0,0.3362,0.3886,0.3993,0.4086,0.4271,0.2687,0.0738,-0.1408,0.0,0.0,0.0,0.0,0.0,0.0,0.0,0.0,0.0,0.0,0.0,0.0,0.0,0.0,0.0,0.0,0.0,0.0,0.0,0.0,0.0,0.0,0.0,0.0,0.0,0.0,0.0,0.0,0.0,0.0,0.0,0.0,0.0,0.0,0.0,0.0,0.0,0.0,0.0,0.0,0.0,0.0,0.0,0.0,0.0,0.0,0.0,0.0,0.0,0.0,0.0,0.0,0.0,0.0,0.0,0.0,0.0,0.0,0.0,0.0,0.0,0.0,0.0,0.0,0.0,0.0,0.0,0.0,0.0,0.0,0.0,0.0,0.0,0.0,0.0,0.0,0.0,0.0,0.0,0.0,0.0,0.0,0.0,0.0,0.0,0.0,0.0,0.0,0.0,0.0,0.0,0.0,0.0,0.0,0.0,0.0,0.0,0.0,0.0,0.0,0.0,0.0,0.0,0.0,0.3128,0.363,0.3889,0.386,0.3535,0.1958,0.0685,-0.0226,0.0,0.0,0.0,0.0,0.0,0.0,0.0,0.0,0.0,0.0,0.0,0.0,0.0,0.0,0.0,0.0,0.0,0.0,0.0,0.0,0.0,0.0,0.0,0.0,0.0,0.0,0.0,0.0,0.0,0.0,0.0,0.0,0.0,0.0,0.0,0.0,0.0,0.0,0.0,0.0,0.0,0.0,0.0,0.0,0.0,0.0,0.0,0.0,0.0,0.0,0.0,0.0,0.0,0.0,0.0,0.0,0.0,0.0,0.0,0.0,0.0,0.0,0.0,0.0,0.0,0.0,0.0,0.0,0.0,0.0,0.0,0.0,0.0,0.0,0.0,0.0,0.0,0.0,0.0,0.0,0.0,0.0,0.0,0.0,0.0,0.0,0.0,0.0,0.0,0.0,0.0,0.0,0.0,0.0,0.0,0.0,0.0,0.0,0.0,0.0,0.0,0.0,0.0,0.3176,0.3277,0.3759,0.3694,0.3588,0.3482,0.1736,0.0264,-0.0544,-0.0455,0.0,0.0,0.0,0.0,0.0,0.0,0.0,0.0,0.0,0.0,0.0,0.0,0.0,0.0,0.0,0.0,0.0,0.0,0.0,0.0,0.0,0.0,0.0,0.0,0.0,0.0,0.0,0.0,0.0,0.0,0.0,0.0,0.0,0.0,0.0,0.0,0.0,0.0,0.0,0.0,0.0,0.0,0.0,0.0,0.0,0.0,0.0,0.0,0.0,0.0,0.0,0.0,0.0,0.0,0.0,0.0,0.0,0.0,0.0,0.0,0.0,0.0,0.0,0.0,0.0,0.0,0.0,0.0,0.0,0.0,0.0,0.0,0.0,0.0,0.0,0.0,0.0,0.0,0.0,0.0,0.0,0.0,0.0,0.0,0.0,0.0,0.0,0.0,0.0,0.0,0.0,0.0,0.0,0.0,0.0,0.0,0.0,0.0,0.0,0.0,0.0,0.0,0.3539,0.3591,0.3674,0.3477,0.32,0.286,0.137,0.0103,-0.0679,-0.0682,0.0,0.0,0.0,0.0,0.0,0.0,0.0,0.0,0.0,0.0,0.0,0.0,0.0,0.0,0.0,0.0,0.0,0.0,0.0,0.0,0.0,0.0,0.0,0.0,0.0,0.0,0.0,0.0,0.0,0.0,0.0,0.0,0.0,0.0,0.0,0.0,0.0,0.0,0.0,0.0,0.0,0.0,0.0,0.0,0.0,0.0,0.0,0.0,0.0,0.0,0.0,0.0,0.0,0.0,0.0,0.0,0.0,0.0,0.0,0.0,0.0,0.0,0.0,0.0,0.0,0.0,0.0,0.0,0.0,0.0,0.0,0.0,0.0,0.0,0.0,0.0,0.0,0.0,0.0,0.0,0.0,0.0,0.0,0.0,0.0,0.0,0.0,0.0,0.0,0.0,0.0,0.0,0.0,0.0,0.0,0.0,0.0,0.0,0.0,0.0,0.0,0.0,0.3601,0.4024,0.2923,0.3261,0.2747,0.0726,0.0614,0.0566,0.0314,-0.0509,0.0,0.0,0.0,0.0,0.0,0.0,0.0,0.0,0.0,0.0,0.0,0.0,0.0,0.0,0.0,0.0,0.0,0.0,0.0,0.0,0.0,0.0,0.0,0.0,0.0,0.0,0.0,0.0,0.0,0.0,0.0,0.0,0.0,0.0,0.0,0.0,0.0,0.0,0.0,0.0,0.0,0.0,0.0,0.0,0.0,0.0,0.0,0.0,0.0,0.0,0.0,0.0,0.0,0.0,0.0,0.0,0.0,0.0,0.0,0.0,0.0,0.0,0.0,0.0,0.0,0.0,0.0,0.0,0.0,0.0,0.0,0.0,0.0,0.0,0.0,0.0,0.0,0.0,0.0,0.0,0.0,0.0,0.0,0.0,0.0,0.0,0.0,0.0,0.0,0.0,0.0,0.0,0.0,0.0,0.0,0.0,0.0,0.0,0.0,0.0,0.0,0.0,0.1377,0.1922,0.0,0.2132,0.1456,-0.0279,-0.1057,-0.1364,-0.1171,0.0,0.0,0.0,0.0,0.0,0.0,0.0,0.0,0.0,0.0,0.0,0.0,0.0,0.0,0.0,0.0,0.0,0.0,0.0,0.0,0.0,0.0,0.0,0.0,0.0,0.0,0.0,0.0,0.0,0.0,0.0,0.0,0.0,0.0,0.0,0.0,0.0,0.0,0.0,0.0,0.0,0.0,0.0,0.0,0.0,0.0,0.0,0.0,0.0,0.0,0.0,0.0,0.0,0.0,0.0,0.0,0.0,0.0,0.0,0.0,0.0,0.0,0.0,0.0,0.0,0.0,0.0,0.0,0.0,0.0,0.0,0.0,0.0,0.0,0.0,0.0,0.0,0.0,0.0,0.0,0.0,0.0,0.0,0.0,0.0,0.0,0.0,0.0,0.0,0.0,0.0,0.0,0.0,0.0,0.0,0.0,0.0,0.0,0.0,0.0,0.0,0.0,-0.0219,-0.0388,-0.0157,0.0,0.0784,0.0168,-0.1509,-0.2685,-0.3035,-0.2284,0.0,0.0,0.0,0.0,0.0,0.0,0.0,0.0,0.0,0.0,0.0,0.0,0.0,0.0,0.0,0.0,0.0,0.0,0.0,0.0,0.0,0.0,0.0,0.0,0.0,0.0,0.0,0.0,0.0,0.0,0.0,0.0,0.0,0.0,0.0,0.0,0.0,0.0,0.0,0.0,0.0,0.0,0.0,0.0,0.0,0.0,0.0,0.0,0.0,0.0,0.0,0.0,0.0,0.0,0.0,0.0,0.0,0.0,0.0,0.0,0.0,0.0,0.0,0.0,0.0,0.0,0.0,0.0,0.0,0.0,0.0,0.0,0.0,0.0,0.0,0.0,0.0,0.0,0.0,0.0,0.0,0.0,0.0,0.0,0.0,0.0,0.0,0.0,0.0,0.0,0.0,0.0,0.0,0.0,0.0,0.0,0.0,0.0,0.0,0.0,0.0,0.0,-0.066,-0.1343,-0.1784,-0.179,-0.0729,-0.0896,-0.3132,-0.4147,-0.4073,0.0,0.0,0.0,0.0,0.0,0.0,0.0,0.0,0.0,0.0,0.0,0.0,0.0,0.0,0.0,0.0,0.0,0.0,0.0,0.0,0.0,0.0,0.0,0.0,0.0,0.0,0.0,0.0,0.0,0.0,0.0,0.0,0.0,0.0,0.0,0.0,0.0,0.0,0.0,0.0,0.0,0.0,0.0,0.0,0.0,0.0,0.0,0.0,0.0,0.0,0.0,0.0,0.0,0.0,0.0,0.0,0.0,0.0,0.0,0.0,0.0,0.0,0.0,0.0,0.0,0.0,0.0,0.0,0.0,0.0,0.0,0.0,0.0,0.0,0.0,0.0,0.0,0.0,0.0,0.0,0.0,0.0,0.0,0.0,0.0,0.0,0.0,0.0,0.0,0.0,0.0,0.0,0.0,0.0,0.0,0.0,0.0,0.0,0.0,0.0,0.0,0.0,0.0,-0.1234,-0.1543,-0.1729,-0.179,-0.1459,-0.1906,-0.336,-0.351,-0.3379,-0.3126,0.0,0.0,0.0,0.0,0.0,0.0,0.0,0.0,0.0,0.0,0.0,0.0,0.0,0.0,0.0,0.0,0.0,0.0,0.0,0.0,0.0,0.0,0.0,0.0,0.0,0.0,0.0,0.0,0.0,0.0,0.0,0.0,0.0,0.0,0.0,0.0,0.0,0.0,0.0,0.0,0.0,0.0,0.0,0.0,0.0,0.0,0.0,0.0,0.0,0.0,0.0,0.0,0.0,0.0,0.0,0.0,0.0,0.0,0.0,0.0,0.0,0.0,0.0,0.0,0.0,0.0,0.0,0.0,0.0,0.0,0.0,0.0,0.0,0.0,0.0,0.0,0.0,0.0,0.0,0.0,0.0,0.0,0.0,0.0,0.0,0.0,0.0,0.0,0.0,0.0,0.0,0.0,0.0,0.0,0.0,0.0,0.0,0.0,0.0,0.0,0.0,0.0,-0.1448,-0.1863,-0.2177,-0.2286,-0.2242,-0.2631,-0.3744,-0.3936,-0.3932,-0.3834,0.0,0.0,0.0,0.0,0.0,0.0,0.0,0.0,0.0,0.0,0.0,0.0,0.0,0.0,0.0,0.0,0.0,0.0,0.0,0.0,0.0,0.0,0.0,0.0,0.0,0.0,0.0,0.0,0.0,0.0,0.0,0.0,0.0,0.0,0.0,0.0,0.0,0.0,0.0,0.0,0.0,0.0,0.0,0.0,0.0,0.0,0.0,0.0,0.0,0.0,0.0,0.0,0.0,0.0,0.0,0.0,0.0,0.0,0.0,0.0,0.0,0.0,0.0,0.0,0.0,0.0,0.0,0.0,0.0,0.0,0.0,0.0,0.0,0.0,0.0,0.0,0.0,0.0,0.0,0.0,0.0,0.0,0.0,0.0,0.0,0.0,0.0,0.0,0.0,0.0,0.0,0.0,0.0,0.0,0.0,0.0,0.0,0.0,0.0,0.0,0.0,0.0,-0.1441,-0.2257,-0.2904,-0.3053,-0.2905,-0.3125,-0.4122,-0.4916,-0.5166,-0.4684,0.0,0.0,0.0,0.0,0.0,0.0,0.0,0.0,0.0,0.0,0.0,0.0,0.0,0.0,0.0,0.0,0.0,0.0,0.0,0.0,0.0,0.0,0.0,0.0,0.0,0.0,0.0,0.0,0.0,0.0,0.0,0.0,0.0,0.0,0.0,0.0,0.0,0.0,0.0,0.0,0.0,0.0,0.0,0.0,0.0,0.0,0.0,0.0,0.0,0.0,0.0,0.0,0.0,0.0,0.0,0.0,0.0,0.0,0.0,0.0,-0.8028,0.0,0.0,0.0,0.0,0.0,0.0,0.0,0.0,0.0,0.0,0.0,0.0,0.0,0.0,0.0,0.0,0.0,0.0,0.0,0.0,0.0,0.0,0.0,0.0,0.0,0.0,0.0,0.0,0.0,0.0,0.0,0.0,0.0,0.0,0.0,0.0,0.0,0.0,0.0,0.0,0.0,-0.2115,-0.2661,-0.2987,-0.3118,-0.3074,-0.335,-0.4122,-0.4381,-0.4669,-0.5139,-0.5048,0.0,0.0,0.0,0.0,0.0,0.0,0.0,0.0,0.0,0.0,0.0,0.0,0.0,0.0,0.0,0.0,0.0,0.0,0.0,0.0,0.0,0.0,0.0,0.0,0.0,0.0,0.0,0.0,0.0,0.0,0.0,0.0,0.0,0.0,0.0,0.0,0.0,0.0,0.0,0.0,0.0,0.0,0.0,0.0,0.0,0.0,0.0,0.0,0.0,0.0,0.0,0.0,0.0,0.0,0.0,0.0,0.0,0.0,0.0,0.0,-0.868,0.0,0.0,0.0,0.0,0.0,0.0,0.0,0.0,0.0,0.0,0.0,0.0,0.0,0.0,0.0,0.0,0.0,0.0,0.0,0.0,0.0,0.0,0.0,0.0,0.0,0.0,0.0,0.0,0.0,0.0,0.0,0.0,0.0,0.0,0.0,0.0,0.0,0.0,0.0,0.0,-0.2687,-0.3375,-0.3868,-0.3947,-0.407,-0.4288,-0.4673,-0.512,-0.5392,-0.554,-0.5811,0.0,0.0,0.0,0.0,0.0,0.0,0.0,0.0,0.0,0.0,0.0,0.0,0.0,0.0,0.0,0.0,0.0,0.0,0.0,0.0,0.0,0.0,0.0,0.0,0.0,0.0,0.0,0.0,0.0,0.0,0.0,0.0,0.0,0.0,0.0,0.0,0.0,0.0,0.0,0.0,0.0,0.0,0.0,0.0,0.0,0.0,0.0,0.0,0.0,0.0,0.0,0.0,0.0,-1.5454,-1.5396,-1.5424,-1.5132,-1.5184,-1.5367,-1.2874,-1.1136,-1.0057,-0.9212,0.0,0.0,0.0,0.0,0.0,0.0,0.0,0.0,0.0,0.0,0.0,0.0,0.0,0.0,0.0,0.0,0.0,0.0,0.0,0.0,0.0,0.0,0.0,0.0,-0.3169,-0.2846,0.0,0.0,0.0,0.0,0.0,0.0,0.0,0.0,0.0,0.0,0.0,0.0,-0.3243,-0.4151,-0.4809,-0.4937,-0.5171,-0.5336,-0.55,-0.6163,-0.647,-0.6141,-0.6687,-0.6789,0.0,0.0,0.0,0.0,0.0,0.0,0.0,0.0,0.0,0.0,0.0,0.0,0.0,0.0,0.0,0.0,0.0,0.0,0.0,0.0,0.0,0.0,0.0,0.0,0.0,0.0,0.0,0.0,0.0,0.0,0.0,0.0,-1.1289,-1.2065,0.0,0.0,0.0,0.0,0.0,0.0,0.0,0.0,0.0,0.0,0.0,0.0,0.0,-1.7079,-1.7647,-1.8627,-1.8892,-1.8398,-1.9478,-1.9427,-1.8321,-1.7955,-1.7531,-1.7056,-1.667,0.0,-1.2859,-1.1417,0.0,0.0,0.0,0.0,0.0,0.0,0.0,0.0,0.0,0.0,0.0,0.0,0.0,0.0,0.0,0.0,0.0,0.0,0.0,0.0,0.0,0.0,-0.3875,-0.4199,-0.4529,-0.4565,0.0,-0.2292,-0.1593,-0.2739,-0.2317,0.0,0.0,0.0,0.0,0.0,0.0,0.0,-0.3721,-0.4411,-0.4984,-0.5222,-0.5281,-0.5555,-0.6218,-0.6482,-0.684,-0.7336,-0.7462,-0.7274,-0.6753,-0.7038,0.0,0.0,0.0,0.0,0.0,0.0,0.0,0.0,0.0,0.0,0.0,0.0,0.0,0.0,0.0,0.0,0.0,0.0,0.0,0.0,0.0,0.0,0.0,0.0,0.0,0.0,0.0,0.0,0.0,-1.1762,-1.2827,-1.3239,-1.3774,-1.3959,0.0,0.0,0.0,0.0,0.0,0.0,0.0,0.0,0.0,-1.911,-1.9745,-2.0314,-2.0812,-2.1491,-2.1582,-2.1115,-2.1407,-2.1204,-2.0515,-1.9986,-1.9608,-1.9331,-1.8672,-1.7768,-1.6528,-1.4147,-1.222,-1.0745,0.0,0.0,0.0,0.0,-0.7673,-0.7292,-0.7375,-0.7108,0.0,-0.5945,0.0,0.0,0.0,0.0,0.0,0.0,0.0,0.0,0.0,0.0,-0.4516,-0.519,-0.5481,-0.5535,-0.514,-0.4284,-0.3576,0.0,-0.2979,-0.2526,-0.2515,0.0,0.0,0.0,0.0,-0.4134,-0.437,-0.4972,-0.5563,-0.5887,-0.6105,-0.6436,-0.6977,-0.7269,-0.7455,-0.7583,-0.8083,-0.818,-0.7772,-0.7821,-0.7455,0.0,0.0,0.0,0.0,0.0,0.0,0.0,0.0,0.0,0.0,0.0,0.0,0.0,0.0,0.0,0.0,0.0,0.0,0.0,0.0,0.0,0.0,0.0,0.0,0.0,0.0,0.0,0.0,-1.3043,-1.4258,-1.4526,-1.6067,-1.6753,0.0,0.0,0.0,0.0,0.0,0.0,-1.9238,-1.9866,-2.0609,-2.1527,-2.2508,-2.3177,-2.3473,-2.3599,-2.3472,-2.3045,-2.2599,-2.2209,-2.1911,-2.1415,-2.1103,-2.0861,-1.9899,-1.9376,-1.8993,-1.619,-1.413,-1.2646,-1.17,-1.084,-1.0137,-0.9851,-0.9479,-0.9157,-0.9117,-0.886,-0.8372,-0.7574,-0.6758,-0.5908,-0.483,0.0,0.0,0.0,0.0,-0.4311,-0.4965,-0.5194,-0.5426,-0.6215,-0.6362,-0.6362,-0.6401,-0.6077,-0.5456,0.0,-0.3704,-0.3271,-0.3219,0.0,0.0,0.0,0.0,-0.4574,-0.5151,-0.5628,-0.6119,-0.6652,-0.6928,-0.7252,-0.7729,-0.7895,-0.8006,-0.7963,-0.8528,-0.8765,-0.8578,-0.8467,-0.8102,-0.746,0.0,0.0,0.0,0.0,0.0,0.0,0.0,0.0,0.0,0.0,0.0,0.0,0.0,0.0,0.0,0.0,0.0,0.0,0.0,0.0,0.0,0.0,0.0,0.0,0.0,0.0,0.0,0.0,0.0,-1.6266,-1.7908,0.0,0.0,0.0,0.0,-1.9002,-1.9134,-2.0248,-2.2712,-2.2823,-2.355,-2.5189,-2.5067,-2.49,-2.4799,-2.4383,-2.4042,-2.3735,-2.3348,-2.2841,-2.2275,-2.2108,-2.1612,-2.0893,-2.0501,-1.9919,-1.9037,-1.6928,-1.5836,-1.5417,-1.372,-1.2759,-1.2194,-1.1895,-1.1126,-1.0329,-1.0328,-0.9757,-0.902,-0.8859,-0.796,-0.6878,-0.657,-0.5866,0.0,0.0,-0.5444,-0.5855,-0.6561,-0.6902,-0.7069,-0.7354,-0.7413,-0.7408,-0.7408,-0.7192,-0.6679,0.0,-0.4832,-0.4419,-0.4497,0.0,-0.4537,-0.4257,-0.4614,-0.5155,-0.6013,-0.6294,-0.6652,-0.7359,-0.7467,-0.7783,-0.8468,-0.8197,-0.8252,-0.8864,-0.867,-0.8594,-0.879,-0.8756,-0.8454,-0.7788,-0.7223,0.0,0.0,0.0,0.0,0.0,0.0,0.0,0.0,0.0,0.0,0.0,0.0,0.0,0.0,0.0,0.0,0.0,0.0,0.0,0.0,0.0,0.0,0.0,0.0,0.0,0.0,0.0,0.0,-1.9627,-2.127,0.0,-2.1092,-2.1111,-2.155,-2.2422,-2.2547,-2.3213,-2.4687,-2.4703,-2.4929,-2.5473,-2.5374,-2.5168,-2.4902,-2.4606,-2.4279,-2.3921,-2.3477,-2.3122,-2.2867,-2.2439,-2.2022,-2.1642,-2.1086,-2.0649,-2.0162,-1.8693,-1.7434,-1.637,-1.5538,-1.4751,-1.405,-1.3411,-1.2761,-1.21,-1.1322,-1.0759,-1.0221,-0.9308,-0.8477,-0.7719,-0.7551,-0.7182,-0.6794,-0.6951,-0.6938,-0.6977,-0.723,-0.7306,-0.7467,-0.7842,-0.7949,-0.8002,-0.8268,-0.8055,-0.7593,-0.6913,-0.6037,-0.5488,-0.5494,-0.5249,-0.5174,-0.5369,-0.5673,-0.6125,-0.6945,-0.7084,-0.7306,-0.7895,-0.8103,-0.8344,-0.8619,-0.8665,-0.8638,-0.8685,-0.8482,-0.839,-0.8462,-0.8454,-0.816,-0.7629,-0.7008,-0.6157,0.0,0.0,0.0,0.0,0.0,0.0,0.0,0.0,0.0,0.0,0.0,0.0,0.0,0.0,0.0,0.0,0.0,0.0,0.0,0.0,0.0,0.0,0.0,0.0,0.0,0.0,-2.0911,-2.1432,-2.3302,-2.4221,-2.3354,-2.3637,-2.4132,-2.4728,-2.4812,-2.5082,-2.566,-2.5663,-2.5607,-2.5543,-2.5465,-2.5307,-2.5041,-2.4812,-2.4514,-2.4155,-2.3744,-2.3455,-2.3324,-2.2824,-2.2466,-2.2164,-2.1655,-2.1244,-2.0828,-1.9969,-1.8835,-1.7518,-1.6756,-1.6083,-1.54,-1.4698,-1.3993,-1.313,-1.1792,-1.1217,-1.0931,-0.9926,-0.9202,-0.8777,-0.8719,-0.8369,-0.8101,-0.8233,-0.8131,-0.799,-0.799,-0.809,-0.8309,-0.858,-0.8685,-0.8738,-0.9001,-0.8844,-0.8527,-0.8156,-0.7283,-0.6589,-0.636,-0.6235,-0.627,-0.6451,-0.6671,-0.7031,-0.7628,-0.7735,-0.7949,-0.848,-0.8685,-0.8871,-0.8969,-0.8989,-0.8891,-0.8643,-0.8464,-0.8367,-0.8454,-0.8308,-0.8005,-0.7629,-0.6795,-0.6098,-0.5528,0.0,0.0,0.0,0.0,0.0,0.0,0.0,0.0,0.0,0.0,0.0,0.0,0.0,0.0,0.0,0.0,0.0,0.0,0.0,0.0,0.0,0.0,0.0,-1.7929,-1.9992,-2.1594,-2.1611,-2.3854,-2.5097,-2.431,-2.5051,-2.563,-2.5684,-2.5707,-2.5701,-2.5699,-2.5703,-2.568,-2.5603,-2.5547,-2.5439,-2.529,-2.5041,-2.4766,-2.4505,-2.4155,-2.3883,-2.3588,-2.3324,-2.2917,-2.2422,-2.2192,-2.1642,-2.0893,-2.0567,-1.9939,-1.9043,-1.7477,-1.6629,-1.6269,-1.5724,-1.4709,-1.3379,-1.1751,-1.1175,-1.1074,-1.0675,-1.0308,-1.0051,-1.002,-0.9547,-0.9026,-0.8992,-0.9006,-0.9026,-0.9026,-0.9295,-0.9614,-0.9614,-0.9614,-0.9614,-0.9614,-0.9614,-0.951,-0.9256,-0.8514,-0.7771,-0.7036,-0.7456,-0.7824,-0.7568,-0.7521,0.0,-0.8162,-0.8221,-0.848,-0.9159,-0.9211,-0.9291,-0.9471,-0.9187,-0.899,-0.8921,-0.8564,-0.8521,-0.8756,-0.839,-0.806,-0.7815,-0.6714,-0.6236,-0.6417,0.0,0.0,0.0,0.0,0.0,0.0,0.0,0.0,0.0,0.0,0.0,0.0,0.0,0.0,0.0,0.0,0.0,0.0,0.0,0.0,0.0,0.0,-2.0704,-2.0482,-2.2141,-2.3601,-2.4188,-2.488,-2.5253,-2.5097,-2.535,-2.5556,-2.563,-2.5675,-2.5701,-2.5701,-2.5691,-2.5663,-2.5593,-2.557,-2.5479,-2.529,-2.5186,-2.4968,-2.4651,-2.4456,-2.4192,-2.3883,-2.3566,-2.3242,-2.2943,-2.2466,-2.1965,-2.1493,-2.0975,-2.033,-1.9536,-1.8341,-1.7517,-1.6938,-1.6312,-1.505,-1.3521,-1.2841,-1.2138,-1.1477,-1.1074,-1.1074,-1.1116,-1.0557,-1.0241,-1.0182,-1.0115,-0.9814,-0.9503,-0.9806,-0.9762,-0.9614,-0.9614,-0.9614,-0.9614,-0.9614,-0.9614,-0.951,-0.9138,-0.9503,-0.9451,-0.8049,-0.7883,-0.7931,-0.8002,-0.8156,0.0,-0.8844,-0.9106,-0.9309,-0.9458,-0.9681,-0.9702,-0.9521,-0.9368,-0.9164,-0.8929,-0.8325,-0.8015,-0.8054,-0.7912,-0.7925,-0.8096,-0.724,-0.6852,0.0,0.0,0.0,0.0,0.0,0.0,0.0,0.0,0.0,0.0,0.0,0.0,0.0,0.0,0.0,0.0,0.0,0.0,0.0,0.0,0.0,0.0,-2.1369,-2.2671,-2.3035,-2.3957,-2.4774,-2.5245,-2.5313,-2.5359,-2.5393,-2.5464,-2.5525,-2.5556,-2.5615,-2.5667,-2.5652,-2.5685,-2.5681,-2.5643,-2.5615,-2.5522,-2.5381,-2.529,-2.5133,-2.4915,-2.4678,-2.4472,-2.4229,-2.3864,-2.3544,-2.3259,-2.2781,-2.233,-2.1882,-2.137,-2.0812,0.0,0.0,0.0,0.0,0.0,-1.5353,-1.4297,-1.3501,-1.2803,-1.2236,-1.1569,-1.1528,-1.1628,-1.1326,-1.1167,-1.1108,-1.1259,-1.0897,-1.049,-1.0533,-1.0387,-1.019,-1.0035,-0.9984,-0.9984,-0.9984,-0.9984,-0.9932,-0.971,-1.0131,0.0,-0.9451,-0.9131,-0.9026,-0.904,-0.904,-0.9093,-0.9361,-0.9517,-0.9666,-0.9777,-0.9888,-0.9913,-0.9668,-0.951,0.0,0.0,0.0,-0.8109,-0.8185,-0.8023,0.0,0.0,0.0,0.0,0.0,0.0,0.0,0.0,-0.6806,-0.6618,0.0,0.0,0.0,0.0,0.0,0.0,0.0,0.0,0.0,0.0,0.0,0.0,0.0,0.0,0.0,0.0,-2.3024,-2.4418,-2.5187,-2.5303,-2.5303,-2.5303,-2.535,-2.5393,-2.5393,-2.5449,-2.5485,-2.5485,-2.555,-2.559,-2.56,0.0,0.0,0.0,0.0,-2.5582,-2.5503,-2.5394,-2.5293,-2.5201,-2.4896,-2.4712,-2.462,-2.4229,-2.3824,-2.3441,-2.3146,-2.2669,-2.2096,-2.1688,-2.1245,-2.0681,-1.9236,-1.8277,-1.7503,-1.6201,-1.572,-1.5443,-1.3914,0.0,0.0,-1.2147,-1.1868,-1.1968,-1.2224,-1.2067,-1.1918,-1.2264,-1.2067,-1.1669,-1.1368,-1.1217,-1.1074,-1.0667,-1.0573,-1.0573,-1.0573,-1.0573,-1.0616,-1.071,-1.071,-1.0761,-1.0922,-1.0736,-1.049,-1.0218,-0.9917,-0.9718,-0.9666,-0.9673,-0.9777,-1.0051,0.0,0.0,-0.9968,-0.966,-0.9334,-0.904,-0.8725,-0.8667,-0.8849,-0.8716,-0.9037,-0.9913,-0.9734,-0.9738,-1.0075,-0.9898,-0.9431,-0.8768,-0.7681,-0.7335,0.0,0.0,0.0,0.0,0.0,0.0,0.0,0.0,0.0,0.0,0.0,0.0,0.0,0.0,0.0,-2.3116,-2.4279,-2.506,-2.5264,-2.5303,-2.5303,-2.5303,-2.5303,-2.5332,-2.5332,-2.5376,-2.5418,-2.5418,-2.5478,-2.555,-2.5609,-2.5613,-2.5645,-2.5709,-2.5683,-2.5652,-2.5573,-2.5502,-2.5398,-2.5288,0.0,0.0,-2.4915,-2.4449,-2.4081,-2.3769,-2.3359,-2.2816,-2.2248,-2.1882,-2.1134,-2.0154,-1.9103,-1.8238,-1.7475,-1.685,-1.6312,-1.574,-1.4971,-1.4398,-1.3873,-1.3016,-1.2977,-1.3132,-1.257,-1.257,0.0,-1.2832,-1.2423,-1.1972,-1.2227,-1.195,-1.1477,-1.1074,-1.0972,-1.0972,-1.0972,-1.0972,-1.1074,-1.1418,-1.1728,-1.1968,-1.2017,-1.1209,-1.049,-1.0218,-1.0336,-1.0293,-0.994,-1.0146,-1.036,-1.0419,-1.0419,-1.0387,-1.0367,-1.0033,-0.9795,-0.9731,-0.9711,-0.9695,-0.9751,-1.0283,-1.0631,-1.0845,-1.0801,-1.0648,-1.04,-1.0335,-1.0011,-0.9351,-0.8724,-0.8373,0.0,0.0,0.0,0.0,0.0,0.0,0.0,0.0,0.0,0.0,0.0,-1.9163,-2.0887,0.0,-2.2981,-2.4293,-2.4889,-2.5203,-2.5243,-2.5274,-2.5303,-2.5303,-2.5322,-2.5331,-2.5293,-2.5359,-2.5578,-2.5966,-2.6067,-2.6289,-2.6726,-2.644,-2.6275,-2.6302,-2.632,-2.6327,-2.6253,-2.6221,-2.6157,-2.6047,-2.5467,-2.5149,-2.503,-2.4728,-2.4416,-2.4081,-2.3645,-2.3194,-2.2772,-2.2192,-2.1337,-2.033,-1.9687,-1.8803,-1.7828,-1.7282,-1.685,-1.6471,-1.5908,-1.5499,-1.5129,-1.4435,-1.4261,-1.4179,-1.3606,-1.3521,-1.3552,-1.3362,-1.3064,-1.2812,-1.2812,-1.2579,-1.2197,-1.1692,-1.1543,-1.1501,-1.1418,-1.1427,-1.1528,-1.1927,-1.1977,-1.2166,-1.2647,-1.2008,-1.136,-1.0998,-1.0702,-1.0462,-1.0265,-1.0419,-1.0522,-1.0522,-1.0522,-1.0522,-1.0522,-1.0137,-0.9899,-0.9951,-0.9994,-1.0165,-1.0535,-1.0901,-1.1271,-1.1624,-1.1624,-1.1454,-1.1084,-1.1085,-1.0631,-0.9748,-0.9177,-0.8776,0.0,0.0,0.0,0.0,0.0,0.0,0.0,0.0,-1.7644,-1.9375,-2.032,-2.1298,-2.271,-2.3569,-2.4271,-2.4987,-2.5149,-2.5179,-2.5171,-2.5243,-2.5274,-2.5274,-2.534,-2.5359,-2.5313,-2.534,-2.5725,-2.6544,-2.666,-2.7045,-2.7865,-2.7394,-2.7112,-2.7133,-2.7198,-2.7205,-2.7164,-2.7162,-2.7043,-2.681,-2.594,-2.539,-2.5166,-2.5005,-2.4743,-2.436,-2.3875,-2.3502,-2.3171,-2.2432,-2.1639,-2.0862,-2.0449,-1.9651,-1.8563,-1.7747,-1.7393,-1.7269,-1.6659,-1.6446,-1.6318,-1.5784,-1.5419,-1.5163,-1.4937,-1.4698,-1.4444,-1.4082,-1.3894,-1.3705,-1.3399,-1.3208,-1.2967,-1.2267,-1.211,-1.207,-1.1909,-1.1859,-1.2017,-1.2461,-1.2264,-1.2353,-1.3122,-1.2793,-1.2314,-1.1918,-1.1267,-1.082,-1.0718,-1.0718,-1.0769,-1.0812,-1.0667,-1.0624,-1.0624,-1.03,-1.0188,-1.0314,-1.0389,-1.0711,-1.1322,-1.1422,-1.1719,-1.2297,-1.226,-1.2043,-1.1728,-1.1628,-1.1065,-1.0102,-0.9406,-0.8883,-1.5505,-1.588,-1.6658,-1.8177,-1.8197,-1.8816,0.0,0.0,-2.1872,-2.3708,-2.4185,-2.436,-2.4661,-2.4801,-2.4923,-2.507,-2.5114,-2.5113,-2.5115,-2.5171,-2.5203,-2.5203,-2.5264,-2.5313,-2.5303,-2.5313,-2.5659,-2.6544,-2.6611,-2.6988,-2.7845,-2.7834,-2.783,-2.795,-2.7965,-2.8025,-2.8142,-2.8083,-2.7659,-2.6893,-2.6712,-2.6216,-2.5444,-2.5177,-2.4953,-2.4707,-2.3877,-2.3302,-2.2902,-2.2441,-2.2022,-2.1615,-2.0927,-2.0366,-1.9844,-1.8755,-1.8187,-1.7828,-1.7203,-1.6841,-1.6612,-1.6519,-1.625,-1.5971,-1.6089,-1.5884,-1.5567,-1.5367,-1.4869,-1.4408,-1.4351,-1.3941,-1.3362,-1.2706,-1.2511,-1.2511,-1.2521,-1.2521,-1.2667,-1.3324,-1.342,-1.342,-1.3515,-1.3218,-1.2822,-1.2521,-1.2255,-1.1977,-1.1619,-1.1578,-1.161,-1.1823,-1.1351,-1.1023,-1.1023,-1.0981,-1.114,-1.1495,-1.184,-1.2085,-1.2134,-1.2483,-1.2764,-1.2812,-1.2453,-1.208,-1.1728,-1.1326,-1.0922,-1.0419,-0.9673,-0.9093,-1.8548,-1.8751,-1.8947,0.0,-2.0732,-2.1401,-2.3179,-2.3138,-2.3054,-2.4309,-2.4631,-2.4711,-2.4865,-2.4879,-2.4908,0.0,-2.5076,-2.5095,-2.5101,-2.5122,-2.516,-2.5212,-2.5214,-2.5253,-2.5303,-2.5303,-2.587,-2.7255,-2.7351,-2.7939,-2.928,-2.8917,-2.8711,-2.8793,-2.8849,-2.8907,-2.8992,-2.8965,-2.8765,-2.8401,-2.7322,-2.6604,-2.6242,-2.5622,-2.5137,-2.4772,-2.4222,-2.3794,-2.344,-2.3014,-2.2669,-2.2341,-2.174,-2.1305,-2.0797,-1.9376,-1.8707,-1.8422,-1.8198,-1.8001,-1.7921,-1.7894,-1.7693,-1.7409,-1.6899,-1.6574,-1.6244,-1.568,-1.5277,-1.5051,-1.4766,-1.472,-1.449,-1.36,-1.3542,-1.3627,-1.3256,-1.317,-1.3266,-1.3573,-1.3621,-1.3668,-1.3821,-1.3563,-1.3362,-1.342,-1.2832,-1.2286,-1.2138,-1.2089,-1.208,-1.2012,-1.1774,-1.1601,-1.1477,-1.1427,-1.1628,-1.2026,-1.2224,-1.2431,-1.2627,-1.2832,-1.2881,-1.2881,-1.248,-1.2076,-1.1728,-1.1326,-1.0871,-1.047,-0.9295,-0.8659,-2.0227,-2.0659,-2.0931,-2.1601,-2.2536,-2.3271,-2.3271,-2.3382,-2.3655,-2.4264,-2.4464,-2.4599,-2.4776,-2.4806,-2.4836,-2.4983,-2.524,-2.5323,-2.5095,-2.5291,-2.5359,-2.5195,-2.519,-2.5222,-2.5264,-2.5303,-2.6024,-2.7775,-2.789,-2.8621,-3.0302,-2.9839,-2.9564,-2.9638,-2.97,-2.9757,-2.9832,-2.9855,-2.9746,-2.9488,-2.8168,-2.7292,-2.6807,-2.5926,-2.5309,-2.492,-2.4591,-2.431,-2.4026,-2.3574,-2.3248,-2.2972,-2.2485,-2.2046,-2.1562,-2.0302,-1.9558,-1.9184,-1.9109,-1.9011,-1.8898,-1.8974,-1.8822,-1.8461,-1.7706,-1.7327,-1.6967,-1.6107,-1.5812,-1.5623,-1.5311,-1.5367,-1.5289,-1.4384,-1.4326,-1.4362,-1.381,-1.3716,-1.3716,-1.381,-1.38,-1.3905,-1.4057,-1.3962,-1.3905,-1.4057,-1.3457,-1.2909,-1.2764,-1.2716,-1.2609,-1.2316,-1.2218,-1.2129,-1.1959,-1.1918,-1.2026,-1.2431,-1.248,-1.2578,-1.2881,-1.2881,-1.2881,-1.2881,-1.248,-1.2076,-1.1728,-1.1326,-1.0769,-1.0154,-0.8915,-0.8224,-1.9879,-2.1052,-2.244,-2.2458,-2.3236,-2.3959,-2.3959,-2.4077,-2.421,-2.4376,-2.4412,-2.45,-2.476,-2.4806,-2.4836,-2.4983,-2.5674,-2.5901,-2.5105,-2.5728,-2.5977,-2.5197,-2.5164,-2.5192,0.0,-2.5264,-2.6024,-2.7775,-2.789,-2.8621,-3.0302,-3.039,-3.0386,-3.0452,-3.0537,-3.0605,-3.0653,-3.0728,-3.0335,-2.9492,-2.9433,-2.853,-2.688,-2.5985,-2.5485,-2.5264,-2.4931,-2.4666,-2.4436,-2.4045,-2.3746,-2.3522,-2.2996,-2.2556,-2.2218,-2.177,-2.0991,-2.0104,-1.9859,-1.9479,-1.9139,-1.9384,-1.9161,-1.8745,-1.8539,-1.8226,-1.7828,-1.7086,-1.6595,-1.6238,-1.6032,-1.5724,-1.5334,-1.464,-1.4501,-1.4408,-1.4057,-1.3973,-1.4057,-1.4337,-1.4384,-1.4373,-1.4384,-1.4373,-1.4373,-1.4384,-1.4373,-1.414,-1.361,-1.3563,-1.3409,-1.3016,-1.2764,-1.256,-1.257,-1.2403,-1.2421,-1.2881,-1.2881,-1.2881,-1.2881,-1.2881,-1.2881,-1.2881,-1.248,-1.2076,-1.1728,-1.1326,-1.0557,-0.9413,-0.8652,-0.7966,-2.0886,-2.1785,-2.2454,-2.3138,-2.3653,-2.3996,-2.3996,-2.4036,-2.4094,-2.4133,-2.4057,-2.4058,-2.4229,-2.4425,-2.4594,-2.4704,-2.557,-2.611,-2.5844,-2.6541,-2.6797,-2.5983,-2.5958,0.0,0.0,0.0,0.0,-2.7775,-2.789,-2.8621,-3.0302,-3.0398,-3.0425,-3.0491,-3.0521,-3.0599,-3.0706,-3.0721,-3.0618,-3.0344,-2.9199,-2.8024,-2.6876,-2.5994,-2.5562,-2.5473,-2.5197,-2.4989,-2.4867,-2.452,-2.4226,-2.3966,-2.3648,-2.332,-2.2986,-2.2574,-2.2152,-2.1691,-2.1101,-2.0536,-2.0108,-2.0212,-1.9844,-1.931,-1.8907,-1.8433,-1.7961,-1.7325,-1.6795,-1.638,-1.6088,-1.6219,-1.6207,-1.5367,-1.5266,-1.5209,-1.4731,-1.4419,-1.4291,-1.4373,-1.4373,-1.4466,-1.4686,-1.4558,-1.4373,-1.4373,-1.4373,-1.4326,-1.414,-1.414,-1.3941,-1.3467,-1.3314,-1.3132,-1.2803,-1.2725,-1.2783,-1.2881,-1.2881,-1.2881,-1.2881,-1.2881,-1.2881,-1.2881,-1.2224,-1.1828,-1.1728,-1.1023,-1.0249,-0.9361,-0.8652,-0.7966,-2.1406,-2.2041,-2.2353,-2.3285,-2.3703,-2.3894,-2.3894,-2.3915,-2.3917,-2.3917,-2.3658,-2.3531,-2.3926,-2.3971,-2.4106,-2.447,-2.5675,-2.6473,-2.617,-2.7135,-2.7581,-2.6816,-2.677,-2.6594,0.0,0.0,0.0,-2.7813,-2.8137,-2.8906,-3.0321,-3.0386,-3.039,-3.0469,-3.05,-3.0539,-3.0632,-3.0671,-3.0589,-3.0325,-2.892,-2.7773,-2.6908,-2.6038,-2.5636,-2.5615,-2.5427,-2.528,-2.5178,-2.4903,-2.4667,-2.4468,-2.4155,-2.389,-2.3642,-2.3305,-2.3069,-2.283,-2.1927,-2.135,-2.0959,-2.0846,-2.0431,-1.9894,-1.9303,-1.8817,-1.838,-1.772,-1.7284,-1.6921,-1.6552,-1.6735,-1.682,-1.5988,-1.58,-1.5656,-1.522,-1.4823,-1.4605,-1.4789,-1.4789,-1.4869,-1.5096,-1.4915,-1.4743,-1.4593,-1.4605,-1.4558,-1.443,-1.4337,-1.414,-1.3905,-1.3716,-1.3525,-1.3306,-1.3113,-1.3055,-1.3152,-1.2968,-1.292,-1.3007,-1.292,-1.2881,-1.2881,-1.2274,-1.1828,-1.1728,-1.0922,-1.0035,-0.8981,-0.8442,-0.7706,-2.1455,-2.1873,-2.2224,-2.2999,-2.3435,-2.3678,-2.37,-2.3768,-2.3777,-2.3687,-2.3143,-2.2914,-2.3596,0.0,-2.3421,-2.4148,-2.592,-2.6935,-2.6161,-2.7497,-2.8336,0.0,0.0,0.0,0.0,0.0,0.0,-2.7937,0.0,-2.9404,-3.034,-3.0318,-3.0337,-3.0398,-3.0458,-3.0491,-3.0491,-3.0634,-3.0281,-2.9487,-2.8664,-2.7843,-2.6973,-2.6093,-2.5697,-2.569,-2.5632,-2.5527,-2.5395,-2.5202,-2.5088,-2.4975,-2.4511,-2.4279,-2.4192,-2.3923,-2.3735,-2.3482,-2.2459,-2.1919,-2.1685,-2.129,-2.091,-2.0483,-1.9752,-1.9369,-1.9058,-1.8266,-1.7988,-1.7868,-1.7352,-1.724,-1.706,-1.6527,-1.6095,-1.58,-1.5591,-1.5232,-1.504,-1.5424,-1.5513,-1.5513,-1.5513,-1.5513,-1.5367,-1.4994,-1.4903,-1.4777,-1.4419,-1.4197,-1.4114,-1.4326,-1.3905,-1.3716,-1.3973,-1.3515,-1.3314,-1.3563,-1.3152,-1.3007,-1.317,-1.3007,-1.2881,-1.2881,-1.248,-1.2076,-1.1728,-1.0964,-0.9858,-0.833,-0.8025,-0.7295,-2.1325,-2.1996,-2.2556,-2.3074,-2.3342,-2.3526,-2.3678,-2.3703,-2.3401,-2.2193,-2.2204,-2.1926,-2.0405,-2.168,0.0,-2.2443,-2.514,0.0,-2.7005,-2.8447,0.0,-2.8487,0.0,-2.8208,-2.7561,-2.8145,0.0,0.0,-2.8817,-2.934,-3.0279,-3.0253,-3.0272,-3.0318,-3.0343,-3.0414,-3.0491,-3.0585,-3.0203,-2.9344,-2.854,-2.7714,-2.6893,-2.6069,-2.5703,-2.5698,-2.5627,-2.558,-2.5556,-2.5493,-2.5335,-2.513,-2.4957,-2.4758,-2.4551,-2.4263,-2.4118,-2.3981,-2.3556,-2.2926,-2.2245,-2.1931,-2.1336,-2.0667,-2.0212,-1.9702,-1.9095,-1.8539,-1.8068,-1.776,-1.7598,-1.7516,-1.7393,-1.738,-1.6909,-1.6411,-1.6151,-1.5832,-1.5579,-1.5501,-1.5691,-1.578,-1.5558,-1.5724,-1.5768,-1.5412,-1.5085,-1.4777,-1.4419,-1.4326,-1.4244,-1.4104,-1.3962,-1.3821,-1.3716,-1.3563,-1.342,-1.3314,-1.318,-1.3094,-1.2968,-1.292,-1.2881,-1.2881,-1.248,-1.2076,-1.1728,-1.1217,-1.0233,-0.881,-0.8389,-0.7658,-2.1634,-2.2217,-2.2685,-2.2995,-2.3199,-2.3188,-2.2672,-2.2554,-2.2106,-2.0528,-2.0487,-2.0358,-1.9037,-2.0716,0.0,0.0,0.0,0.0,-2.7204,-2.8716,-2.9668,0.0,-2.9254,0.0,-2.8601,-2.903,-2.936,0.0,-2.9422,-2.9674,-3.0221,-3.0185,-3.019,-3.024,-3.0279,-3.0367,-3.0491,-3.0153,-2.9558,-2.8718,-2.7913,-2.7112,-2.631,-2.5866,-2.5673,-2.5702,0.0,-2.564,-2.564,-2.5615,-2.5507,-2.5356,-2.5247,-2.5081,-2.4885,-2.4681,-2.4529,-2.4388,-2.4173,-2.365,-2.2992,-2.2583,-2.2012,-2.135,-2.083,-2.0299,-1.9778,-1.9229,-1.8855,-1.8588,-1.8383,-1.8266,-1.8187,-1.8068,-1.753,-1.7034,-1.6951,-1.6527,-1.6194,-1.612,-1.6262,-1.6306,-1.5988,-1.6076,-1.6044,-1.5558,-1.5322,-1.5051,-1.4686,-1.4512,-1.4326,-1.4197,-1.4197,-1.4104,-1.3941,-1.3858,-1.38,-1.392,-1.36,-1.342,-1.3488,-1.319,-1.3007,-1.2881,-1.248,-1.2076,-1.1728,-1.1006,-1.0123,-0.8981,-0.829,-0.7557,-2.2141,-2.2432,-2.2605,-2.2825,-2.3045,-2.2794,-2.1423,-2.1019,-2.0466,-1.8699,0.0,-1.8414,-1.82,-1.9723,-2.108,-2.1279,0.0,-2.6544,-2.7007,-2.85,-2.9621,-2.9853,-2.9888,-2.9888,-2.9888,-2.9888,-2.9956,-3.0053,-3.0072,-3.0117,-3.0171,-3.0098,-3.0098,-3.0204,-3.0157,-3.0194,-3.0307,-2.9468,-2.8616,-2.7815,-2.7113,-2.6359,-2.5566,-2.5571,-2.5621,-2.5679,-2.5681,0.0,-2.5684,-2.5623,-2.5609,-2.5593,-2.5401,-2.5282,-2.5219,-2.511,-2.4917,-2.47,-2.4542,-2.4191,-2.3756,-2.3159,-2.266,-2.2186,-2.1428,-2.1023,-2.0699,-2.0054,-1.9823,-1.9717,-1.931,-1.9139,-1.9026,-1.8693,-1.812,-1.7639,-1.7707,-1.7214,-1.6808,-1.696,-1.6918,-1.6833,-1.6607,-1.6522,-1.6293,-1.5724,-1.5591,-1.5457,-1.5085,-1.4686,-1.4419,-1.4558,-1.4466,-1.443,-1.4466,-1.4197,-1.428,-1.4812,-1.4082,-1.38,-1.4129,-1.3552,-1.3132,-1.2881,-1.248,-1.2076,-1.1728,-1.0787,-0.9858,-0.8974,-0.8037,-0.7359,-2.2276,-2.2338,-2.2432,-2.2816,-2.2944,-2.2625,-2.138,-2.0626,0.0,0.0,-1.6397,-1.6433,-1.5151,-1.6846,-1.8873,-2.0155,-2.2264,-2.4503,-2.6637,-2.7975,-2.8997,0.0,-2.9888,-2.9888,-2.9888,-2.9888,0.0,0.0,0.0,-2.9988,-3.0117,-2.9988,-3.0019,-3.0185,-2.9583,-2.9255,-2.9336,-2.8538,-2.7691,-2.6834,-2.6764,-2.6276,-2.5449,-2.5499,-2.5517,-2.5537,-2.5589,0.0,-2.5615,-2.5652,-2.5681,-2.5663,-2.5579,-2.5467,-2.5357,-2.5337,-2.5166,-2.4929,-2.4917,-2.4557,-2.4039,-2.3419,-2.288,-2.2378,-2.1845,-2.1397,-2.0943,-2.0296,-1.9965,-1.9788,-1.9681,-1.9384,-1.9139,-1.9295,-1.8793,-1.8266,-1.7988,-1.7516,-1.7157,-1.7352,-1.7115,-1.6876,-1.6833,-1.665,-1.6479,-1.6337,-1.6076,-1.5901,-1.5812,-1.496,-1.4651,-1.5244,-1.4743,-1.4512,-1.4777,-1.4512,-1.4419,-1.4547,-1.4186,-1.3905,-1.3873,-1.3447,-1.3132,-1.2881,-1.248,-1.2076,-1.1728,-1.1167,-1.0285,-0.8974,-0.8442,-0.7711,-2.231,-2.231,-2.2366,-2.2659,-2.2816,-2.2464,-2.0756,0.0,0.0,0.0,-1.497,-1.4863,-1.369,-1.6141,0.0,-1.8841,-2.1222,-2.3749,-2.5875,-2.7101,0.0,-2.9636,-2.9805,-2.9822,0.0,0.0,0.0,0.0,0.0,-2.9855,-2.9991,-2.9921,-2.9573,-2.8869,-2.8891,-2.8734,-2.8368,-2.7566,-2.6963,-2.654,-2.612,-2.5745,-2.5401,-2.5398,-2.5437,-2.5499,-2.5523,0.0,-2.5556,-2.5629,-2.5654,-2.565,-2.5643,-2.5603,-2.5551,-2.5517,-2.5386,-2.5205,-2.512,-2.4803,-2.4346,-2.3906,-2.3441,-2.2996,-2.2468,-2.2096,-2.1753,-2.1197,-2.078,-2.0496,-2.0413,-2.005,-1.9762,-1.9904,-1.9442,-1.8921,-1.85,-1.8226,-1.7988,-1.7787,-1.7598,-1.7393,-1.7115,-1.6947,-1.682,-1.6637,-1.6466,-1.638,-1.638,-1.5623,-1.522,-1.5468,-1.5198,-1.5051,-1.5187,-1.5051,-1.5051,-1.5277,-1.496,-1.4686,-1.449,-1.4071,-1.36,-1.3045,-1.2647,-1.2206,-1.1728,-1.1116,-1.0233,-0.8974,-0.8396,-0.7658,-2.231,-2.231,-2.2366,-2.2569,-2.2712,-2.226,-2.0127,-1.8548,0.0,-1.4321,-1.3819,-1.3654,-1.3018,-1.5579,-1.7824,0.0,-2.0298,-2.2795,-2.4892,-2.6247,-2.7624,0.0,-2.955,0.0,-2.9839,0.0,0.0,0.0,0.0,0.0,-2.9642,-2.9642,-2.9007,-2.7646,-2.8027,-2.7979,-2.7427,-2.6572,-2.6163,-2.6144,-2.5455,-2.5184,-2.5283,-2.5265,-2.532,-2.5449,-2.5437,0.0,0.0,-2.5551,-2.5576,-2.5598,-2.5644,-2.5675,-2.5677,-2.5644,-2.5535,-2.541,-2.5299,-2.5005,-2.4652,-2.4416,-2.3985,-2.35,-2.3038,-2.2738,-2.2476,-2.1998,-2.1617,-2.1294,-2.1087,-2.0745,-2.0407,-2.0304,-1.9889,-1.942,-1.9049,-1.8898,-1.8745,-1.8305,-1.8212,-1.8054,-1.7516,-1.7434,-1.7338,-1.6964,-1.6921,-1.6921,-1.6921,-1.6298,-1.5886,-1.5888,-1.5647,-1.5558,-1.568,-1.5558,-1.5647,-1.6032,-1.5724,-1.5424,-1.5232,-1.4731,-1.4071,-1.3351,-1.2716,-1.2187,-1.1728,-1.0854,-0.9976,-0.8981,-0.8243,-0.7557,-2.231,-2.231,-2.2366,-2.2569,-2.2605,-2.2057,-1.9911,0.0,-1.6466,-1.3458,-1.2922,-1.2982,-1.2911,-1.3797,-1.5452,-1.8253,0.0,-2.0499,-2.3767,-2.5685,-2.7173,-2.8297,0.0,0.0,0.0,0.0,0.0,0.0,0.0,0.0,-2.8847,-2.8809,-2.8438,-2.7627,-2.689,-2.6517,-2.6517,-2.5533,-2.5057,-2.5057,-2.4981,-2.4924,-2.4949,-2.5072,-2.5171,-2.5224,-2.5283,0.0,0.0,-2.5485,-2.5512,-2.5518,-2.5585,-2.5615,-2.5621,-2.5671,-2.5605,-2.5489,-2.5483,-2.5253,-2.4931,-2.4803,-2.4185,-2.3455,-2.323,-2.2849,-2.2449,-2.2136,-2.1911,-2.1691,-2.1493,-2.115,-2.0745,-2.0407,-1.9889,-1.9479,-1.9442,-1.9236,-1.9064,-1.9026,-1.8968,-1.875,-1.8305,-1.8238,-1.8145,-1.7666,-1.7585,-1.7585,-1.7585,-1.6822,-1.6462,-1.698,-1.612,-1.568,-1.6182,-1.5756,-1.5724,-1.6238,-1.5812,-1.5534,-1.5543,-1.4709,-1.4071,-1.3768,-1.2433,-1.1769,-1.1728,-1.0608,-0.9673,-0.8981,-0.8243,-0.7557,-2.2203,-2.231,-2.231,-2.2405,-2.2426,-2.1968,-2.0223,-1.8443,-1.6569,-1.4406,-1.3398,-1.2893,-1.2893,-1.3939,-1.5238,-1.6487,-1.7175,-1.8369,-2.0716,-2.2557,-2.4413,-2.6395,-2.779,0.0,0.0,0.0,0.0,0.0,0.0,0.0,-2.7747,-2.8331,-2.8023,-2.6569,-2.6332,-2.5944,-2.5333,-2.5031,-2.4814,-2.4659,-2.4741,-2.4771,-2.4728,-2.4896,-2.4994,-2.5018,-2.5173,0.0,0.0,-2.5401,-2.5441,-2.5449,-2.5506,-2.5568,-2.56,-2.5639,-2.5637,-2.5605,-2.5475,-2.5347,-2.5202,-2.5041,-2.4586,-2.4043,-2.3759,-2.3477,-2.3159,-2.2849,-2.2483,-2.2108,-2.1924,-2.1568,-2.115,-2.0613,-2.0395,-2.0292,-2.003,-1.9904,-1.9747,-1.9551,-1.9391,-1.9207,-1.8846,-1.8539,-1.833,-1.8344,-1.7843,-1.7669,-1.8302,-1.7584,-1.7254,-1.7933,-1.6654,-1.6031,-1.6612,-1.6479,-1.6436,-1.665,-1.6479,-1.625,-1.6039,-1.5344,-1.4674,-1.4071,-1.2764,-1.1999,-1.1728,-1.0769,-0.9725,-0.86,-0.8283,-0.7551,-2.1779,-2.2141,-2.231,-2.231,-2.226,-2.1779,-2.0103,-1.8444,-1.6706,-1.4762,-1.3689,-1.3055,-1.2877,-1.3952,-1.4976,-1.5255,-1.5995,-1.719,-1.9056,-2.0826,-2.2756,0.0,0.0,0.0,0.0,0.0,0.0,0.0,0.0,0.0,-2.6972,-2.745,-2.705,-2.5442,-2.5568,-2.5302,-2.4547,-2.4642,-2.4607,-2.4405,-2.451,-2.4543,-2.4487,-2.4666,-2.4804,-2.491,-2.5056,0.0,0.0,-2.5215,-2.5255,-2.5265,-2.5318,-2.5403,-2.5492,-2.5538,-2.5591,-2.5615,-2.5507,-2.5466,-2.5429,-2.5255,-2.4962,-2.4618,-2.4299,-2.3983,-2.3667,-2.3295,-2.2841,-2.2456,-2.222,-2.1907,-2.1568,-2.1071,-2.0926,-2.0828,-2.0561,-2.0441,-2.0289,-2.005,-1.9945,-1.9767,-1.9457,-1.9147,-1.8968,-1.9072,-1.8496,-1.8221,-1.873,-1.8014,-1.764,-1.8095,-1.7057,-1.656,-1.7175,-1.7157,-1.7073,-1.7002,-1.6918,-1.6735,-1.6367,-1.5844,-1.5175,-1.4351,-1.3236,-1.2325,-1.1728,-1.0913,-0.9925,-0.8817,-0.8389,-0.7444,-2.0974,-2.1735,-2.231,-2.231,-2.2147,-2.1457,-1.932,-1.8178,-1.679,-1.392,-1.346,-1.3424,-1.2797,-1.3362,-1.4232,-1.5151,-1.5916,-1.7269,-1.974,-2.1488,0.0,0.0,0.0,0.0,0.0,0.0,0.0,0.0,0.0,0.0,-2.6649,-2.5986,-2.5261,-2.4444,-2.4425,-2.4407,-2.4407,-2.4266,-2.421,-2.421,-2.421,-2.421,-2.421,-2.4337,-2.4591,0.0,0.0,0.0,0.0,-2.4898,-2.4917,-2.4911,-2.4972,-2.5083,-2.5206,-2.5354,-2.5434,-2.5512,-2.5582,-2.5599,-2.5588,-2.5449,-2.5252,-2.5041,-2.4771,-2.4264,-2.371,-2.3319,-2.297,-2.2642,-2.2375,-2.2192,-2.2039,-2.184,-2.1339,-2.0893,-2.0893,-2.0679,-2.0494,-2.0494,-2.0662,-2.0628,-2.017,-2.0323,-2.0308,-1.9859,-1.9788,-1.9562,-1.8876,-1.797,-1.7375,-1.732,-1.7175,-1.732,-1.7932,-1.7787,-1.7557,-1.724,-1.7002,-1.6791,-1.6522,-1.5908,-1.532,-1.4698,-1.37,-1.2706,-1.1728,-1.0964,-1.0403,-0.9947,-0.856,-0.7289,-1.9217,-2.0051,-2.043,-1.9461,-1.9378,-1.914,-1.7582,-1.6213,-1.5028,-1.4168,-1.3344,-1.2852,-1.3143,-1.3384,-1.4066,-1.5604,-1.594,0.0,0.0,0.0,0.0,0.0,0.0,0.0,0.0,0.0,0.0,0.0,0.0,0.0,-2.5576,-2.5393,-2.5217,-2.4941,-2.4506,-2.4192,-2.4001,-2.404,-2.3999,-2.3852,-2.3899,-2.3917,-2.3873,-2.404,-2.4174,0.0,0.0,0.0,0.0,-2.4766,-2.4828,-2.4842,-2.4911,-2.4991,-2.5083,-2.5216,-2.5332,-2.5421,-2.5465,-2.5483,-2.5527,-2.5542,-2.543,-2.5291,-2.5144,-2.4752,-2.4247,-2.3741,-2.3387,-2.3056,-2.2849,-2.2634,-2.2463,-2.2209,-2.1936,-2.1612,-2.1308,-2.1214,-2.1087,-2.0761,-2.0778,-2.0778,-2.041,-1.9802,-1.9512,-2.0074,-1.8743,-1.8025,-1.8949,-1.8018,-1.7425,-1.7862,-1.7893,-1.7829,-1.7805,-1.7749,-1.7664,-1.7571,-1.7063,-1.6557,-1.6191,-1.5954,-1.5313,-1.4161,-1.3693,-1.2909,-1.1728,-1.1167,-1.0387,-0.9295,-0.8349,-0.7456,-1.6931,-1.8191,-1.8784,-1.7916,-1.7629,-1.723,-1.5889,-1.4589,-1.3543,-1.3072,-1.2337,-1.2041,-1.2801,-1.2969,-1.3458,-1.4914,-1.5315,0.0,0.0,0.0,0.0,0.0,0.0,0.0,0.0,0.0,0.0,0.0,0.0,0.0,-2.4592,-2.4534,-2.4552,-2.4635,-2.4235,-2.3941,-2.3771,-2.3837,-2.3834,-2.37,-2.3747,-2.3685,-2.3594,-2.3813,-2.3881,0.0,0.0,0.0,0.0,-2.4456,-2.454,-2.4572,-2.4632,-2.4762,-2.4943,-2.5049,-2.5166,-2.5277,-2.5345,-2.5404,-2.5476,-2.5539,-2.5492,-2.539,-2.5324,-2.4933,-2.4444,-2.4081,-2.3764,-2.3455,-2.3335,-2.3109,-2.2876,-2.2738,-2.2395,-2.2039,-2.182,-2.1628,-2.1401,-2.1135,-2.0862,-2.0734,-2.0846,-1.9845,-1.9263,-2.0094,-1.8703,-1.7822,-1.8532,-1.7911,-1.7446,-1.7571,-1.7865,-1.7991,-1.7886,-1.7975,-1.7845,-1.7514,-1.7288,-1.6824,-1.603,-1.622,-1.5688,-1.4405,-1.4233,-1.3379,-1.1801,-1.1167,-1.0241,-0.8974,-0.8501,-0.7877,0.0,-1.607,-1.7153,-1.7053,-1.6442,-1.5523,-1.4183,-1.3198,0.0,-1.1041,-1.0745,-1.1037,-1.2119,-1.228,-1.2644,-1.3781,-1.4554,0.0,0.0,-2.0206,0.0,0.0,0.0,0.0,0.0,0.0,0.0,0.0,0.0,0.0,-2.3789,-2.3531,-2.3481,-2.3656,-2.3656,-2.3656,-2.3656,-2.3656,-2.3656,-2.3656,-2.3656,-2.3549,-2.3371,-2.3549,-2.3646,0.0,0.0,0.0,0.0,-2.3983,-2.4059,-2.4173,-2.4192,-2.4426,-2.4776,-2.4861,-2.4968,-2.5102,-2.5226,-2.5321,-2.5402,-2.5483,-2.546,-2.5406,-2.5337,-2.4917,-2.4429,-2.4377,-2.4118,-2.386,-2.384,-2.3522,-2.3189,-2.332,-2.2675,-2.2095,-2.2319,-2.1938,-2.1516,-2.1472,-2.0947,-2.0701,-2.1262,-2.0234,-1.9523,-2.0,-1.9409,-1.8631,-1.786,-1.7706,-1.7393,-1.6675,-1.7212,-1.7775,-1.8115,-1.8338,-1.8121,-1.7267,-1.7685,-1.741,-1.6096,-1.6568,-1.6281,-1.5096,-1.4994,-1.3946,-1.2012,-1.1006,-1.0035,-0.9033,-0.9033,-0.8508,-1.078,0.0,-1.3795,-1.2723,-1.26,-1.2559,0.0,-1.099,-1.0427,-1.073,-1.0308,-1.062,-1.3053,-1.2684,-1.324,-1.7042,0.0,0.0,0.0,0.0,0.0,0.0,0.0,0.0,0.0,0.0,0.0,0.0,0.0,-2.343,-2.3342,-2.323,-2.3206,-2.3295,-2.3175,-2.3151,-2.3336,-2.3151,-2.3077,-2.3077,-2.3077,-2.3052,-2.3028,-2.3077,-2.3157,0.0,0.0,0.0,-2.3771,-2.3816,-2.3878,-2.3919,-2.4135,-2.4266,-2.4374,-2.4596,-2.4798,-2.4961,-2.4981,-2.5099,-2.5262,-2.5443,-2.5559,-2.5625,-2.5547,-2.5279,-2.4979,-2.4866,-2.4667,-2.4441,-2.4295,-2.3585,-2.288,-2.2876,-2.2126,-2.1525,-2.199,-2.1934,-2.1695,-2.1269,-2.1551,-2.1479,-2.0312,-1.988,-1.9734,-1.9937,-1.8876,-1.8119,-1.8215,-1.7731,-1.7198,-1.6649,-1.6754,-1.7023,-1.7407,-1.793,-1.8328,-1.8469,-1.7927,-1.7312,-1.6663,-1.6488,-1.5911,-1.4728,-1.3708,-1.2793,-1.2012,-1.1301,-1.0446,-0.9458,-0.9458,-0.8935,-0.92,-1.1205,-1.3216,-1.2484,-1.2233,-1.2131,-1.1827,-1.039,-0.9327,-1.0098,-0.9906,-1.0282,-1.2486,-1.2924,-1.3901,0.0,-1.7822,0.0,0.0,0.0,0.0,0.0,0.0,0.0,0.0,0.0,0.0,0.0,0.0,-2.2927,-2.307,-2.2952,-2.2927,-2.307,-2.279,-2.2764,-2.307,-2.2952,-2.2893,-2.2893,-2.2893,-2.2868,-2.2764,-2.2868,-2.2919,0.0,0.0,0.0,-2.3481,-2.3616,-2.3685,-2.3771,-2.3917,-2.4037,-2.4135,-2.4338,-2.4528,-2.467,-2.4783,-2.4949,-2.5156,-2.5372,-2.5512,-2.5606,-2.5604,-2.5523,-2.5387,-2.5195,-2.4992,-2.4809,-2.471,-2.3858,-2.3145,-2.3574,-2.2447,-2.1494,-2.2213,-2.2178,-2.1925,-2.1673,-2.1628,-2.1492,-2.0953,-1.9975,-1.9344,-1.9647,-1.8731,-1.8065,-1.8188,-1.7867,-1.7495,-1.7191,-1.7019,-1.7081,-1.7503,-1.8003,-1.8307,-1.8229,-1.8141,-1.7754,-1.697,-1.6887,-1.6291,-1.5195,-1.3715,-1.2716,-1.2159,-1.1551,-1.0643,-0.9614,-0.9614,-0.9204,-0.9235,-1.1545,-1.3913,-1.3381,-1.304,-1.2764,-1.2537,-1.0605,-0.9068,-0.9766,0.0,-1.0445,-1.2209,-1.3522,0.0,0.0,0.0,0.0,0.0,0.0,0.0,0.0,0.0,0.0,0.0,0.0,0.0,0.0,0.0,-2.2632,-2.2825,-2.2659,-2.2632,-2.2868,-2.2487,-2.246,-2.2773,-2.2773,-2.2816,-2.2816,-2.2816,-2.2712,-2.2525,-2.2694,-2.2694,-2.2561,0.0,0.0,-2.3217,-2.3383,-2.3522,-2.3656,-2.3656,-2.3771,-2.3921,-2.4001,-2.4174,-2.4355,-2.4594,-2.4823,-2.5031,-2.5254,-2.5406,-2.5507,-2.5551,-2.5541,-2.5446,-2.5229,-2.5029,-2.4886,-2.4874,-2.3961,-2.3232,-2.4058,-2.2697,-2.1452,-2.235,-2.2317,-2.2075,-2.2003,-2.1583,-2.1345,-2.1708,-2.0165,-1.9,-1.9381,-1.8884,-1.8383,-1.8171,-1.8128,-1.8021,-1.782,-1.7557,-1.7502,-1.7801,-1.8226,-1.8207,-1.7565,-1.8353,-1.8313,-1.7134,-1.7196,-1.6782,-1.5744,-1.4247,-1.316,-1.2463,-1.1891,-1.0939,-0.971,-0.971,-0.9361,-1.1675,-1.3423,-1.4043,-1.1074,-1.163,-1.2561,-1.1384,-1.0763,-1.0618,0.0,0.0,0.0,0.0,-1.5654,-1.6127,0.0,0.0,0.0,0.0,0.0,0.0,0.0,0.0,0.0,0.0,0.0,0.0,0.0,0.0,-2.2432,-2.2632,-2.246,-2.2432,-2.2632,-2.2405,-2.2248,-2.2141,-2.2304,-2.2377,-2.2377,-2.2377,-2.2276,-2.2084,-2.2113,-2.2209,-2.233,0.0,-2.2721,-2.3193,-2.3241,-2.336,-2.3539,-2.3458,-2.3463,-2.3491,-2.3392,-2.3617,-2.4041,-2.4478,-2.4756,-2.4924,-2.496,-2.5178,-2.5432,-2.5507,-2.504,-2.4518,-2.4528,-2.4485,-2.4383,-2.4276,-2.301,-2.1793,-2.1826,-2.1056,-2.0486,-2.1211,-2.1751,-2.188,-2.1168,-2.1932,-2.2072,-2.0151,-2.0047,-2.0062,-1.9643,-1.938,-1.9123,-1.88,-1.8664,-1.8382,-1.7859,-1.7754,-1.7647,-1.75,-1.8011,-1.8237,-1.8006,-1.865,-1.8444,-1.707,-1.6549,-1.6039,-1.54,-1.4408,-1.3563,-1.2919,-1.257,-1.1616,-1.0115,-1.0115,-0.9666,-1.0833,-1.253,-1.37,-1.1839,-1.3645,-1.572,-1.5147,-1.4112,-1.3411,0.0,0.0,0.0,0.0,0.0,-1.8173,-2.0841,0.0,0.0,0.0,0.0,0.0,0.0,0.0,0.0,0.0,0.0,0.0,0.0,0.0,0.0,-2.2432,-2.2248,-2.2101,-2.2056,-2.2032,-2.1915,-2.1675,-2.1915,-2.202,-2.202,-2.202,-2.1974,-2.1899,-2.1899,-2.1969,-2.2136,0.0,-2.2385,-2.2721,-2.2985,-2.3042,-2.3025,-2.3206,-2.3223,-2.3133,-2.3146,-2.33,-2.3574,-2.3984,-2.421,-2.4396,-2.4657,-2.4917,-2.5168,-2.5294,-2.513,-2.491,-2.4973,-2.4687,-2.4326,-2.4239,-2.3261,-2.2405,-2.2771,-2.1509,-2.04,-2.111,-2.1452,-2.1498,-2.1081,-2.1526,-2.1631,-2.0565,-2.0226,-2.0019,-1.9757,-1.9619,-1.9518,-1.9341,-1.925,-1.8996,-1.8514,-1.8303,-1.8035,-1.7555,-1.7938,-1.8157,-1.8064,-1.851,-1.8309,-1.7221,-1.6699,-1.6213,-1.5732,-1.4766,-1.3847,-1.3016,-1.2511,-1.1566,-1.021,-0.9961,-0.9465,-1.0256,-1.1775,-1.3489,-1.3565,-1.5707,-1.788,-1.8236,-1.678,-1.5532,0.0,0.0,0.0,0.0,-1.8489,0.0,-2.149,0.0,0.0,0.0,0.0,0.0,0.0,0.0,0.0,0.0,0.0,0.0,0.0,0.0,0.0,-2.2094,-2.1882,-2.1688,-2.1568,-2.1584,-2.1509,-2.1261,-2.1448,-2.1631,-2.1797,-2.1797,-2.1781,-2.1768,-2.1768,-2.1811,-2.1911,-2.1969,-2.2096,-2.2275,-2.2643,-2.2704,-2.2565,-2.2892,-2.2902,-2.279,-2.2943,-2.3032,-2.3141,-2.3468,-2.3663,-2.3848,-2.4276,-2.4584,-2.4782,-2.5007,-2.5071,-2.5043,-2.5104,-2.4742,-2.4334,-2.4313,-2.3642,-2.3149,-2.3774,-2.2251,-2.0801,-2.134,-2.1393,-2.1254,-2.1048,-2.1128,-2.1186,-2.1043,-2.0423,-1.9944,-1.9944,-1.9836,-1.9769,-1.9769,-1.9668,-1.9464,-1.9113,-1.8842,-1.8438,-1.7866,-1.7961,-1.7989,-1.78,-1.8138,-1.808,-1.7481,-1.6875,-1.6431,-1.6157,-1.5107,-1.4165,-1.3256,-1.256,-1.1566,-1.0312,-0.9917,-0.9413,-1.2065,-1.2832,-1.3788,-1.5454,-1.5933,-1.6241,-1.7271,-1.6264,0.0,-1.779,0.0,0.0,0.0,-2.005,-2.052,-2.1023,0.0,0.0,0.0,0.0,0.0,0.0,0.0,0.0,0.0,0.0,0.0,0.0,0.0,0.0,-2.1448,-2.1214,-2.1166,-2.1417,-2.1166,-2.0975,-2.086,-2.086,-2.1198,-2.1797,-2.1797,-2.1738,-2.1603,-2.1603,-2.162,-2.165,-2.1634,-2.1811,-2.2124,-2.2153,-2.2275,-2.2422,-2.2368,-2.2354,-2.2377,-2.2625,-2.2721,-2.2797,-2.3117,-2.3333,-2.3476,-2.3846,-2.4081,-2.431,-2.4639,-2.4345,-2.3928,-2.4,-2.4103,-2.4228,-2.4285,-2.3649,-2.3008,-2.3076,-2.2374,-2.1682,-2.1679,-2.1662,-2.142,-2.0603,-2.1104,-2.1396,-2.0603,-2.04,-2.0355,-2.0355,-2.0145,-1.9981,-1.9981,-1.977,-1.9522,-1.9301,-1.9095,-1.8825,-1.8465,-1.8159,-1.7766,-1.7199,-1.7587,-1.7875,-1.7958,-1.6798,-1.6179,-1.6299,-1.5344,-1.4628,-1.4129,-1.3304,-1.2159,-1.0771,-1.0364,-0.9666,-1.1455,-1.2385,-1.3458,-1.4788,-1.5962,0.0,0.0,-1.8691,-1.8868,-1.9922,-1.9885,0.0,0.0,0.0,-2.0579,0.0,0.0,0.0,0.0,0.0,0.0,0.0,0.0,0.0,0.0,0.0,0.0,0.0,0.0,0.0,-2.1134,-2.0991,-2.0828,-2.0731,-2.0681,-2.0579,-2.0392,-2.0527,-2.0745,-2.0991,-2.115,-2.1214,-2.1166,-2.134,-2.1481,-2.1589,-2.145,-2.1556,-2.1797,-2.1911,-2.194,-2.1911,-2.1969,-2.1986,-2.2003,-2.2209,-2.2258,-2.233,-2.2695,-2.2908,-2.3034,-2.3455,-2.3741,-2.3968,-2.4331,-2.4351,-2.4266,-2.4423,-2.4541,-2.4581,-2.4302,-2.4021,-2.3805,-2.3807,-2.2773,-2.1793,-2.1764,-2.1336,-2.0866,-2.054,-2.0733,-2.0845,-2.0513,-2.043,-2.0405,-2.04,-2.027,-2.0177,-2.0129,-2.0003,-1.9805,-1.9524,-1.8974,-1.8532,-1.8336,-1.798,-1.7786,-1.7848,-1.7768,-1.7604,-1.7273,-1.693,-1.6703,-1.6527,-1.5534,-1.4628,-1.3815,-1.2696,-1.1566,-1.0415,-0.9865,-0.9309,-1.0406,-1.1683,-1.3222,-1.3982,0.0,0.0,-1.9198,-1.9899,-2.0451,-2.116,-2.099,-2.0579,-2.017,0.0,0.0,0.0,0.0,0.0,0.0,0.0,0.0,0.0,0.0,0.0,0.0,0.0,0.0,0.0,0.0,0.0,0.0,-2.0563,-2.0395,-2.0227,-2.0189,-2.0115,-1.996,-2.01,-2.0135,-2.015,-2.0512,-2.0697,-2.0778,-2.1039,-2.1246,-2.1388,-2.1309,-2.1388,-2.1511,-2.1631,-2.1678,-2.162,-2.1617,-2.1631,-2.1661,-2.1688,-2.1748,-2.1853,-2.2186,-2.2375,-2.2556,-2.3032,-2.3277,-2.3472,-2.3908,-2.4155,-2.4332,-2.457,-2.4718,-2.474,-2.4491,-2.4535,-2.465,-2.4661,-2.34,-2.2204,-2.2207,-2.1327,-2.0526,-2.0527,-2.0527,-2.0526,-2.0536,-2.0488,-2.0441,-2.0425,-2.0336,-2.0253,-2.0218,-2.0135,-2.0002,-1.9688,-1.9166,-1.8752,-1.848,-1.7962,-1.7736,-1.7914,-1.7755,-1.7537,-1.7245,-1.7172,-1.7044,-1.6837,-1.5644,-1.4641,-1.3878,-1.2297,-1.1074,-1.0167,-0.9614,-0.9159,-0.9248,-1.0963,-1.3166,-1.3433,0.0,0.0,-1.8836,-1.9216,-1.965,-2.1248,-2.1023,-2.0426,-2.0135,0.0,0.0,0.0,0.0,0.0,0.0,0.0,0.0,0.0,0.0,0.0,0.0,0.0,0.0,0.0,0.0,0.0,0.0,-1.9818,-1.9833,-2.0065,-1.9617,-1.9487,-1.969,-1.9472,-1.9376,-1.9413,-1.9854,-2.0254,-2.0494,-2.0763,-2.0893,-2.0893,-2.1183,-2.1277,-2.1277,-2.1277,-2.1419,-2.1589,-2.1309,-2.1261,-2.1355,-2.1103,-2.1166,-2.1417,-2.1538,-2.1777,-2.2068,-2.2556,-2.2695,-2.2797,-2.3346,-2.3645,-2.3855,-2.4192,-2.4435,-2.464,-2.4845,-2.5129,-2.5415,-2.5474,-2.4274,-2.3091,-2.3091,-2.1784,-2.0593,-2.0593,-2.0593,-2.0593,-2.0593,-2.0534,-2.0495,-2.0495,-2.0324,-2.0191,-2.0191,-2.0141,-2.0039,-1.9839,-1.9804,-1.9576,-1.9047,-1.8266,-1.7616,-1.7157,-1.7361,-1.7707,-1.8185,-1.7441,-1.7074,-1.7186,-1.5596,-1.4665,-1.438,-1.2385,-1.099,-1.0167,-0.9762,-0.9316,-1.0316,-1.1642,-1.3382,-1.4593,0.0,0.0,0.0,-1.9695,0.0,0.0,-2.0662,-2.0426,-2.0135,0.0,0.0,0.0,0.0,0.0,0.0,0.0,0.0,0.0,0.0,0.0,0.0,0.0,0.0,0.0,0.0,0.0,0.0,-1.9617,-1.9523,-1.9596,-1.9325,-1.9101,-1.8921,-1.886,-1.8822,-1.8822,-1.8959,-1.9295,-1.9818,-2.0376,-2.053,-2.0447,-2.0828,-2.0909,-2.0761,-2.0761,-2.0877,-2.1071,-2.0811,-2.0712,-2.0778,-2.0844,-2.0909,-2.1039,-2.1446,-2.1642,-2.1836,-2.2419,-2.2624,-2.2703,-2.3116,-2.3271,-2.3369,-2.3678,-2.3848,-2.4006,-2.421,-2.461,-2.5037,-2.5239,-2.4103,-2.2943,-2.289,-2.157,-2.0395,-2.0457,-2.0464,-2.0497,-2.059,-2.0545,-2.0501,-2.0494,-2.0404,-2.0332,-2.0334,-2.0279,-2.0207,-2.0079,-1.9906,-1.9703,-1.9438,-1.9111,-1.8861,-1.8729,-1.8228,-1.772,-1.7237,-1.7112,-1.6798,-1.6151,-1.4856,-1.3576,-1.2435,-1.1349,-1.0372,-0.9465,-0.9159,-0.8956,-1.1681,-1.3013,-1.4542,-1.6049,-1.7807,-1.9271,-1.976,0.0,0.0,0.0,-2.0426,-2.0273,-2.0135,-1.9889,0.0,0.0,0.0,0.0,0.0,0.0,0.0,0.0,0.0,0.0,0.0,0.0,0.0,0.0,0.0,0.0,0.0,-1.9362,-1.9213,-1.9101,-1.8898,-1.8655,-1.8408,-1.8344,-1.8266,-1.8266,-1.85,-1.8693,-1.8945,-1.9732,-2.005,-1.9929,-2.0413,-2.053,-2.041,-2.0494,-2.0595,-2.0712,-2.0444,-2.0357,-2.0357,-2.0342,-2.0444,-2.0579,-2.0943,-2.1181,-2.1401,-2.194,-2.213,-2.2215,-2.2643,-2.259,-2.2474,-2.3136,-2.3245,-2.322,-2.3733,-2.4192,-2.4569,-2.4958,-2.3918,-2.2852,-2.282,-2.1447,-2.023,-2.0262,-2.0237,-2.023,-2.0313,-2.0318,-2.0313,-2.0351,-2.0367,-2.0406,-2.0391,-2.0363,-2.0321,-2.0246,-2.0127,-1.9946,-1.9708,-1.9465,-1.9255,-1.913,-1.871,-1.7407,-1.505,-1.652,-1.6808,-1.5629,-1.4685,-1.3373,-1.1702,-1.0805,-0.9976,-0.9211,-0.9061,-0.891,-1.2903,-1.448,-1.5993,-1.7436,-1.8341,-1.9053,-1.9617,-2.012,-2.041,-2.046,0.0,-2.01,-2.0065,0.0,0.0,0.0,0.0,0.0,0.0,0.0,0.0,0.0,0.0,0.0,0.0,0.0,0.0,0.0,0.0,0.0,0.0,-1.9064,-1.8898,-1.8592,-1.8344,-1.8173,-1.7987,-1.7814,-1.7747,-1.7747,-1.8226,-1.8305,-1.8028,-1.9035,-1.9493,-1.9515,-1.9929,-2.0139,-2.0174,-2.0342,-2.0426,-2.041,-2.017,-2.0065,-2.003,-1.9797,-1.9854,-2.01,-2.0261,-2.0514,-2.0811,-2.123,-2.1355,-2.1462,-2.2022,-2.1718,-2.1436,-2.2615,-2.2588,-2.2371,-2.3315,-2.3689,-2.3914,-2.4407,-2.3606,-2.2695,-2.2637,-2.1268,-2.0054,-2.0063,-1.9972,-1.9898,-1.9888,-1.9955,-2.0012,-2.0058,-2.0224,-2.0347,-2.0343,-2.0362,-2.0343,-2.0282,-2.0332,-2.0238,-1.9875,-1.9507,-1.9152,-1.8866,-1.895,-1.6953,-1.2392,-1.5753,-1.6801,-1.4939,-1.4531,-1.3506,-1.1773,-1.0559,-0.9621,-0.8928,-0.9099,-0.8896,-1.1523,-1.3084,-1.5037,-1.7079,-1.8587,-1.9572,-1.95,-1.969,-1.9925,-2.0135,-2.0135,-2.0065,0.0,0.0,0.0,0.0,0.0,0.0,0.0,0.0,0.0,0.0,0.0,0.0,0.0,0.0,0.0,0.0,0.0,0.0,-1.9101,-1.8707,-1.8422,-1.8383,-1.7908,-1.7544,-1.7229,-1.7201,-1.716,0.0,-1.7284,-1.7571,-1.8028,-1.8808,-1.931,-1.9479,-1.9384,-1.9573,-1.9934,-1.9747,-1.9747,-1.9945,-1.9818,-1.9797,-1.9797,-1.9711,-1.9762,-1.9818,-2.0193,-2.0348,-2.0499,-2.0942,-2.1103,-2.1103,-2.1244,-2.1162,-2.1187,-2.1811,-2.19,-2.1938,-2.2522,-2.2511,-2.2378,-2.2512,-2.2296,-2.1934,-2.136,-2.0433,-1.9717,-1.9787,-1.9812,-1.9846,-1.9898,-1.9917,-1.9893,-1.9805,-1.9916,-1.9961,-1.9858,-2.0022,-2.0152,-2.0142,-2.0207,-2.0204,-2.0124,-2.0,-1.9908,-1.9883,-1.9362,-1.7243,-1.3125,-1.5572,-1.4889,-1.0428,-1.1788,-1.1997,-1.088,-1.0072,-0.8724,-0.6972,-0.8277,-0.7564,-1.1818,-1.3361,0.0,-1.7381,0.0,-1.942,-1.9288,-1.9472,-1.9797,-2.003,-2.001,-1.9889,0.0,0.0,0.0,0.0,0.0,0.0,0.0,0.0,0.0,0.0,0.0,0.0,0.0,0.0,0.0,0.0,0.0,-1.8644,-1.8592,-1.8305,-1.8028,-1.7693,-1.7421,-1.7089,-1.6752,-1.6752,-1.6752,-1.6752,-1.6909,-1.7284,-1.7787,-1.8475,-1.8784,-1.8793,-1.8898,-1.9109,-1.9376,-1.9273,-1.9362,-1.9413,-1.9117,-1.9154,-1.9391,-1.9081,-1.9169,-1.942,-1.9645,-1.9752,-1.9808,-2.0246,-2.0431,-2.0499,-2.0828,-2.0639,-2.048,-2.1162,-2.1289,-2.1296,-2.1905,-2.1832,-2.1557,-2.1283,-2.1144,-2.0935,-2.0549,-1.9782,-1.9194,-1.9217,-1.9221,-1.9251,-1.9277,-1.9415,-1.9492,-1.9484,-1.9628,-1.9703,-1.9526,-1.9659,-1.9786,-1.9805,-1.9876,-1.9964,-2.0082,-2.013,-2.0152,-2.0199,-1.9609,-1.7394,-1.3272,-1.5472,-1.3539,-0.6624,-0.9065,-0.9612,-0.8003,-0.8176,-0.75,-0.6095,-0.6109,-0.5681,-1.2007,-1.373,-1.5342,-1.7759,-1.8655,0.0,-1.9087,-1.9398,-1.9797,-2.003,-1.9904,0.0,0.0,0.0,0.0,0.0,0.0,0.0,0.0,0.0,0.0,0.0,0.0,0.0,0.0,0.0,0.0,0.0,0.0,-1.8214,-1.7908,-1.7828,-1.753,-1.7034,-1.6909,-1.671,-1.6436,-1.6479,-1.6479,-1.6436,-1.6795,-1.7089,-1.7352,-1.7975,-1.8135,-1.7948,-1.8514,-1.8721,-1.8655,-1.8821,-1.8867,-1.8757,-1.8194,-1.8267,-1.8599,-1.818,-1.8404,-1.8881,-1.8983,-1.9064,-1.9139,-1.9479,-1.9609,-1.9717,-2.0243,-1.9976,-1.9668,-2.0557,-2.0636,-2.0629,-2.1311,-2.1138,-2.0696,-2.0301,-1.9847,-1.9577,-1.9687,-1.9147,-1.861,-1.8537,-1.8552,-1.8566,-1.8566,-1.8771,-1.8957,-1.9034,-1.9154,-1.9189,-1.9106,-1.9125,-1.9193,-1.9286,-1.9387,-1.9547,-1.979,-1.9865,-1.9898,-1.9928,-1.9445,-1.7256,-1.3065,-1.4876,-1.2293,-0.4442,-0.7092,-0.7281,-0.4617,-0.5287,-0.5149,-0.4307,-0.2967,-0.2857,-0.9598,0.0,-1.5143,0.0,-1.7998,-1.847,0.0,0.0,-1.9797,0.0,0.0,0.0,0.0,0.0,0.0,0.0,0.0,0.0,0.0,0.0,0.0,0.0,0.0,0.0,0.0,0.0,0.0,0.0,-1.7598,-1.7598,-1.7557,-1.7131,-1.6921,-1.6993,-1.6552,-1.6275,-1.6231,-1.6392,-1.6392,-1.6231,-1.6595,-1.671,-1.665,-1.7157,-1.7434,-1.7598,-1.8254,-1.8372,-1.8106,-1.8087,-1.7933,-1.7692,-1.7249,-1.6965,-1.6888,-1.7264,-1.7664,-1.8055,-1.8522,-1.886,-1.9064,-1.8846,-1.8769,-1.8769,-1.8884,-1.8948,-1.9148,-1.9778,-1.9924,-2.0001,-2.0532,-1.9752,-1.8815,-1.8927,-1.8087,-1.7417,-1.8065,-1.8273,-1.8258,-1.7906,-1.8165,-1.8434,-1.8434,-1.8323,-1.8286,-1.8397,-1.8061,-1.789,-1.8206,-1.822,-1.8282,-1.8519,-1.8713,-1.8877,-1.9026,-1.8804,-1.8711,-1.8882,-1.8411,-1.6413,-1.2636,-1.2589,-1.0483,-0.589,-0.7252,-0.6125,-0.2339,-0.1245,0.0156,0.19,0.1043,0.2094,-0.9589,-1.1972,-1.4351,0.0,-1.7723,-1.8209,-1.8956,-1.9325,-1.9617,-2.003,0.0,0.0,0.0,0.0,0.0,0.0,0.0,0.0,0.0,0.0,0.0,0.0,0.0,0.0,0.0,0.0,0.0,0.0,-1.7208,-1.7393,-1.706,-1.685,-1.6595,-1.6337,-1.61,-1.5981,-1.5981,-1.6044,-1.6044,-1.5981,-1.6132,-1.6175,-1.6132,-1.6509,-1.6879,-1.7256,-1.772,-1.7705,-1.7273,-1.7246,-1.6982,-1.6537,-1.5992,-1.5929,-1.6186,-1.6372,-1.676,-1.7257,-1.7783,-1.8068,-1.8187,-1.8147,-1.8147,-1.8187,-1.8291,-1.8525,-1.8755,-1.8841,-1.9089,-1.9346,-1.9368,-1.8597,-1.788,-1.8022,-1.7231,-1.6465,-1.6696,-1.7101,-1.7452,-1.7396,-1.7442,-1.7551,-1.7642,-1.7501,-1.7422,-1.7557,-1.7319,-1.7176,-1.7346,-1.7296,-1.7259,-1.7334,-1.7514,-1.769,-1.7827,-1.7842,-1.7937,-1.8127,-1.7745,-1.6834,-1.5321,-1.4784,-1.2677,-0.875,-0.9486,-0.8936,-0.6939,-0.4102,-0.3721,-0.5469,0.2242,0.4525,0.0,0.0,-1.2571,-1.5434,-1.655,-1.7233,0.0,0.0,-1.9316,0.0,0.0,0.0,0.0,0.0,0.0,0.0,0.0,0.0,0.0,0.0,0.0,0.0,0.0,0.0,0.0,0.0,0.0,0.0,-1.6525,-1.678,-1.6497,-1.6423,-1.6207,-1.5792,-1.5748,-1.5647,-1.5558,-1.5558,-1.5647,-1.5792,-1.5748,-1.5748,-1.5792,-1.6032,-1.6324,-1.671,-1.7131,-1.7047,-1.6599,-1.6375,-1.603,-1.5494,-1.4637,-1.4624,-1.5105,-1.5231,-1.5646,-1.6284,-1.6965,-1.731,-1.7434,-1.7421,-1.7503,-1.7612,-1.7626,-1.7907,-1.8173,-1.7987,-1.8235,-1.8493,-1.8416,-1.7669,-1.7035,-1.7221,-1.6501,-1.5807,-1.5864,-1.6157,-1.6454,-1.6648,-1.6612,-1.656,-1.6725,-1.6626,-1.6559,-1.6594,-1.6443,-1.6323,-1.6397,-1.6153,-1.6011,-1.6182,-1.6212,-1.6351,-1.6633,-1.6815,-1.7009,-1.7335,-1.699,-1.6922,-1.7253,-1.6703,-1.5212,-1.2726,-1.3238,-1.218,-0.9466,-0.6495,-0.6084,-0.7778,0.3402,0.6763,0.0,-0.8343,0.0,-1.2515,-1.375,-1.4788,0.0,0.0,0.0,0.0,0.0,0.0,0.0,0.0,0.0,0.0,0.0,0.0,0.0,0.0,0.0,0.0,0.0,0.0,0.0,0.0,0.0,0.0,-1.5193,-1.5435,-1.58,-1.5647,-1.5647,-1.5792,-1.5603,-1.5322,-1.4949,-1.4949,-1.5232,-1.5792,-1.5603,-1.5603,-1.5792,-1.5603,-1.5647,-1.5925,-1.6557,-1.6659,-1.6273,-1.5489,-1.5006,-1.4611,-1.3252,-1.278,-1.2938,-1.3658,-1.4304,-1.4962,-1.5981,-1.6752,-1.7115,-1.657,-1.6697,-1.6951,-1.6527,-1.674,-1.716,-1.7463,-1.7368,-1.7341,-1.7973,-1.6981,-1.5901,-1.6297,-1.5637,-1.5166,-1.592,-1.5665,-1.5345,-1.5535,-1.5692,-1.5762,-1.5775,-1.5821,-1.5777,-1.5517,-1.5213,-1.5091,-1.5345,-1.4704,-1.4505,-1.5286,-1.4978,-1.4979,-1.572,-1.5615,-1.5732,-1.6349,-1.5879,-1.5909,-1.6617,-1.6254,-1.6669,-1.807,-1.8684,-1.4578,-0.558,-0.5321,-0.1983,0.4125,0.5516,0.9622,0.0,0.0,0.0,-1.1143,-1.2529,-1.3672,-1.5172,-1.6333,0.0,0.0,0.0,0.0,0.0,0.0,0.0,0.0,0.0,0.0,0.0,0.0,0.0,0.0,0.0,0.0,0.0,0.0,0.0,0.0,0.0,-1.4806,-1.4833,-1.4931,-1.5084,-1.5322,-1.4742,-1.4395,-1.434,-1.4305,-1.4547,-1.5028,-1.4937,-1.5062,-1.5334,-1.5289,-1.5289,-1.5334,-1.5355,-1.5277,-1.5064,-1.4755,-1.4234,-1.3547,-1.2777,-1.2487,-1.259,-1.3185,-1.372,-1.4237,-1.5025,-1.5599,-1.592,-1.5421,-1.5555,-1.582,-1.5421,-1.5864,-1.6484,-1.617,-1.6157,-1.6287,-1.6318,-1.5496,-1.4613,-1.4493,-1.4279,-1.42,-1.4491,-1.4491,-1.4568,-1.4972,-1.4972,-1.4972,-1.5108,-1.4685,-1.4391,-1.4609,-1.41,-1.3756,-1.3931,-1.3631,-1.3432,-1.3552,-1.369,-1.3872,-1.4142,-1.454,-1.4954,-1.5375,-1.527,-1.5521,-1.6246,-1.5781,-1.6268,-1.7947,-1.8539,-1.7733,-1.5495,-1.2375,-1.1348,-1.2067,-0.3676,-0.0176,-0.6468,0.0,0.0,0.0,0.0,-1.1922,-1.3912,0.0,0.0,0.0,0.0,0.0,0.0,0.0,0.0,0.0,0.0,0.0,0.0,0.0,0.0,0.0,0.0,0.0,0.0,0.0,0.0,0.0,0.0,0.0,-1.3746,-1.3916,-1.4118,-1.4272,-1.3609,-1.3323,-1.3555,-1.3419,-1.3555,-1.3937,-1.3937,-1.4161,-1.4471,-1.4642,-1.4676,-1.4676,-1.4641,-1.4563,-1.4425,-1.4124,-1.3628,-1.2999,-1.2492,-1.2308,-1.2494,-1.2933,-1.3308,-1.3685,-1.4283,-1.4663,-1.4892,-1.4571,-1.4755,-1.5028,-1.4617,-1.5017,-1.5511,-1.4971,-1.5017,-1.5118,-1.4867,-1.4262,-1.3619,-1.3231,-1.3204,-1.3331,-1.3535,-1.3635,-1.3842,-1.4315,-1.4187,-1.4071,-1.416,-1.369,-1.339,-1.3537,-1.3017,-1.2731,-1.309,-1.2723,-1.2481,-1.2565,-1.277,-1.2948,-1.3079,-1.3656,-1.4227,-1.4672,-1.4783,-1.5196,-1.5894,-1.5787,-1.6472,-1.8123,-1.8818,-1.9915,-2.1437,-1.8172,-1.7259,-1.8329,-0.9822,-0.648,0.0,0.0,0.0,0.0,0.0,0.0,-1.3267,0.0,0.0,0.0,0.0,0.0,0.0,0.0,0.0,0.0,0.0,0.0,0.0,0.0,0.0,0.0,0.0,0.0,0.0,0.0,0.0,0.0,-1.1882,-1.2125,-1.2626,-1.27,-1.27,-1.2647,-1.2287,-1.2287,-1.2669,-1.2287,-1.2297,-1.2669,-1.2669,-1.2848,-1.3226,-1.3661,-1.3828,-1.3817,-1.4314,-1.4523,-1.449,-1.359,-1.3218,-1.312,-1.2331,-1.22,-1.2519,-1.2693,-1.2927,-1.326,-1.3761,-1.4071,-1.4212,-1.4014,-1.4247,-1.456,-1.4107,-1.4107,-1.4201,-1.3956,-1.3909,-1.3907,-1.3718,-1.3313,-1.2925,-1.2615,-1.2484,-1.2544,-1.3135,-1.3148,-1.316,-1.3514,-1.3297,-1.301,-1.2894,-1.2916,-1.2812,-1.233,-1.1984,-1.2045,-1.2857,-1.1969,-1.161,-1.2391,-1.2234,-1.2179,-1.2555,-1.2985,-1.3555,-1.4222,-1.4452,-1.4864,-1.5548,-1.6308,-1.7454,-1.9058,-1.9984,-2.0936,-2.194,-2.179,-1.8443,-1.2209,-1.1955,-0.8316,-0.5441,0.0,0.0,0.0,0.0,0.0,0.0,0.0,0.0,0.0,0.0,0.0,0.0,0.0,0.0,0.0,0.0,0.0,0.0,0.0,0.0,0.0,0.0,0.0,0.0,0.0,0.0,0.0,-1.1276,-1.1684,-1.1799,-1.2362,-1.2425,-1.1799,-1.1994,-1.203,-1.19,-1.177,-1.191,-1.2244,-1.2126,-1.242,-1.304,-1.2979,-1.3128,-1.3367,-1.3195,-1.315,-1.314,-1.3277,-1.3094,-1.2684,-1.2309,-1.2086,-1.2005,-1.227,-1.2584,-1.2909,-1.2887,-1.3122,-1.3304,-1.2783,-1.2871,-1.3092,-1.2735,-1.3025,-1.3447,-1.3044,-1.3102,-1.3121,-1.244,-1.2563,-1.2656,-1.183,-1.2018,-1.2365,-1.2306,-1.2151,-1.2151,-1.2708,-1.2461,-1.2162,-1.2126,-1.1788,-1.1594,-1.1689,-1.1457,-1.1366,-1.177,-1.1257,-1.1104,-1.1631,-1.119,-1.12,-1.2006,-1.2378,-1.2904,-1.3749,-1.3689,-1.4141,-1.5181,-1.6054,-1.7358,-1.9225,-2.0441,-2.1678,-2.2975,-2.2643,-2.1505,-1.9647,-1.9704,-1.8748,-0.5888,0.0,0.0,0.0,0.0,0.0,0.0,-0.876,0.0,0.0,0.0,0.0,0.0,0.0,0.0,0.0,0.0,0.0,0.0,0.0,0.0,0.0,0.0,0.0,0.0,-1.0283,-1.0283,-1.0283,-1.0716,-1.0945,-1.0865,-1.1297,-1.1318,-1.0704,-1.1022,-1.1118,-1.0942,-1.1025,-1.1109,-1.1243,-1.1243,-1.1535,-1.2054,-1.2283,-1.2454,-1.2673,-1.2638,-1.2521,-1.2442,-1.2745,-1.2657,-1.2304,-1.2205,-1.2063,-1.1967,-1.2206,-1.2396,-1.252,-1.2483,-1.2559,-1.255,-1.2215,-1.2206,-1.2344,-1.2166,-1.2412,-1.2696,-1.2335,-1.2213,-1.2063,-1.1681,-1.176,-1.1809,-1.1281,-1.147,-1.1774,-1.1726,-1.1468,-1.142,-1.2066,-1.1847,-1.1516,-1.1468,-1.1225,-1.109,-1.1245,-1.0874,-1.0803,-1.1535,-1.0894,-1.0524,-1.0951,-1.0577,-1.0502,-1.0989,-1.1287,-1.1774,-1.2517,-1.3046,-1.3658,-1.4299,-1.6282,-1.7884,-1.9003,-1.7568,-1.7411,-1.8555,-2.1577,-2.3141,-2.3302,-2.3486,-2.3617,-0.6543,-0.6701,0.0,0.0,-0.6903,0.0,-0.8427,-0.8149,-0.8133,0.0,0.0,0.0,0.0,0.0,0.0,0.0,0.0,0.0,0.0,0.0,0.0,0.0,0.0,0.0,-1.0312,-1.0244,-1.0244,-1.0244,-1.0244,-1.0176,-0.999,-0.998,-0.9872,-0.9723,-0.9872,-0.999,-0.998,-1.0176,-1.0137,-0.999,-1.0296,-1.0512,-1.0713,-1.1502,-1.1846,-1.1874,-1.2272,-1.2295,-1.2026,-1.2026,-1.2026,-1.2076,-1.2076,-1.2076,-1.2076,-1.2382,-1.2274,-1.2126,-1.2323,-1.2274,-1.2076,-1.2026,-1.2026,-1.2026,-1.2026,-1.2026,-1.1977,-1.1728,-1.1323,-1.0994,-1.1235,-1.1055,-1.0826,-1.1006,-1.1015,-1.1148,-1.1491,-1.1176,-1.1023,-1.1632,-1.1448,-1.1151,-1.1089,-1.1055,-1.1006,-1.0964,-1.0446,-1.0436,-1.164,-1.0626,-0.996,-1.0362,-1.0112,-0.9879,-0.97,-0.9826,-1.0103,-1.0539,-1.179,-1.2359,-1.1972,-1.5197,-1.6804,-1.6378,-1.1745,-0.9688,-1.041,-1.9178,-2.3759,-2.43,-2.4424,-2.4591,-0.73,-0.7705,-0.7977,-0.688,0.0,0.0,-0.6897,-0.7079,-0.7657,0.0,0.0,0.0,0.0,0.0,0.0,0.0,0.0,0.0,0.0,0.0,0.0,0.0,0.0,0.0,-1.039,-1.0049,-0.9832,-0.9832,-0.9832,-0.9793,-0.9762,-0.9762,-0.9762,-0.9683,-0.9753,-0.9832,-0.998,-0.9872,-0.9872,-0.999,-1.0027,-1.0211,-1.057,-1.0833,-1.1116,-1.1414,-1.1534,-1.1519,-1.1477,-1.1477,-1.1578,-1.1778,-1.2026,-1.1977,-1.1819,-1.2076,-1.2126,-1.2076,-1.1927,-1.1828,-1.1728,-1.1528,-1.1477,-1.1477,-1.1477,-1.1477,-1.1427,-1.1276,-1.0897,-1.0556,-1.0666,-1.0904,-1.1168,-1.1233,-1.1571,-1.1859,-1.1912,-1.1828,-1.1659,-1.1361,-1.1109,-1.1094,-1.1484,-1.1344,-1.1073,-1.0888,-1.0795,-1.086,-1.0983,-0.9963,-0.9435,-1.0177,-0.9048,-0.8507,-0.9011,-0.82,-0.7544,-0.7262,-0.7064,-0.5927,-0.3671,-0.5443,-0.5207,-0.2552,-0.1787,-0.1498,-0.1692,-1.6613,-2.4023,-2.4298,-2.4315,-2.4383,-0.7973,-0.828,-0.8461,-0.7722,0.0,0.0,0.0,-0.6833,-0.6997,-0.7988,0.0,0.0,0.0,0.0,0.0,0.0,0.0,0.0,0.0,0.0,0.0,0.0,0.0,0.0,-0.9828,-0.9741,-0.9683,-0.9683,-0.9683,-0.9634,-0.9506,-0.9496,-0.9466,-0.9355,-0.9466,-0.9536,-0.9646,-0.9506,-0.9417,-0.9408,-0.956,-0.9813,-1.01,-1.0493,-1.0925,-1.1276,-1.1074,-1.1124,-1.1267,-1.0854,-1.0854,-1.1217,-1.1569,-1.1628,-1.1528,-1.1977,-1.2026,-1.1927,-1.2076,-1.1927,-1.1678,-1.1528,-1.1427,-1.1326,-1.1326,-1.1175,-1.0922,-1.0651,-1.0541,-1.0551,-1.0582,-1.0791,-1.1078,-1.1288,-1.1442,-1.1562,-1.1737,-1.179,-1.1806,-1.1801,-1.1665,-1.1528,-1.1475,-1.1256,-1.1077,-1.1077,-1.0771,-1.0618,-1.0754,-0.9239,-0.8383,-0.9003,-0.7235,-0.6144,-0.6439,-0.5572,-0.484,-0.4282,-0.4776,-0.4303,-0.2563,-0.3128,-0.0217,0.6699,0.2601,0.2509,0.6765,-0.5701,-1.1834,-1.1922,-1.1922,-1.1996,0.0,0.0,0.0,0.0,0.0,-0.8153,0.0,0.0,0.0,-0.7823,0.0,0.0,0.0,0.0,0.0,0.0,0.0,0.0,0.0,0.0,0.0,0.0,0.0,0.0,0.0,-0.9241,-0.9352,-0.9457,-0.937,-0.9265,-0.9239,-0.9239,-0.9128,-0.8895,-0.9039,-0.9119,-0.911,-0.9007,-0.8878,-0.8699,-0.9113,-0.9363,-0.9509,-1.025,-1.0697,-1.0965,-1.0677,-1.0761,-1.1015,-1.0277,-1.0233,-1.0608,-1.0913,-1.1167,-1.1326,-1.1678,-1.1728,-1.1628,-1.2026,-1.1877,-1.1528,-1.1528,-1.1377,-1.1175,-1.1175,-1.082,-1.0352,-0.9976,-1.0138,-1.0462,-1.0565,-1.0656,-1.0822,-1.139,-1.1287,-1.1186,-1.1682,-1.1717,-1.1824,-1.2256,-1.2194,-1.1958,-1.1478,-1.1277,-1.1247,-1.1343,-1.0757,-1.0327,-1.0356,-0.8459,-0.7189,-0.7359,-0.5203,-0.3684,-0.356,-0.2849,-0.2121,-0.1395,-0.2541,-0.2752,-0.1532,-0.0126,0.4725,1.3383,0.7718,0.8159,1.5193,0.8567,0.3654,0.0446,0.0458,0.0368,0.0,0.0,0.0,0.0,-0.9158,0.0,0.0,0.0,-0.8104,-0.7158,0.0,0.0,0.0,0.0,0.0,0.0,0.0,0.0,0.0,0.0,0.0,0.0,0.0,0.0,0.0,-0.8359,-0.8065,-0.8594,-0.8127,-0.8193,-0.8981,-0.9016,-0.8895,-0.8561,-0.8602,-0.8545,-0.8407,-0.8218,-0.8218,-0.8374,-0.8839,-0.8936,-0.8764,-0.9645,-0.9973,-0.9797,-0.9992,-1.0123,-1.0123,-1.0064,-1.0012,-1.0072,-1.0123,-1.0541,-1.1124,-1.0922,-1.0972,-1.1124,-1.0972,-1.0871,-1.082,-1.082,-1.0769,-1.0769,-1.0769,-1.0198,-0.9517,-0.9465,-0.9517,-0.9621,-0.9969,-1.0364,-1.0914,-1.1805,-1.1828,-1.1733,-1.228,-1.2231,-1.2046,-1.2141,-1.1904,-1.1837,-1.2048,-1.1997,-1.1805,-1.1358,-1.1208,-1.0695,-0.9363,-0.7576,-0.6163,-0.5498,-0.3431,-0.2072,-0.207,-0.0759,0.0543,0.1643,0.2032,0.3607,0.6784,1.2256,1.6099,1.8002,2.0356,2.232,2.3879,2.3118,1.5001,0.0235,0.0295,0.0277,0.0,0.0,0.0,0.0,0.0,0.0,-0.823,0.0,-0.7761,0.0,0.0,0.0,0.0,0.0,0.0,0.0,0.0,0.0,0.0,0.0,0.0,0.0,0.0,0.0,0.0,0.0,0.0,0.0,-0.763,-0.7862,-0.8431,-0.8616,-0.8643,-0.8521,-0.8308,-0.8185,-0.8136,-0.7848,-0.7765,-0.7841,-0.8046,-0.8173,-0.8342,-0.9079,-0.9471,-0.9588,-0.9621,-0.9762,-0.9969,-0.951,-0.9465,-0.9614,-0.9413,-0.9777,-1.049,-1.049,-1.0753,-1.1074,-1.0846,-1.0854,-1.0871,-1.0446,-1.0285,-1.0241,-1.0035,-0.9673,-0.9413,-0.9413,-0.9413,-0.9569,-1.0241,-1.0557,-1.0922,-1.1678,-1.1778,-1.1778,-1.2175,-1.1968,-1.1719,-1.1877,-1.151,-1.1292,-1.1592,-1.146,-1.1326,-1.1528,-1.0753,-1.0072,-0.9636,-0.6892,-0.49,-0.4703,-0.109,0.1311,0.1364,0.2834,0.4206,0.5209,0.5504,0.7128,1.0392,1.376,1.6799,1.9437,2.2154,2.3926,2.4723,2.5223,2.1834,1.4873,1.4995,1.5001,-0.9016,0.0,0.0,0.0,0.0,0.0,0.0,0.0,0.0,0.0,0.0,0.0,0.0,0.0,0.0,0.0,0.0,0.0,0.0,0.0,0.0,0.0,0.0,0.0,0.0,0.0,0.0,0.0,0.0,-0.7271,-0.7924,-0.8158,-0.8254,-0.8226,-0.7979,-0.7814,-0.7731,-0.7482,-0.7349,-0.7356,-0.744,-0.7559,-0.7757,-0.8335,-0.8696,-0.8834,-0.8869,-0.9096,-0.9424,-0.8885,-0.8881,-0.9211,-0.891,-0.9159,-0.9718,-1.0012,-1.0379,-1.0702,-1.0474,-1.0533,-1.0549,-1.0123,-0.9917,-0.9762,-0.9465,-0.9309,-0.9263,-0.9263,-0.9413,-0.9718,-1.0344,-1.0616,-1.082,-1.1427,-1.1477,-1.1528,-1.1778,-1.1519,-1.1309,-1.1628,-1.1091,-1.0779,-1.1318,-1.1074,-1.0972,-1.1519,-1.0549,-0.9769,-0.9747,-0.64,-0.3812,-0.3317,0.0978,0.4059,0.4638,0.5797,0.6844,0.7611,0.767,0.8734,1.1094,1.3,1.549,1.877,2.1333,2.3144,2.4163,2.4927,2.5323,2.5426,2.559,2.5644,0.0,0.0,0.0,-0.8403,0.0,0.0,0.0,0.0,-0.8918,0.0,0.0,0.0,0.0,0.0,0.0,0.0,0.0,0.0,0.0,0.0,0.0,0.0,0.0,0.0,0.0,0.0,0.0,0.0,0.0,0.0,-0.7532,-0.7617,-0.7606,-0.7551,-0.7523,-0.7356,-0.7021,-0.7021,-0.7021,-0.7021,-0.7358,-0.7214,-0.6757,-0.7379,-0.7355,-0.6939,-0.7452,-0.7824,-0.8075,-0.8333,-0.855,-0.8804,-0.8811,-0.8804,-0.891,-0.9263,-0.9614,-0.9814,-0.951,-0.9465,-0.9517,-0.9865,-0.971,-0.9413,-0.9413,-0.9113,-0.8804,-0.8804,-0.9361,-0.9969,-1.002,-1.0344,-1.0769,-1.1074,-1.0922,-1.082,-1.1074,-1.0922,-1.0922,-1.1569,-1.0787,-1.0379,-1.1519,-1.1368,-1.1124,-1.1267,-1.0922,-1.0233,-0.9155,-0.6134,-0.3143,-0.0701,0.2561,0.5325,0.7131,0.7382,0.7611,0.8069,0.8069,0.8319,0.8813,1.1969,1.4398,1.5798,1.9725,2.2423,2.3822,2.4624,2.5077,2.5216,2.5488,2.5603,0.0,0.0,-0.9131,-0.8523,0.0,0.0,0.0,0.0,0.0,0.0,0.0,0.0,0.0,0.0,0.0,0.0,0.0,0.0,0.0,0.0,0.0,0.0,0.0,0.0,0.0,0.0,0.0,0.0,-0.5589,0.0,0.0,-0.7255,-0.745,-0.7301,-0.7098,-0.6852,-0.6617,-0.6617,-0.6617,-0.6617,-0.6711,-0.6532,-0.6099,-0.6543,-0.651,-0.6116,-0.6499,-0.685,-0.7144,-0.7416,-0.7745,-0.8011,-0.8134,-0.8203,-0.8256,-0.8798,-0.9211,-0.951,-0.9249,-0.8935,-0.8732,-0.8666,-0.8508,-0.8455,-0.8679,-0.8633,-0.8639,-0.9054,-0.9047,-0.9093,-0.9806,-0.9814,-0.971,-1.0226,-1.0285,-1.0285,-1.0328,-1.0079,-0.9984,-1.0482,-0.9821,-0.9517,-1.0431,-1.0482,-1.0592,-1.1217,-1.0702,-1.0123,-0.9695,-0.6159,-0.2909,-0.08,0.3401,0.6625,0.8022,0.8992,0.9835,1.0442,1.0501,1.0645,1.109,1.3521,1.5381,1.6414,1.965,2.1915,2.3129,2.3861,2.4505,2.5072,2.5158,2.5263,-0.8975,-0.8948,0.0,-0.8403,-0.8139,0.0,-0.7671,0.0,0.0,0.0,0.0,0.0,0.0,0.0,0.0,0.0,0.0,0.0,0.0,0.0,0.0,0.0,0.0,0.0,0.0,0.0,-0.483,-0.4481,-0.4934,0.0,0.0,0.0,-0.6789,-0.6894,-0.6689,-0.6526,-0.6416,-0.6416,-0.6416,-0.6416,-0.6416,-0.6147,-0.5707,-0.5908,-0.575,-0.5345,-0.5626,-0.5966,-0.6326,-0.6574,-0.6895,-0.7281,-0.7382,-0.7444,-0.7498,-0.8203,-0.8573,-0.862,-0.8448,-0.8137,-0.7777,-0.7711,-0.7711,-0.7765,-0.8096,-0.8203,-0.8309,-0.8725,-0.8679,-0.8626,-0.9347,-0.919,-0.8981,-0.9399,-0.9503,-0.9503,-0.9503,-0.9347,-0.9406,-0.9762,-0.9263,-0.9061,-0.9865,-1.0012,-1.0226,-1.0964,-1.049,-0.9784,-0.9165,-0.5426,-0.1983,0.0425,0.4725,0.801,0.9518,1.0576,1.141,1.1877,1.1778,1.1968,1.2608,1.4141,1.5536,1.6667,1.9211,2.107,2.2124,2.3181,2.3952,2.4432,2.4401,2.4426]},{"header":{"parameterUnit":"m.s-1","parameterCategory":1,"la1":30.6,"la2":29.2853,"lo1":-89.7004,"lo2":-87.6739,"dy":0.0162,"dx":0.0183,"nx":112,"ny":82,"refTime":"2024-08-20T18:00:00:Z","depth":0,"parameterNumber":3,"parameterNumberName":"V-component_of_WINDS"},"data":[0.0,0.0,0.0,0.0,0.0,0.0,0.0,0.0,0.0,0.0,0.0,0.0,0.0,0.0,0.0,0.0,0.0,0.0,0.0,0.0,0.0,0.0,0.0,0.0,0.0,0.0,0.0,0.0,0.0,0.0,0.0,0.0,0.0,0.0,0.0,0.0,0.0,0.0,0.0,0.0,0.0,0.0,0.0,0.0,0.0,0.0,0.0,0.0,0.0,0.0,0.0,0.0,0.0,0.0,0.0,0.0,0.0,0.0,0.0,0.0,0.0,0.0,0.0,0.0,0.0,0.0,0.0,0.0,0.0,0.0,0.0,0.0,0.0,0.0,0.0,0.0,0.0,0.0,0.0,0.0,0.0,0.0,0.0,0.0,0.0,0.0,0.0,0.0,0.0,0.0,-2.0092,-2.2915,-2.4521,-2.5436,-2.5524,-2.5562,-2.4168,-2.0792,0.0,0.0,0.0,0.0,0.0,0.0,0.0,0.0,0.0,0.0,0.0,0.0,0.0,0.0,0.0,0.0,0.0,0.0,0.0,0.0,0.0,0.0,0.0,0.0,0.0,0.0,0.0,0.0,0.0,0.0,0.0,0.0,0.0,0.0,0.0,0.0,0.0,0.0,0.0,0.0,0.0,0.0,0.0,0.0,0.0,0.0,0.0,0.0,0.0,0.0,0.0,0.0,0.0,0.0,0.0,0.0,0.0,0.0,0.0,0.0,0.0,0.0,0.0,0.0,0.0,0.0,0.0,0.0,0.0,0.0,0.0,0.0,0.0,0.0,0.0,0.0,0.0,0.0,0.0,0.0,0.0,0.0,0.0,0.0,0.0,0.0,0.0,0.0,0.0,0.0,0.0,0.0,0.0,0.0,0.0,0.0,0.0,0.0,0.0,0.0,0.0,0.0,0.0,0.0,-2.0623,-2.4656,-2.5269,-2.5451,-2.5557,-2.5589,-2.415,-2.0721,0.0,0.0,0.0,0.0,0.0,0.0,0.0,0.0,0.0,0.0,0.0,0.0,0.0,0.0,0.0,0.0,0.0,0.0,0.0,0.0,0.0,0.0,0.0,0.0,0.0,0.0,0.0,0.0,0.0,0.0,0.0,0.0,0.0,0.0,0.0,0.0,0.0,0.0,0.0,0.0,0.0,0.0,0.0,0.0,0.0,0.0,0.0,0.0,0.0,0.0,0.0,0.0,0.0,0.0,0.0,0.0,0.0,0.0,0.0,0.0,0.0,0.0,0.0,0.0,0.0,0.0,0.0,0.0,0.0,0.0,0.0,0.0,0.0,0.0,0.0,0.0,0.0,0.0,0.0,0.0,0.0,0.0,0.0,0.0,0.0,0.0,0.0,0.0,0.0,0.0,0.0,0.0,0.0,0.0,0.0,0.0,0.0,0.0,0.0,0.0,0.0,0.0,0.0,-2.0636,-2.226,-2.515,-2.5476,-2.553,-2.5584,-2.5625,-2.4198,-2.0774,-1.8959,0.0,0.0,0.0,0.0,0.0,0.0,0.0,0.0,0.0,0.0,0.0,0.0,0.0,0.0,0.0,0.0,0.0,0.0,0.0,0.0,0.0,0.0,0.0,0.0,0.0,0.0,0.0,0.0,0.0,0.0,0.0,0.0,0.0,0.0,0.0,0.0,0.0,0.0,0.0,0.0,0.0,0.0,0.0,0.0,0.0,0.0,0.0,0.0,0.0,0.0,0.0,0.0,0.0,0.0,0.0,0.0,0.0,0.0,0.0,0.0,0.0,0.0,0.0,0.0,0.0,0.0,0.0,0.0,0.0,0.0,0.0,0.0,0.0,0.0,0.0,0.0,0.0,0.0,0.0,0.0,0.0,0.0,0.0,0.0,0.0,0.0,0.0,0.0,0.0,0.0,0.0,0.0,0.0,0.0,0.0,0.0,0.0,0.0,0.0,0.0,0.0,0.0,-2.2991,-2.403,-2.534,-2.5546,-2.5601,-2.5602,-2.5099,-2.3574,-2.0751,-1.8386,0.0,0.0,0.0,0.0,0.0,0.0,0.0,0.0,0.0,0.0,0.0,0.0,0.0,0.0,0.0,0.0,0.0,0.0,0.0,0.0,0.0,0.0,0.0,0.0,0.0,0.0,0.0,0.0,0.0,0.0,0.0,0.0,0.0,0.0,0.0,0.0,0.0,0.0,0.0,0.0,0.0,0.0,0.0,0.0,0.0,0.0,0.0,0.0,0.0,0.0,0.0,0.0,0.0,0.0,0.0,0.0,0.0,0.0,0.0,0.0,0.0,0.0,0.0,0.0,0.0,0.0,0.0,0.0,0.0,0.0,0.0,0.0,0.0,0.0,0.0,0.0,0.0,0.0,0.0,0.0,0.0,0.0,0.0,0.0,0.0,0.0,0.0,0.0,0.0,0.0,0.0,0.0,0.0,0.0,0.0,0.0,0.0,0.0,0.0,0.0,0.0,0.0,-2.3396,-2.5406,-2.5654,-2.5633,-2.5595,-2.5595,-2.3429,-2.1633,-2.0564,-1.6652,0.0,0.0,0.0,0.0,0.0,0.0,0.0,0.0,0.0,0.0,0.0,0.0,0.0,0.0,0.0,0.0,0.0,0.0,0.0,0.0,0.0,0.0,0.0,0.0,0.0,0.0,0.0,0.0,0.0,0.0,0.0,0.0,0.0,0.0,0.0,0.0,0.0,0.0,0.0,0.0,0.0,0.0,0.0,0.0,0.0,0.0,0.0,0.0,0.0,0.0,0.0,0.0,0.0,0.0,0.0,0.0,0.0,0.0,0.0,0.0,0.0,0.0,0.0,0.0,0.0,0.0,0.0,0.0,0.0,0.0,0.0,0.0,0.0,0.0,0.0,0.0,0.0,0.0,0.0,0.0,0.0,0.0,0.0,0.0,0.0,0.0,0.0,0.0,0.0,0.0,0.0,0.0,0.0,0.0,0.0,0.0,0.0,0.0,0.0,0.0,0.0,0.0,-2.2516,-2.4417,0.0,-2.5654,-2.5642,-2.5604,-2.4215,-2.2302,-1.9848,0.0,0.0,0.0,0.0,0.0,0.0,0.0,0.0,0.0,0.0,0.0,0.0,0.0,0.0,0.0,0.0,0.0,0.0,0.0,0.0,0.0,0.0,0.0,0.0,0.0,0.0,0.0,0.0,0.0,0.0,0.0,0.0,0.0,0.0,0.0,0.0,0.0,0.0,0.0,0.0,0.0,0.0,0.0,0.0,0.0,0.0,0.0,0.0,0.0,0.0,0.0,0.0,0.0,0.0,0.0,0.0,0.0,0.0,0.0,0.0,0.0,0.0,0.0,0.0,0.0,0.0,0.0,0.0,0.0,0.0,0.0,0.0,0.0,0.0,0.0,0.0,0.0,0.0,0.0,0.0,0.0,0.0,0.0,0.0,0.0,0.0,0.0,0.0,0.0,0.0,0.0,0.0,0.0,0.0,0.0,0.0,0.0,0.0,0.0,0.0,0.0,0.0,-2.0038,-2.2223,-2.4062,0.0,-2.5672,-2.5663,-2.558,-2.403,-2.194,-1.9299,0.0,0.0,0.0,0.0,0.0,0.0,0.0,0.0,0.0,0.0,0.0,0.0,0.0,0.0,0.0,0.0,0.0,0.0,0.0,0.0,0.0,0.0,0.0,0.0,0.0,0.0,0.0,0.0,0.0,0.0,0.0,0.0,0.0,0.0,0.0,0.0,0.0,0.0,0.0,0.0,0.0,0.0,0.0,0.0,0.0,0.0,0.0,0.0,0.0,0.0,0.0,0.0,0.0,0.0,0.0,0.0,0.0,0.0,0.0,0.0,0.0,0.0,0.0,0.0,0.0,0.0,0.0,0.0,0.0,0.0,0.0,0.0,0.0,0.0,0.0,0.0,0.0,0.0,0.0,0.0,0.0,0.0,0.0,0.0,0.0,0.0,0.0,0.0,0.0,0.0,0.0,0.0,0.0,0.0,0.0,0.0,0.0,0.0,0.0,0.0,0.0,0.0,-2.0165,-2.2773,-2.474,-2.5601,-2.5693,-2.5648,-2.5511,-2.2373,-2.002,0.0,0.0,0.0,0.0,0.0,0.0,0.0,0.0,0.0,0.0,0.0,0.0,0.0,0.0,0.0,0.0,0.0,0.0,0.0,0.0,0.0,0.0,0.0,0.0,0.0,0.0,0.0,0.0,0.0,0.0,0.0,0.0,0.0,0.0,0.0,0.0,0.0,0.0,0.0,0.0,0.0,0.0,0.0,0.0,0.0,0.0,0.0,0.0,0.0,0.0,0.0,0.0,0.0,0.0,0.0,0.0,0.0,0.0,0.0,0.0,0.0,0.0,0.0,0.0,0.0,0.0,0.0,0.0,0.0,0.0,0.0,0.0,0.0,0.0,0.0,0.0,0.0,0.0,0.0,0.0,0.0,0.0,0.0,0.0,0.0,0.0,0.0,0.0,0.0,0.0,0.0,0.0,0.0,0.0,0.0,0.0,0.0,0.0,0.0,0.0,0.0,0.0,0.0,-2.0177,-2.278,-2.4725,-2.5601,-2.5701,-2.5652,-2.5522,-2.3489,-2.1039,-1.819,0.0,0.0,0.0,0.0,0.0,0.0,0.0,0.0,0.0,0.0,0.0,0.0,0.0,0.0,0.0,0.0,0.0,0.0,0.0,0.0,0.0,0.0,0.0,0.0,0.0,0.0,0.0,0.0,0.0,0.0,0.0,0.0,0.0,0.0,0.0,0.0,0.0,0.0,0.0,0.0,0.0,0.0,0.0,0.0,0.0,0.0,0.0,0.0,0.0,0.0,0.0,0.0,0.0,0.0,0.0,0.0,0.0,0.0,0.0,0.0,0.0,0.0,0.0,0.0,0.0,0.0,0.0,0.0,0.0,0.0,0.0,0.0,0.0,0.0,0.0,0.0,0.0,0.0,0.0,0.0,0.0,0.0,0.0,0.0,0.0,0.0,0.0,0.0,0.0,0.0,0.0,0.0,0.0,0.0,0.0,0.0,0.0,0.0,0.0,0.0,0.0,0.0,-2.0085,-2.2423,-2.4277,-2.5484,-2.5625,-2.5568,-2.5429,-2.3837,-2.1479,-1.8234,0.0,0.0,0.0,0.0,0.0,0.0,0.0,0.0,0.0,0.0,0.0,0.0,0.0,0.0,0.0,0.0,0.0,0.0,0.0,0.0,0.0,0.0,0.0,0.0,0.0,0.0,0.0,0.0,0.0,0.0,0.0,0.0,0.0,0.0,0.0,0.0,0.0,0.0,0.0,0.0,0.0,0.0,0.0,0.0,0.0,0.0,0.0,0.0,0.0,0.0,0.0,0.0,0.0,0.0,0.0,0.0,0.0,0.0,0.0,0.0,0.0,0.0,0.0,0.0,0.0,0.0,0.0,0.0,0.0,0.0,0.0,0.0,0.0,0.0,0.0,0.0,0.0,0.0,0.0,0.0,0.0,0.0,0.0,0.0,0.0,0.0,0.0,0.0,0.0,0.0,0.0,0.0,0.0,0.0,0.0,0.0,0.0,0.0,0.0,0.0,0.0,0.0,-1.9987,-2.1935,-2.365,-2.5324,-2.5499,-2.5453,-2.5311,-2.3635,-2.1517,-1.8961,0.0,0.0,0.0,0.0,0.0,0.0,0.0,0.0,0.0,0.0,0.0,0.0,0.0,0.0,0.0,0.0,0.0,0.0,0.0,0.0,0.0,0.0,0.0,0.0,0.0,0.0,0.0,0.0,0.0,0.0,0.0,0.0,0.0,0.0,0.0,0.0,0.0,0.0,0.0,0.0,0.0,0.0,0.0,0.0,0.0,0.0,0.0,0.0,0.0,0.0,0.0,0.0,0.0,0.0,0.0,0.0,0.0,0.0,0.0,0.0,-1.1307,0.0,0.0,0.0,0.0,0.0,0.0,0.0,0.0,0.0,0.0,0.0,0.0,0.0,0.0,0.0,0.0,0.0,0.0,0.0,0.0,0.0,0.0,0.0,0.0,0.0,0.0,0.0,0.0,0.0,0.0,0.0,0.0,0.0,0.0,0.0,0.0,0.0,0.0,0.0,0.0,0.0,-2.0123,-2.248,-2.4329,-2.5395,-2.5499,-2.5444,-2.5311,-2.364,-2.1731,-1.9692,-1.7041,0.0,0.0,0.0,0.0,0.0,0.0,0.0,0.0,0.0,0.0,0.0,0.0,0.0,0.0,0.0,0.0,0.0,0.0,0.0,0.0,0.0,0.0,0.0,0.0,0.0,0.0,0.0,0.0,0.0,0.0,0.0,0.0,0.0,0.0,0.0,0.0,0.0,0.0,0.0,0.0,0.0,0.0,0.0,0.0,0.0,0.0,0.0,0.0,0.0,0.0,0.0,0.0,0.0,0.0,0.0,0.0,0.0,0.0,0.0,0.0,-1.2281,0.0,0.0,0.0,0.0,0.0,0.0,0.0,0.0,0.0,0.0,0.0,0.0,0.0,0.0,0.0,0.0,0.0,0.0,0.0,0.0,0.0,0.0,0.0,0.0,0.0,0.0,0.0,0.0,0.0,0.0,0.0,0.0,0.0,0.0,0.0,0.0,0.0,0.0,0.0,0.0,-2.0075,-2.2581,-2.4422,-2.528,-2.5339,-2.5283,-2.5215,-2.3831,-2.2246,-2.0495,-1.8155,0.0,0.0,0.0,0.0,0.0,0.0,0.0,0.0,0.0,0.0,0.0,0.0,0.0,0.0,0.0,0.0,0.0,0.0,0.0,0.0,0.0,0.0,0.0,0.0,0.0,0.0,0.0,0.0,0.0,0.0,0.0,0.0,0.0,0.0,0.0,0.0,0.0,0.0,0.0,0.0,0.0,0.0,0.0,0.0,0.0,0.0,0.0,0.0,0.0,0.0,0.0,0.0,0.0,-1.0721,-1.1601,-1.2546,-1.2867,-1.3375,-1.4019,-1.3685,-1.3752,-1.4034,-1.3529,0.0,0.0,0.0,0.0,0.0,0.0,0.0,0.0,0.0,0.0,0.0,0.0,0.0,0.0,0.0,0.0,0.0,0.0,0.0,0.0,0.0,0.0,0.0,0.0,-2.1526,-2.1256,0.0,0.0,0.0,0.0,0.0,0.0,0.0,0.0,0.0,0.0,0.0,0.0,-2.019,-2.267,-2.4454,-2.5105,-2.5138,-2.5103,-2.5068,-2.4047,-2.275,-2.124,-1.9284,-1.7457,0.0,0.0,0.0,0.0,0.0,0.0,0.0,0.0,0.0,0.0,0.0,0.0,0.0,0.0,0.0,0.0,0.0,0.0,0.0,0.0,0.0,0.0,0.0,0.0,0.0,0.0,0.0,0.0,0.0,0.0,0.0,0.0,0.2919,0.2786,0.0,0.0,0.0,0.0,0.0,0.0,0.0,0.0,0.0,0.0,0.0,0.0,0.0,-0.5262,-0.6336,-0.8342,-0.973,-1.0516,-1.1762,-1.2616,-1.3128,-1.3592,-1.4259,-1.509,-1.6028,0.0,-1.519,-1.529,0.0,0.0,0.0,0.0,0.0,0.0,0.0,0.0,0.0,0.0,0.0,0.0,0.0,0.0,0.0,0.0,0.0,0.0,0.0,0.0,0.0,0.0,-2.3471,-2.3515,-2.3573,-2.3486,0.0,-2.0929,-1.8682,-1.7541,-1.6755,0.0,0.0,0.0,0.0,0.0,0.0,0.0,-2.11,-2.3516,-2.5056,-2.5107,-2.5115,-2.5056,-2.494,-2.3983,-2.2907,-2.1766,-1.9959,-1.8231,-1.6609,-1.5444,0.0,0.0,0.0,0.0,0.0,0.0,0.0,0.0,0.0,0.0,0.0,0.0,0.0,0.0,0.0,0.0,0.0,0.0,0.0,0.0,0.0,0.0,0.0,0.0,0.0,0.0,0.0,0.0,0.0,0.296,0.2961,0.2814,0.2928,0.2903,0.0,0.0,0.0,0.0,0.0,0.0,0.0,0.0,0.0,-0.2813,-0.4332,-0.5825,-0.7166,-0.8902,-1.0236,-1.1168,-1.2297,-1.3058,-1.345,-1.419,-1.4709,-1.5103,-1.6447,-1.6715,-1.6313,-1.6711,-1.6591,-1.6005,0.0,0.0,0.0,0.0,-1.655,-1.687,-1.7916,-1.8045,0.0,-1.7267,0.0,0.0,0.0,0.0,0.0,0.0,0.0,0.0,0.0,0.0,-2.4072,-2.4415,-2.4472,-2.446,-2.4446,-2.34,-2.1957,0.0,-1.9639,-1.8559,-1.5876,0.0,0.0,0.0,0.0,-2.0784,-2.1972,-2.3902,-2.5094,-2.5,-2.4947,-2.4884,-2.4738,-2.3777,-2.2776,-2.1867,-2.039,-1.904,-1.7875,-1.6869,-1.5897,0.0,0.0,0.0,0.0,0.0,0.0,0.0,0.0,0.0,0.0,0.0,0.0,0.0,0.0,0.0,0.0,0.0,0.0,0.0,0.0,0.0,0.0,0.0,0.0,0.0,0.0,0.0,0.0,0.2891,0.2998,0.2857,0.3014,0.3067,0.0,0.0,0.0,0.0,0.0,0.0,-0.0168,-0.0824,-0.1758,-0.3025,-0.4477,-0.594,-0.7457,-0.8882,-1.0084,-1.1116,-1.208,-1.2822,-1.3362,-1.4107,-1.4571,-1.4949,-1.6114,-1.6769,-1.7027,-1.7669,-1.7685,-1.7247,-1.6866,-1.7016,-1.7557,-1.8431,-1.8909,-1.9306,-2.072,-2.0873,-2.0336,-1.9477,-1.9217,-1.8882,-1.6983,0.0,0.0,0.0,0.0,-2.1426,-2.2866,-2.3675,-2.4224,-2.4699,-2.4823,-2.4823,-2.4752,-2.4834,-2.4357,0.0,-2.2134,-2.1254,-1.8254,0.0,0.0,0.0,0.0,-2.199,-2.2764,-2.4138,-2.5004,-2.4827,-2.4772,-2.4679,-2.4513,-2.3597,-2.2609,-2.1731,-2.0589,-1.9572,-1.8714,-1.8055,-1.7277,-1.6369,0.0,0.0,0.0,0.0,0.0,0.0,0.0,0.0,0.0,0.0,0.0,0.0,0.0,0.0,0.0,0.0,0.0,0.0,0.0,0.0,0.0,0.0,0.0,0.0,0.0,0.0,0.0,0.0,0.0,0.2905,0.2796,0.0,0.0,0.0,0.0,0.1245,0.1003,0.0486,-0.0347,-0.0647,-0.144,-0.287,-0.3914,-0.5066,-0.6298,-0.7688,-0.881,-0.971,-1.0702,-1.1701,-1.2667,-1.2957,-1.3768,-1.4903,-1.5309,-1.6058,-1.7066,-1.7916,-1.8298,-1.8373,-1.8712,-1.9005,-1.9326,-1.9603,-2.0072,-2.0493,-2.0603,-2.0923,-2.1378,-2.2204,-2.2169,-2.1649,-2.0681,-2.0627,0.0,0.0,-2.2897,-2.3702,-2.4488,-2.4678,-2.4651,-2.4629,-2.4631,-2.4613,-2.4613,-2.4676,-2.4496,0.0,-2.3752,-2.3276,-2.1388,0.0,-2.112,-2.1158,-2.1942,-2.2783,-2.346,-2.4336,-2.4827,-2.4647,-2.4615,-2.4497,-2.4248,-2.3473,-2.252,-2.1401,-2.055,-1.9648,-1.8637,-1.8566,-1.7823,-1.6237,-1.5402,0.0,0.0,0.0,0.0,0.0,0.0,0.0,0.0,0.0,0.0,0.0,0.0,0.0,0.0,0.0,0.0,0.0,0.0,0.0,0.0,0.0,0.0,0.0,0.0,0.0,0.0,0.0,0.0,0.3638,0.3655,0.0,0.3293,0.2592,0.198,0.1617,0.1182,0.0659,0.0162,-0.0431,-0.1252,-0.2397,-0.3284,-0.4494,-0.6209,-0.694,-0.7947,-0.9242,-1.0269,-1.1091,-1.1651,-1.2374,-1.3102,-1.3721,-1.4492,-1.5141,-1.5752,-1.698,-1.8054,-1.8998,-1.936,-1.9844,-2.0347,-2.075,-2.1133,-2.1496,-2.1982,-2.2306,-2.2558,-2.2612,-2.2227,-2.1799,-2.2085,-2.2269,-2.2574,-2.3465,-2.3998,-2.4332,-2.4604,-2.4663,-2.4615,-2.4498,-2.4464,-2.4446,-2.4358,-2.4429,-2.4454,-2.4309,-2.4441,-2.401,-2.2242,-2.2962,-2.334,-2.2151,-2.3183,-2.4117,-2.4219,-2.4504,-2.4663,-2.4481,-2.4393,-2.4063,-2.3363,-2.2427,-2.1514,-2.0586,-1.9164,-1.8198,-1.7841,-1.7238,-1.6729,-1.6269,-1.5028,-1.3828,0.0,0.0,0.0,0.0,0.0,0.0,0.0,0.0,0.0,0.0,0.0,0.0,0.0,0.0,0.0,0.0,0.0,0.0,0.0,0.0,0.0,0.0,0.0,0.0,0.0,0.0,0.3781,0.3972,0.4056,0.389,0.349,0.285,0.227,0.1675,0.1246,0.0876,0.0448,-0.0168,-0.095,-0.1786,-0.2676,-0.3895,-0.5437,-0.6244,-0.7261,-0.8495,-0.9533,-1.032,-1.0753,-1.1692,-1.2325,-1.2861,-1.3663,-1.4329,-1.4994,-1.6027,-1.7259,-1.8622,-1.9361,-1.9949,-2.053,-2.0991,-2.1444,-2.196,-2.2773,-2.3126,-2.3177,-2.2966,-2.2634,-2.2425,-2.3013,-2.3309,-2.3527,-2.4081,-2.4301,-2.4409,-2.4409,-2.4355,-2.4302,-2.4229,-2.4191,-2.4172,-2.4075,-2.4134,-2.4247,-2.4375,-2.4588,-2.4379,-2.3328,-2.4109,-2.4463,-2.3263,-2.4053,-2.4723,-2.4566,-2.4532,-2.4464,-2.4284,-2.4191,-2.3728,-2.277,-2.1835,-2.0945,-2.0116,-1.868,-1.7842,-1.7823,-1.694,-1.6413,-1.6269,-1.4825,-1.4025,-1.3944,0.0,0.0,0.0,0.0,0.0,0.0,0.0,0.0,0.0,0.0,0.0,0.0,0.0,0.0,0.0,0.0,0.0,0.0,0.0,0.0,0.0,0.0,0.0,0.3363,0.3705,0.3954,0.3859,0.3832,0.3583,0.2985,0.2688,0.2186,0.1402,0.1347,0.1066,0.0449,0.0056,-0.0448,-0.1062,-0.2235,-0.3236,-0.4006,-0.5437,-0.6578,-0.7492,-0.8495,-0.9287,-1.0012,-1.0753,-1.1551,-1.2365,-1.2812,-1.3721,-1.4903,-1.5219,-1.6003,-1.7146,-1.866,-1.9471,-1.9823,-2.0308,-2.1007,-2.1832,-2.2816,-2.3168,-2.3217,-2.3424,-2.3567,-2.3678,-2.3606,-2.378,-2.3983,-2.3891,-2.3928,-2.3983,-2.3983,-2.3901,-2.3795,-2.3795,-2.3795,-2.3795,-2.3795,-2.3795,-2.3837,-2.3958,-2.4211,-2.4459,-2.4742,-2.4578,-2.4442,-2.4564,-2.4599,0.0,-2.4393,-2.4394,-2.4284,-2.4016,-2.3996,-2.3587,-2.2587,-2.1774,-2.0924,-2.0037,-1.9234,-1.8697,-1.8566,-1.7789,-1.6994,-1.6202,-1.4905,-1.4603,-1.5396,0.0,0.0,0.0,0.0,0.0,0.0,0.0,0.0,0.0,0.0,0.0,0.0,0.0,0.0,0.0,0.0,0.0,0.0,0.0,0.0,0.0,0.0,0.3931,0.3842,0.4004,0.4161,0.4319,0.4331,0.4113,0.3583,0.3169,0.2742,0.2186,0.1852,0.1459,0.1066,0.0785,0.0168,-0.0782,-0.1676,-0.2734,-0.4006,-0.4725,-0.5764,-0.7069,-0.7652,-0.8389,-0.9287,-1.0064,-1.0838,-1.1501,-1.2325,-1.3198,-1.4025,-1.4755,-1.5599,-1.6612,-1.7867,-1.8703,-1.9229,-1.9788,-2.0715,-2.1744,-2.213,-2.259,-2.302,-2.3217,-2.3217,-2.3175,-2.3435,-2.3553,-2.3558,-2.3544,-2.3692,-2.3819,-2.3674,-2.3714,-2.3795,-2.3795,-2.3795,-2.3795,-2.3795,-2.3795,-2.3837,-2.3961,-2.3819,-2.384,-2.441,-2.4444,-2.4408,-2.4446,-2.4375,0.0,-2.4134,-2.4036,-2.3937,-2.3858,-2.381,-2.3422,-2.2566,-2.1675,-2.0827,-2.0055,-1.8699,-1.7897,-1.7879,-1.7064,-1.6431,-1.6063,-1.5265,-1.495,0.0,0.0,0.0,0.0,0.0,0.0,0.0,0.0,0.0,0.0,0.0,0.0,0.0,0.0,0.0,0.0,0.0,0.0,0.0,0.0,0.0,0.0,0.4299,0.4253,0.4217,0.4278,0.4368,0.4508,0.4349,0.4073,0.3852,0.3352,0.3021,0.2742,0.2354,0.1964,0.1625,0.0953,0.0336,-0.0224,-0.123,-0.2289,-0.3229,-0.4006,-0.4999,-0.6154,-0.6902,-0.7599,-0.8343,-0.928,-1.0115,-1.0846,-1.1733,-1.257,-1.3409,-1.4212,-1.4983,0.0,0.0,0.0,0.0,0.0,-2.0467,-2.1195,-2.1711,-2.2175,-2.2537,-2.2952,-2.2995,-2.2944,-2.3095,-2.3151,-2.3157,-2.3084,-2.3236,-2.3422,-2.3382,-2.3468,-2.3576,-2.3642,-2.3664,-2.3664,-2.3664,-2.3664,-2.3685,-2.3735,-2.358,0.0,-2.384,-2.3943,-2.3983,-2.4019,-2.4019,-2.3999,-2.3917,-2.3855,-2.3774,-2.375,-2.3725,-2.3354,-2.2503,-2.1613,0.0,0.0,0.0,-1.7897,-1.7453,-1.7011,0.0,0.0,0.0,0.0,0.0,0.0,0.0,0.0,-1.7848,-1.7939,0.0,0.0,0.0,0.0,0.0,0.0,0.0,0.0,0.0,0.0,0.0,0.0,0.0,0.0,0.0,0.0,0.4684,0.4581,0.4498,0.4519,0.4519,0.4519,0.4128,0.3852,0.3852,0.3463,0.3186,0.3186,0.2798,0.2408,0.2071,0.0,0.0,0.0,0.0,-0.1789,-0.2063,-0.3287,-0.4233,-0.4956,-0.615,-0.6853,-0.7176,-0.8343,-0.9384,-1.0254,-1.104,-1.199,-1.3016,-1.3684,-1.4398,-1.5164,-1.687,-1.7961,-1.8769,-1.9829,-2.0212,-2.04,-2.1425,0.0,0.0,-2.2607,-2.2799,-2.2747,-2.2632,-2.2694,-2.2773,-2.2588,-2.2694,-2.2902,-2.3052,-2.3126,-2.3217,-2.3407,-2.3471,-2.3471,-2.3471,-2.3471,-2.343,-2.3365,-2.3365,-2.3342,-2.3159,-2.3289,-2.3422,-2.35,-2.3649,-2.3753,-2.3774,-2.3792,-2.375,-2.3678,0.0,0.0,-2.2521,-2.1697,-2.0965,-2.0305,-1.9483,-1.8586,-1.7652,-1.7675,-1.7929,-1.8353,-1.8404,-1.9216,-2.0771,-2.0986,-2.1307,-2.1567,-1.9499,-1.936,0.0,0.0,0.0,0.0,0.0,0.0,0.0,0.0,0.0,0.0,0.0,0.0,0.0,0.0,0.0,0.4914,0.4885,0.4758,0.4512,0.4519,0.4519,0.4519,0.4405,0.4353,0.4353,0.3962,0.3685,0.3685,0.3241,0.2798,0.241,0.1903,0.14,0.0842,-0.0056,-0.0784,-0.1284,-0.2512,-0.34,-0.3892,0.0,0.0,-0.6154,-0.7475,-0.8528,-0.9363,-1.0584,-1.1751,-1.2716,-1.3409,-1.4525,-1.5888,-1.705,-1.8001,-1.8822,-1.9384,-1.9788,-2.0147,-2.0797,-2.1245,-2.1568,-2.2096,-2.2141,-2.2073,-2.233,-2.233,0.0,-2.2226,-2.2412,-2.2634,-2.252,-2.2712,-2.302,-2.3217,-2.3265,-2.3265,-2.3265,-2.3265,-2.3217,-2.3028,-2.2893,-2.2747,-2.2721,-2.3109,-2.3422,-2.35,-2.3491,-2.3531,-2.3703,-2.3616,-2.3544,-2.3539,-2.3539,-2.3468,-2.3285,-2.2535,-2.2,-2.1857,-2.0944,-2.0326,-2.0104,-1.9859,-1.9786,-1.987,-1.9893,-2.0131,-2.0633,-2.1427,-2.1967,-2.2298,-2.2006,-2.21,0.0,0.0,0.0,0.0,0.0,0.0,0.0,0.0,0.0,0.0,0.0,0.5001,0.5353,0.0,0.5253,0.5386,0.512,0.4842,0.4736,0.457,0.4519,0.4519,0.4294,0.4239,0.446,0.4073,0.3937,0.4229,0.3838,0.3519,0.3341,0.2546,0.1953,0.1551,0.0632,-0.023,-0.0917,-0.1891,-0.2634,-0.3256,-0.4376,-0.5117,-0.5492,-0.6568,-0.7581,-0.8528,-0.9673,-1.0754,-1.1665,-1.2812,-1.419,-1.5599,-1.6373,-1.7381,-1.8461,-1.9026,-1.9384,-1.963,-2.0089,-2.0382,-2.0634,-2.1101,-2.1243,-2.1321,-2.1668,-2.1744,-2.1794,-2.1911,-2.2068,-2.2192,-2.2192,-2.2347,-2.2581,-2.2824,-2.29,-2.2943,-2.3028,-2.3045,-2.2995,-2.279,-2.2764,-2.2642,-2.2354,-2.2703,-2.3035,-2.3188,-2.3348,-2.3499,-2.3607,-2.3539,-2.3494,-2.3494,-2.3494,-2.3494,-2.3494,-2.2767,-2.2103,-2.1586,-2.107,-2.0727,-2.0564,-2.0394,-2.0438,-2.0756,-2.0756,-2.1095,-2.1753,-2.2233,-2.267,-2.3106,-2.3297,-2.3472,0.0,0.0,0.0,0.0,0.0,0.0,0.0,0.0,0.5352,0.5556,0.5588,0.5558,0.5715,0.5658,0.5659,0.5769,0.5403,0.5066,0.5007,0.4736,0.457,0.457,0.4184,0.4073,0.4463,0.4184,0.4132,0.468,0.4342,0.4163,0.4227,0.3182,0.2491,0.2255,0.1247,0.0356,-0.0474,-0.1186,-0.1891,-0.2581,-0.3761,-0.4477,-0.4721,-0.5601,-0.6514,-0.7564,-0.8867,-0.9915,-1.0805,-1.2307,-1.3653,-1.4812,-1.541,-1.6416,-1.7693,-1.8539,-1.8898,-1.9011,-1.9419,-1.96,-1.9707,-2.0112,-2.0369,-2.0585,-2.0749,-2.0991,-2.1214,-2.1479,-2.1601,-2.1721,-2.1866,-2.1982,-2.2124,-2.2476,-2.2538,-2.2582,-2.2756,-2.2782,-2.2721,-2.248,-2.2588,-2.2517,-2.2056,-2.2271,-2.2561,-2.2773,-2.3102,-2.3336,-2.3383,-2.3383,-2.336,-2.3319,-2.3407,-2.3448,-2.3448,-2.2865,-2.21,-2.1264,-2.1183,-2.1022,-2.0744,-2.0712,-2.0926,-2.1407,-2.1451,-2.1952,-2.2893,-2.2944,-2.3199,-2.3656,-2.3878,-2.4078,0.8072,0.7447,0.6943,0.7252,0.6985,0.6895,0.0,0.0,0.6949,0.6742,0.6707,0.6584,0.6206,0.6126,0.6041,0.5845,0.574,0.5567,0.5281,0.5007,0.4842,0.4842,0.4625,0.4463,0.4519,0.4463,0.4524,0.468,0.4632,0.4516,0.4224,0.4036,0.3479,0.2323,0.214,0.153,0.0368,-0.0368,-0.0966,-0.1468,-0.2572,-0.3161,-0.335,-0.4666,-0.5475,-0.6103,-0.875,-1.0375,-1.1232,-1.2248,-1.3102,-1.3836,-1.4721,-1.5487,-1.6213,-1.7489,-1.8108,-1.8461,-1.8939,-1.9288,-1.9536,-1.9513,-1.9713,-1.9989,-1.9869,-2.0058,-2.0379,-2.0579,-2.0942,-2.1261,-2.1276,-2.157,-2.1911,-2.2231,-2.2341,-2.2341,-2.2358,-2.2358,-2.2275,-2.1957,-2.1899,-2.1899,-2.184,-2.1998,-2.2209,-2.2358,-2.2571,-2.2764,-2.2927,-2.297,-2.291,-2.2712,-2.3017,-2.3241,-2.3241,-2.3153,-2.2968,-2.2683,-2.2505,-2.2374,-2.2348,-2.2177,-2.2107,-2.2192,-2.2351,-2.2599,-2.2893,-2.3095,-2.3289,-2.3539,-2.3792,-2.3999,0.9197,0.8496,0.7848,0.0,0.7958,0.7842,0.8208,0.7911,0.7546,0.7664,0.7413,0.7144,0.6663,0.6608,0.65,0.0,0.5905,0.5736,0.5622,0.534,0.5062,0.4901,0.4787,0.468,0.4519,0.4519,0.4562,0.4806,0.4823,0.4864,0.49,0.458,0.3971,0.3153,0.2587,0.1831,0.0822,0.0063,-0.0502,-0.0992,-0.209,-0.2679,-0.2758,-0.3772,-0.4772,-0.5833,-0.787,-0.9193,-1.001,-1.1225,-1.199,-1.2511,-1.3453,-1.4168,-1.4903,-1.6769,-1.7598,-1.7868,-1.804,-1.8238,-1.8316,-1.8288,-1.8482,-1.875,-1.9185,-1.9492,-1.9793,-2.0342,-2.0646,-2.0811,-2.0991,-2.1023,-2.1182,-2.1764,-2.1777,-2.1702,-2.1953,-2.2027,-2.1969,-2.1827,-2.1797,-2.1768,-2.1694,-2.1811,-2.1911,-2.1899,-2.2226,-2.251,-2.259,-2.2616,-2.2599,-2.2591,-2.2738,-2.2892,-2.302,-2.3045,-2.2944,-2.2738,-2.2632,-2.2542,-2.2432,-2.2338,-2.231,-2.231,-2.2515,-2.2712,-2.2893,-2.3095,-2.3313,-2.3517,-2.3901,-2.4118,0.9811,0.9252,0.8723,0.8892,0.8764,0.8643,0.8643,0.828,0.803,0.8178,0.7949,0.7521,0.6987,0.6879,0.6771,0.6287,0.606,0.5963,0.5909,0.5665,0.5448,0.5183,0.5011,0.4846,0.4625,0.4519,0.4589,0.4897,0.4918,0.5047,0.5411,0.4993,0.4484,0.3968,0.3122,0.2277,0.1368,0.0717,0.0065,-0.0515,-0.1415,-0.1968,-0.2169,-0.2954,-0.4009,-0.5354,-0.6704,-0.7723,-0.8567,-0.9946,-1.0779,-1.1266,-1.2209,-1.2986,-1.3737,-1.5508,-1.6557,-1.7047,-1.7131,-1.7269,-1.7393,-1.731,-1.7475,-1.7828,-1.8496,-1.8826,-1.9177,-1.998,-2.0239,-2.0361,-2.0597,-2.0579,-2.0662,-2.1325,-2.134,-2.1293,-2.1678,-2.1738,-2.1738,-2.1678,-2.1661,-2.1617,-2.1542,-2.1603,-2.1617,-2.1542,-2.1853,-2.2136,-2.222,-2.2248,-2.2286,-2.2449,-2.2502,-2.2573,-2.273,-2.2773,-2.2738,-2.2542,-2.2515,-2.246,-2.231,-2.231,-2.231,-2.231,-2.2515,-2.2712,-2.2893,-2.3095,-2.336,-2.3634,-2.4003,-2.4228,0.9588,0.9428,0.9467,0.9475,0.9329,0.9197,0.9197,0.8942,0.8633,0.8275,0.8168,0.7901,0.7041,0.6879,0.6771,0.6287,0.6342,0.6398,0.6201,0.6117,0.5997,0.5817,0.5234,0.4897,0.0,0.4625,0.4589,0.4897,0.4918,0.5047,0.5411,0.5359,0.5153,0.4619,0.402,0.3284,0.2345,0.1812,0.0993,-0.0129,-0.0128,-0.056,-0.135,-0.2159,-0.3186,-0.4284,-0.5299,-0.6264,-0.718,-0.8515,-0.9474,-1.0167,-1.1216,-1.1994,-1.257,-1.3406,-1.463,-1.592,-1.6225,-1.671,-1.7157,-1.685,-1.7102,-1.7557,-1.7747,-1.8068,-1.8461,-1.9228,-1.9603,-1.9874,-2.0065,-2.0308,-2.0628,-2.1103,-2.1198,-2.1261,-2.1542,-2.162,-2.1542,-2.1356,-2.1325,-2.1309,-2.1325,-2.1309,-2.1309,-2.1325,-2.1309,-2.1464,-2.1781,-2.1811,-2.1882,-2.2096,-2.222,-2.2313,-2.233,-2.249,-2.2525,-2.231,-2.231,-2.231,-2.231,-2.231,-2.231,-2.231,-2.2515,-2.2712,-2.2893,-2.3095,-2.3435,-2.3896,-2.4099,-2.4335,1.0018,0.9986,0.988,0.9822,0.9496,0.9211,0.9211,0.9106,0.9008,0.8903,0.8995,0.8935,0.8402,0.7877,0.7402,0.7025,0.6672,0.6449,0.6384,0.6495,0.6433,0.6058,0.5636,0.0,0.0,0.0,0.0,0.4897,0.4918,0.5047,0.5411,0.5428,0.516,0.4625,0.4425,0.3689,0.2417,0.2216,0.1672,0.0662,0.0127,-0.0428,-0.0997,-0.2046,-0.2687,-0.3128,-0.4443,-0.5311,-0.5855,-0.7031,-0.8047,-0.896,-0.9614,-1.0383,-1.1149,-1.2003,-1.2725,-1.3423,-1.4367,-1.5196,-1.5852,-1.572,-1.6213,-1.6934,-1.7325,-1.7801,-1.8277,-1.8907,-1.9406,-1.9782,-2.0045,-1.994,-1.9925,-2.0579,-2.063,-2.0648,-2.1039,-2.1277,-2.1388,-2.1309,-2.1309,-2.1246,-2.1071,-2.1183,-2.1309,-2.1309,-2.1309,-2.134,-2.1464,-2.1464,-2.157,-2.1869,-2.194,-2.2073,-2.2287,-2.2377,-2.2366,-2.231,-2.231,-2.231,-2.231,-2.231,-2.231,-2.231,-2.2632,-2.2842,-2.2893,-2.3241,-2.3571,-2.3917,-2.4099,-2.4335,1.0556,1.0454,1.0246,1.0367,0.994,0.9472,0.9472,0.942,0.9361,0.9361,0.9379,0.9328,0.9065,0.8312,0.7658,0.754,0.7181,0.6846,0.6768,0.7017,0.7005,0.6438,0.6119,0.5835,0.0,0.0,0.0,0.4904,0.5088,0.5227,0.5415,0.5495,0.5359,0.4894,0.4694,0.4156,0.322,0.2818,0.2139,0.1258,0.0568,0.0,-0.0587,-0.1365,-0.1849,-0.2128,-0.3178,-0.3947,-0.444,-0.5521,-0.6494,-0.7481,-0.8317,-0.9051,-0.9732,-1.0559,-1.1065,-1.1507,-1.311,-1.4064,-1.4675,-1.4869,-1.5466,-1.6182,-1.6854,-1.7394,-1.7827,-1.8511,-1.8945,-1.9295,-1.9639,-1.9508,-1.9435,-2.01,-2.0224,-2.0311,-2.0663,-2.0974,-2.1151,-2.1023,-2.1023,-2.0942,-2.0778,-2.0909,-2.1055,-2.1135,-2.1151,-2.1183,-2.1294,-2.1356,-2.1464,-2.1617,-2.1738,-2.1857,-2.2036,-2.2152,-2.2163,-2.2106,-2.2237,-2.2265,-2.2192,-2.2265,-2.231,-2.231,-2.2605,-2.2842,-2.2893,-2.3289,-2.3642,-2.402,-2.4174,-2.4439,1.1109,1.0846,1.066,1.1032,1.0557,1.0051,0.9999,0.9784,0.9607,0.957,0.9351,0.9084,0.8999,0.0,0.7554,0.7846,0.7739,0.7533,0.7255,0.7626,0.7593,0.0,0.0,0.0,0.0,0.0,0.0,0.4989,0.0,0.5649,0.5418,0.5756,0.576,0.5428,0.496,0.4625,0.4625,0.3558,0.2583,0.161,0.1251,0.0668,-0.0059,-0.0171,-0.0561,-0.129,-0.1624,-0.2233,-0.3118,-0.3935,-0.482,-0.5823,-0.7202,-0.7947,-0.833,-0.9183,-0.971,-1.021,-1.2258,-1.3236,-1.3616,-1.4226,-1.4778,-1.5365,-1.6355,-1.6837,-1.716,-1.8028,-1.8305,-1.8422,-1.8936,-1.9064,-1.9199,-1.9609,-1.9965,-2.0224,-2.041,-2.0679,-2.0795,-2.0561,-2.0494,-2.0494,-2.0494,-2.0494,-2.0579,-2.0828,-2.0893,-2.1007,-2.1277,-2.145,-2.1528,-2.134,-2.1617,-2.1738,-2.162,-2.184,-2.194,-2.1811,-2.2106,-2.2192,-2.2027,-2.2192,-2.231,-2.231,-2.2515,-2.2712,-2.2893,-2.3247,-2.3653,-2.4192,-2.4336,-2.4626,1.1398,1.1634,1.1742,1.1191,1.0761,1.0352,1.0051,0.994,0.9753,0.9249,0.9425,0.9477,0.8714,0.8377,0.0,0.7947,0.7686,0.0,0.7426,0.7556,0.0,0.7169,0.0,0.6577,0.6426,0.624,0.0,0.0,0.5994,0.5969,0.5749,0.6086,0.609,0.5756,0.5624,0.5226,0.4625,0.3959,0.3374,0.2955,0.2309,0.1816,0.1468,0.0512,-0.0112,-0.0505,-0.0951,-0.1509,-0.2124,-0.2399,-0.3279,-0.4488,-0.5078,-0.6058,-0.7272,-0.8059,-0.86,-0.9086,-0.9938,-1.1182,-1.2522,-1.3178,-1.4122,-1.5084,-1.572,-1.6386,-1.7118,-1.7747,-1.8226,-1.8553,-1.8707,-1.8784,-1.8898,-1.8884,-1.9281,-1.9732,-1.9945,-2.0174,-2.0395,-2.0478,-2.0357,-2.0289,-2.046,-2.0308,-2.0273,-2.0545,-2.0763,-2.1007,-2.1277,-2.134,-2.1419,-2.1511,-2.1603,-2.1694,-2.1738,-2.1811,-2.1899,-2.194,-2.2044,-2.2118,-2.2237,-2.2265,-2.231,-2.231,-2.2515,-2.2712,-2.2893,-2.3126,-2.3535,-2.4042,-2.4192,-2.4474,1.2054,1.2252,1.2126,1.1528,1.1065,1.0629,0.9917,0.9748,0.9554,0.8873,0.9015,0.9064,0.8526,0.8423,0.0,0.0,0.0,0.0,0.7801,0.7762,0.7673,0.0,0.7158,0.0,0.6867,0.6836,0.6711,0.0,0.6523,0.6375,0.6148,0.6416,0.6486,0.6152,0.5954,0.5491,0.4625,0.4238,0.3826,0.3463,0.2934,0.2491,0.2013,0.1299,0.0728,0.028,0.0,-0.0503,-0.1119,-0.123,-0.2007,-0.3113,-0.3773,-0.4648,-0.5688,-0.644,-0.7208,-0.7865,-0.8324,-0.9555,-1.109,-1.1944,-1.2966,-1.4064,-1.4858,-1.5576,-1.6232,-1.6938,-1.7353,-1.7639,-1.7908,-1.8028,-1.8108,-1.8226,-1.8717,-1.9169,-1.9244,-1.9609,-1.9909,-1.9995,-1.9904,-1.9869,-2.01,-2.003,-2.008,-2.046,-2.0613,-2.0811,-2.1071,-2.1214,-2.134,-2.145,-2.145,-2.1511,-2.157,-2.1648,-2.1661,-2.1538,-2.1764,-2.1899,-2.1903,-2.2061,-2.2192,-2.231,-2.2515,-2.2712,-2.2893,-2.3206,-2.3562,-2.402,-2.4247,-2.4526,1.2783,1.2627,1.2274,1.1819,1.1427,1.0872,0.965,0.9358,0.9112,0.8325,0.0,0.8246,0.8151,0.822,0.8357,0.8543,0.0,0.8497,0.8193,0.8172,0.8006,0.7582,0.7521,0.7521,0.7521,0.7521,0.733,0.7007,0.7012,0.6815,0.6482,0.6811,0.6811,0.642,0.6067,0.546,0.4665,0.447,0.4085,0.36,0.3389,0.2945,0.2237,0.2181,0.1792,0.1121,0.1065,0.0,0.0,-0.0335,-0.0894,-0.1621,-0.2726,-0.3385,-0.3825,-0.4597,-0.5638,-0.6676,-0.7095,-0.8212,-0.9658,-1.0738,-1.1796,-1.2745,-1.3982,-1.4584,-1.5039,-1.5952,-1.6269,-1.6398,-1.6934,-1.7157,-1.7282,-1.7585,-1.812,-1.8588,-1.8577,-1.9035,-1.942,-1.9339,-1.9376,-1.945,-1.9617,-1.969,-1.9854,-2.0308,-2.041,-2.0512,-2.0763,-2.1071,-2.1277,-2.1183,-2.1246,-2.1294,-2.1246,-2.145,-2.1371,-2.0958,-2.1479,-2.1661,-2.1448,-2.1794,-2.2073,-2.231,-2.2515,-2.2712,-2.2893,-2.3265,-2.3653,-2.4002,-2.4373,-2.4647,1.2861,1.2832,1.2627,1.1877,1.1628,1.1219,0.9744,0.9183,0.0,0.0,0.7301,0.7316,0.6786,0.7151,0.7769,0.84,0.8214,0.808,0.8399,0.8088,0.777,0.0,0.7521,0.7521,0.7521,0.7521,0.0,0.0,0.0,0.7199,0.6815,0.7199,0.7068,0.6416,0.5952,0.5488,0.5041,0.484,0.4696,0.449,0.406,0.3751,0.3463,0.3074,0.2738,0.2347,0.1958,0.0,0.123,0.0784,0.0336,-0.0168,-0.0614,-0.1446,-0.2386,-0.2775,-0.4042,-0.5584,-0.5638,-0.7042,-0.8988,-1.0305,-1.1408,-1.2404,-1.3321,-1.4029,-1.4732,-1.5644,-1.6095,-1.6312,-1.6441,-1.685,-1.7157,-1.6921,-1.7449,-1.8028,-1.8305,-1.8784,-1.9139,-1.8936,-1.9176,-1.9413,-1.945,-1.9581,-1.9726,-1.9818,-2.003,-2.017,-2.0239,-2.0877,-2.1119,-2.0695,-2.1055,-2.1214,-2.1007,-2.1214,-2.1277,-2.1166,-2.1433,-2.1617,-2.1568,-2.1836,-2.2073,-2.231,-2.2515,-2.2712,-2.2893,-2.3151,-2.3513,-2.4002,-2.4174,-2.4458,1.2881,1.2881,1.2783,1.2175,1.1877,1.1323,0.9789,0.0,0.0,0.0,0.6665,0.6617,0.6131,0.706,0.0,0.7949,0.7988,0.8177,0.8595,0.8221,0.0,0.7872,0.7847,0.7782,0.0,0.0,0.0,0.0,0.0,0.7652,0.7269,0.7391,0.7168,0.64,0.6207,0.5911,0.545,0.5171,0.4997,0.4919,0.4606,0.4251,0.3796,0.3683,0.3405,0.2905,0.2683,0.0,0.2124,0.168,0.1232,0.084,0.0224,-0.0335,-0.0892,-0.1226,-0.2277,-0.3655,-0.4316,-0.5783,-0.7676,-0.9117,-1.0254,-1.1216,-1.2199,-1.2822,-1.3396,-1.4365,-1.5028,-1.5445,-1.5522,-1.602,-1.6436,-1.6262,-1.6752,-1.7338,-1.7787,-1.8068,-1.8305,-1.85,-1.8707,-1.8898,-1.9176,-1.9325,-1.9435,-1.9566,-1.9711,-1.9782,-1.9782,-2.0361,-2.0663,-2.0527,-2.0728,-2.0811,-2.0712,-2.0811,-2.0811,-2.0646,-2.0877,-2.1071,-2.1182,-2.1462,-2.1764,-2.2147,-2.2354,-2.2598,-2.2893,-2.3175,-2.3535,-2.4002,-2.4211,-2.4474,1.2881,1.2881,1.2783,1.2382,1.2076,1.1465,0.9926,0.8748,0.0,0.6489,0.6225,0.6115,0.5864,0.6977,0.7889,0.0,0.7944,0.8353,0.8754,0.8528,0.8314,0.0,0.8334,0.0,0.7717,0.0,0.0,0.0,0.0,0.0,0.7459,0.7459,0.7098,0.6319,0.6406,0.6267,0.5767,0.5467,0.5323,0.5319,0.5179,0.4838,0.4288,0.4398,0.4067,0.3463,0.3405,0.0,0.0,0.2404,0.2125,0.1846,0.1008,0.0672,0.056,0.0112,-0.078,-0.2,-0.2938,-0.4522,-0.6318,-0.7581,-0.8908,-1.0218,-1.1174,-1.1774,-1.2267,-1.3218,-1.3905,-1.443,-1.4628,-1.5142,-1.5659,-1.5792,-1.625,-1.6808,-1.7227,-1.7393,-1.7557,-1.7988,-1.8054,-1.8212,-1.8784,-1.886,-1.8921,-1.9258,-1.9295,-1.9295,-1.9295,-1.9596,-1.9882,-2.0154,-2.0392,-2.046,-2.0342,-2.046,-2.0392,-2.0065,-2.0308,-2.0561,-2.0679,-2.1039,-2.1462,-2.1895,-2.2248,-2.2563,-2.2893,-2.3277,-2.3646,-2.402,-2.4284,-2.4526,1.2881,1.2881,1.2783,1.2382,1.2274,1.1851,1.031,0.0,0.7942,0.6491,0.6026,0.5848,0.5816,0.6179,0.688,0.8127,0.0,0.823,0.8709,0.9032,0.9026,0.8584,0.0,0.0,0.0,0.0,0.0,0.0,0.0,0.0,0.7259,0.725,0.6959,0.6315,0.6208,0.6,0.5636,0.5836,0.59,0.59,0.5882,0.5869,0.576,0.5386,0.5007,0.4732,0.4288,0.0,0.0,0.3186,0.2963,0.2907,0.2464,0.2128,0.1792,0.1289,0.0056,-0.1392,-0.1503,-0.3157,-0.5299,-0.5783,-0.7858,-1.032,-1.0956,-1.1642,-1.2316,-1.2909,-1.3362,-1.3752,-1.4025,-1.4536,-1.5142,-1.5659,-1.625,-1.671,-1.6752,-1.7018,-1.724,-1.7282,-1.7229,-1.7409,-1.7988,-1.8001,-1.8066,-1.8616,-1.8693,-1.8693,-1.8693,-1.852,-1.8607,-1.9192,-1.9995,-2.0342,-1.9894,-2.0258,-2.0308,-1.9874,-2.0239,-2.0429,-2.0348,-2.1007,-2.1462,-2.1612,-2.2429,-2.285,-2.2893,-2.3412,-2.3792,-2.402,-2.4284,-2.4526,1.2754,1.2881,1.2881,1.2676,1.2559,1.2177,1.1095,0.9703,0.8351,0.7261,0.639,0.5808,0.5808,0.6243,0.6784,0.734,0.7423,0.7609,0.816,0.849,0.8645,0.864,0.8962,0.0,0.0,0.0,0.0,0.0,0.0,0.0,0.7891,0.7459,0.7247,0.7244,0.6687,0.6469,0.6729,0.6415,0.6475,0.6897,0.6745,0.6637,0.6568,0.615,0.5828,0.5546,0.4893,0.0,0.0,0.3796,0.3519,0.3463,0.3019,0.2631,0.2296,0.2074,0.1175,-0.0056,-0.0834,-0.2273,-0.3935,-0.4754,-0.6645,-0.8751,-0.9599,-1.0269,-1.0922,-1.1642,-1.2335,-1.2957,-1.3304,-1.3873,-1.4536,-1.5322,-1.5579,-1.5712,-1.6076,-1.6262,-1.6423,-1.6625,-1.6782,-1.6993,-1.7421,-1.7747,-1.7935,-1.7948,-1.7843,-1.7824,-1.7907,-1.7661,-1.7712,-1.8249,-1.8907,-1.9361,-1.9536,-1.9726,-1.9762,-1.9581,-1.9726,-1.9889,-1.9984,-2.0548,-2.1055,-2.1462,-2.222,-2.2686,-2.2893,-2.336,-2.3771,-2.4118,-2.4229,-2.4508,1.2511,1.2783,1.2881,1.2881,1.2852,1.2511,1.1548,1.0276,0.8976,0.7849,0.6862,0.6157,0.5936,0.6358,0.6746,0.6792,0.6955,0.7341,0.7991,0.8361,0.8735,0.0,0.0,0.0,0.0,0.0,0.0,0.0,0.0,0.0,0.8699,0.7936,0.7629,0.79,0.7271,0.7136,0.7622,0.7241,0.7289,0.7812,0.761,0.7503,0.7486,0.7015,0.6588,0.6095,0.5555,0.0,0.0,0.4673,0.4453,0.4398,0.3953,0.3514,0.313,0.291,0.2183,0.123,0.0223,-0.1056,-0.2449,-0.3718,-0.5249,-0.6827,-0.8013,-0.9026,-0.9925,-1.0863,-1.1701,-1.2384,-1.2764,-1.3294,-1.3873,-1.4617,-1.4858,-1.4994,-1.5424,-1.5614,-1.578,-1.602,-1.6151,-1.6367,-1.6765,-1.7089,-1.7229,-1.7173,-1.7022,-1.6917,-1.6939,-1.6652,-1.6594,-1.7022,-1.7358,-1.7993,-1.8991,-1.9139,-1.9213,-1.9302,-1.9376,-1.9508,-1.9767,-2.0189,-2.0697,-2.1276,-2.1919,-2.2466,-2.2893,-2.3271,-2.3667,-2.406,-2.4192,-2.454,1.2109,1.2549,1.2881,1.2881,1.3045,1.2829,1.1494,1.0815,0.994,0.8077,0.7423,0.6951,0.6242,0.6374,0.6636,0.6786,0.7086,0.7599,0.8379,0.9011,0.0,0.0,0.0,0.0,0.0,0.0,0.0,0.0,0.0,0.0,0.9699,0.8758,0.8086,0.7883,0.7877,0.7871,0.7871,0.8355,0.8573,0.8573,0.8573,0.8573,0.8573,0.8084,0.7343,0.0,0.0,0.0,0.0,0.5977,0.5982,0.5923,0.5479,0.5046,0.4615,0.3846,0.3123,0.24,0.1789,0.0559,-0.0949,-0.245,-0.3605,-0.4754,-0.6406,-0.8178,-0.9821,-1.0812,-1.1578,-1.2166,-1.253,-1.2812,-1.3112,-1.3515,-1.4258,-1.4903,-1.4903,-1.5232,-1.5513,-1.5513,-1.5289,-1.5334,-1.5901,-1.5736,-1.5724,-1.6225,-1.6312,-1.6126,-1.5699,-1.5348,-1.5171,-1.5323,-1.5397,-1.6222,-1.8168,-1.85,-1.8745,-1.9064,-1.9302,-1.9487,-1.969,-2.0089,-2.0516,-2.0991,-2.1609,-2.2231,-2.2893,-2.3247,-2.3504,-2.3721,-2.4174,-2.4607,1.1207,1.187,1.2034,1.1292,1.1701,1.1902,1.0669,0.9838,0.9119,0.8387,0.7511,0.6906,0.7025,0.7154,0.7283,0.7526,0.7861,0.0,0.0,0.0,0.0,0.0,0.0,0.0,0.0,0.0,0.0,0.0,0.0,0.0,0.9946,0.9494,0.9178,0.9139,0.8498,0.8448,0.9033,0.8928,0.9093,0.9577,0.9354,0.9361,0.9524,0.8928,0.8501,0.0,0.0,0.0,0.0,0.6578,0.6421,0.6367,0.5923,0.5483,0.5046,0.456,0.3729,0.2896,0.2676,0.1503,0.0,-0.0502,-0.1722,-0.3161,-0.3926,-0.6,-0.829,-0.9592,-1.0474,-1.1183,-1.1642,-1.2098,-1.2452,-1.2822,-1.3246,-1.3768,-1.4305,-1.4444,-1.4628,-1.5153,-1.5096,-1.5096,-1.5591,-1.561,-1.566,-1.5896,-1.5245,-1.4858,-1.5208,-1.4526,-1.4173,-1.4594,-1.4619,-1.5363,-1.7045,-1.7215,-1.7664,-1.8679,-1.8458,-1.847,-1.8791,-1.9702,-2.0229,-2.0318,-2.1289,-2.2136,-2.2893,-2.3151,-2.3468,-2.3901,-2.4247,-2.4578,1.0123,1.0984,1.1287,1.0606,1.0856,1.0977,0.9881,0.9161,0.8586,0.805,0.734,0.6917,0.728,0.73,0.7345,0.7599,0.793,0.0,0.0,0.0,0.0,0.0,0.0,0.0,0.0,0.0,0.0,0.0,0.0,0.0,0.9936,0.9975,0.9982,0.9828,0.9242,0.919,0.9725,0.951,0.9569,0.9999,0.9836,0.9932,1.0198,0.9621,0.9347,0.0,0.0,0.0,0.0,0.7652,0.7444,0.7337,0.7063,0.6519,0.5873,0.5496,0.4721,0.3834,0.3506,0.2502,0.1279,0.0613,-0.089,-0.2445,-0.2885,-0.4903,-0.7357,-0.8528,-0.9481,-1.032,-1.0635,-1.1209,-1.1719,-1.1774,-1.2414,-1.3112,-1.3437,-1.3779,-1.4165,-1.4593,-1.4473,-1.4451,-1.4869,-1.4685,-1.4648,-1.5005,-1.4286,-1.3862,-1.422,-1.3682,-1.3326,-1.3483,-1.3646,-1.4311,-1.5685,-1.6114,-1.6861,-1.8058,-1.8059,-1.8121,-1.844,-1.9331,-1.9989,-2.0289,-2.1003,-2.1832,-2.279,-2.3151,-2.3553,-2.4002,-2.4174,-2.4425,0.0,0.9848,1.0511,1.045,1.0324,0.9985,0.9035,0.8653,0.0,0.7204,0.6978,0.7031,0.721,0.709,0.7081,0.7405,0.7657,0.0,0.0,0.9584,0.0,0.0,0.0,0.0,0.0,0.0,0.0,0.0,0.0,0.0,0.9732,1.0293,1.0454,1.0102,1.0102,1.0102,1.0102,1.0102,1.0102,1.0102,1.0102,1.03,1.0651,1.03,0.9976,0.0,0.0,0.0,0.0,0.9026,0.8876,0.8679,0.8626,0.7937,0.6987,0.6603,0.5937,0.505,0.4278,0.3671,0.2894,0.1113,-0.0667,-0.2279,-0.2775,-0.4674,-0.6775,-0.7511,-0.8541,-0.9399,-0.9451,-1.0167,-1.0813,-1.0383,-1.1554,-1.2628,-1.2308,-1.3052,-1.3773,-1.3878,-1.3538,-1.3379,-1.3807,-1.3203,-1.2861,-1.3554,-1.3277,-1.2925,-1.2799,-1.2746,-1.2579,-1.2171,-1.2562,-1.3213,-1.4153,-1.5184,-1.6244,-1.7342,-1.7918,-1.8266,-1.8435,-1.9059,-1.9839,-2.0682,-2.0828,-2.1475,-2.2591,-2.3206,-2.3642,-2.4001,-2.4001,-2.4192,0.7068,0.0,0.8662,0.7835,0.8066,0.8273,0.0,0.7103,0.7,0.7002,0.679,0.7063,0.8517,0.808,0.8074,0.974,0.0,0.0,0.0,0.0,0.0,0.0,0.0,0.0,0.0,0.0,0.0,0.0,0.0,1.0988,1.0761,1.0956,1.1006,1.0863,1.1116,1.1167,1.082,1.1167,1.1318,1.1318,1.1318,1.1368,1.1418,1.1318,1.1108,0.0,0.0,0.0,0.9725,0.9562,0.9406,0.9302,0.8784,0.8415,0.8096,0.7461,0.6761,0.605,0.5882,0.5164,0.4058,0.2506,0.1172,-0.0056,-0.1004,-0.2936,-0.4969,-0.5684,-0.6494,-0.7298,-0.7835,-0.841,-0.8955,-0.9126,-0.9506,-1.0037,-1.0607,-1.1116,-1.1657,-1.2341,-1.2632,-1.2715,-1.2569,-1.2302,-1.2093,-1.2098,-1.1398,-1.1103,-1.1829,-1.157,-1.1491,-1.2041,-1.2229,-1.2654,-1.36,-1.4262,-1.5379,-1.7223,-1.7312,-1.7463,-1.779,-1.9051,-1.9737,-1.9813,-2.121,-2.2158,-2.2591,-2.3042,-2.3463,-2.3858,-2.3858,-2.4058,0.6235,0.7452,0.8624,0.803,0.8058,0.8106,0.768,0.6844,0.6291,0.6684,0.6619,0.6935,0.8382,0.8393,0.8602,0.0,1.0498,0.0,0.0,0.0,0.0,0.0,0.0,0.0,0.0,0.0,0.0,0.0,0.0,1.1619,1.1377,1.1569,1.1619,1.1377,1.1927,1.1977,1.1377,1.1569,1.1728,1.1728,1.1728,1.1778,1.1977,1.1778,1.1678,0.0,0.0,0.0,1.0454,1.0146,0.9932,0.9725,0.9361,0.9047,0.8725,0.8203,0.7616,0.7074,0.6815,0.5932,0.4776,0.3453,0.24,0.1398,0.0279,-0.1114,-0.2668,-0.4103,-0.5198,-0.6013,-0.6563,-0.7067,-0.752,-0.7717,-0.8225,-0.8739,-0.9201,-0.9874,-1.0516,-1.0983,-1.1199,-1.1248,-1.1141,-1.0733,-1.0503,-1.0723,-1.0117,-0.9911,-1.0607,-1.042,-1.0512,-1.1111,-1.1372,-1.1905,-1.2892,-1.369,-1.4759,-1.627,-1.6917,-1.7295,-1.7497,-1.8672,-1.9501,-1.9803,-2.1322,-2.2248,-2.2512,-2.2917,-2.3353,-2.3795,-2.3795,-2.3978,0.6288,0.7787,0.934,0.8941,0.8713,0.8529,0.8377,0.712,0.6116,0.6618,0.0,0.7078,0.8235,0.8656,0.0,0.0,0.0,0.0,0.0,0.0,0.0,0.0,0.0,0.0,0.0,0.0,0.0,0.0,0.0,1.2224,1.1819,1.2175,1.2224,1.1778,1.2529,1.2578,1.1918,1.1918,1.1877,1.1877,1.1877,1.2076,1.2421,1.2067,1.2067,1.2314,0.0,0.0,1.1074,1.0718,1.0411,1.0102,1.0102,0.9725,0.9242,0.9033,0.856,0.8031,0.7402,0.6362,0.5206,0.4226,0.3345,0.2456,0.1339,0.0557,-0.0389,-0.2485,-0.3908,-0.4837,-0.5287,-0.5697,-0.6116,-0.6278,-0.6993,-0.7702,-0.786,-0.8679,-0.9427,-0.9397,-0.9385,-0.9392,-0.9439,-0.8873,-0.8609,-0.9089,-0.8906,-0.8867,-0.9209,-0.9336,-0.9582,-1.0031,-1.0446,-1.1096,-1.2064,-1.306,-1.3971,-1.4739,-1.6453,-1.7531,-1.7665,-1.8521,-1.9391,-2.0243,-2.1323,-2.201,-2.2368,-2.2721,-2.3194,-2.3735,-2.3735,-2.3917,0.7875,0.9054,0.9428,0.7226,0.7553,0.8235,0.7429,0.7023,0.6995,0.0,0.0,0.0,0.0,1.0069,1.0126,0.0,0.0,0.0,0.0,0.0,0.0,0.0,0.0,0.0,0.0,0.0,0.0,0.0,0.0,1.2627,1.2224,1.2578,1.2627,1.2224,1.2676,1.291,1.2977,1.2813,1.2725,1.2725,1.2725,1.2861,1.3074,1.3025,1.2822,1.257,0.0,1.1891,1.1124,1.1023,1.0769,1.0419,1.0506,1.0446,1.0336,1.0415,0.9843,0.8869,0.7777,0.6691,0.5697,0.5534,0.4553,0.3292,0.2456,0.1696,0.0803,-0.0375,-0.1498,-0.2509,-0.325,-0.3542,-0.3843,-0.4689,-0.491,-0.5108,-0.5733,-0.634,-0.6794,-0.6776,-0.7392,-0.7708,-0.6988,-0.705,-0.7006,-0.6477,-0.6768,-0.7245,-0.7691,-0.8164,-0.8916,-1.0001,-1.0147,-1.0447,-1.0988,-1.1641,-1.2186,-1.2491,-1.5511,-1.7733,-1.8875,-1.9462,-1.9984,-2.053,-2.1261,-2.1811,-2.2153,-2.233,-2.2797,-2.3544,-2.3544,-2.3774,0.7445,0.8733,0.9548,0.791,0.8861,1.0112,0.9557,0.8818,0.8502,0.0,0.0,0.0,0.0,0.0,1.1858,1.3086,0.0,0.0,0.0,0.0,0.0,0.0,0.0,0.0,0.0,0.0,0.0,0.0,0.0,0.0,1.2627,1.291,1.3084,1.3122,1.3238,1.343,1.3742,1.343,1.3296,1.3296,1.3296,1.3334,1.342,1.342,1.3266,1.2909,0.0,1.2472,1.1891,1.146,1.1301,1.1292,1.1006,1.1015,1.1158,1.104,1.0618,0.9946,0.8967,0.8218,0.7517,0.6607,0.5638,0.4608,0.3724,0.2863,0.2125,0.1527,0.0054,-0.1541,-0.2174,-0.2342,-0.2454,-0.315,-0.3407,-0.3643,-0.4199,-0.4756,-0.5161,-0.5305,-0.5768,-0.605,-0.5655,-0.5848,-0.593,-0.5572,-0.5905,-0.6295,-0.6518,-0.6959,-0.7675,-0.8683,-0.9076,-0.964,-1.0601,-1.1428,-1.2305,-1.3184,-1.5191,-1.6851,-1.8068,-1.9126,-1.9844,-2.0227,-2.0991,-2.1631,-2.2096,-2.2341,-2.2822,-2.3482,-2.361,-2.3876,0.7315,0.8516,0.9711,0.9193,1.0347,1.1556,1.1395,1.0334,0.9753,0.0,0.0,0.0,0.0,1.3128,0.0,1.3559,0.0,0.0,0.0,0.0,0.0,0.0,0.0,0.0,0.0,0.0,0.0,0.0,0.0,0.0,1.321,1.3409,1.3684,1.3873,1.3884,1.4035,1.4408,1.4129,1.3847,1.3621,1.3621,1.361,1.3668,1.3668,1.3563,1.3362,1.3266,1.3016,1.2667,1.2039,1.1882,1.2061,1.1601,1.1669,1.1927,1.1501,1.1233,1.0914,1.0143,0.9681,0.9214,0.7829,0.6876,0.6122,0.5031,0.4139,0.3408,0.3082,0.1459,-0.0319,-0.1062,-0.1187,-0.1264,-0.1871,-0.2241,-0.2554,-0.2952,-0.3388,-0.3748,-0.3901,-0.4107,-0.4214,-0.4233,-0.4434,-0.4604,-0.4604,-0.513,-0.5529,-0.5529,-0.6013,-0.6702,-0.7433,-0.7998,-0.8844,-1.0108,-1.1061,-1.2134,-1.3474,-1.4688,-1.5996,-1.7405,-1.8578,-1.9409,-1.9864,-2.0698,-2.1401,-2.1953,-2.2313,-2.2822,-2.3437,-2.3649,-2.3896,0.8847,0.9452,1.0064,1.0375,1.0747,1.1058,1.095,1.0312,0.0,1.1443,0.0,0.0,0.0,1.4769,1.5184,1.4652,0.0,0.0,0.0,0.0,0.0,0.0,0.0,0.0,0.0,0.0,0.0,0.0,0.0,0.0,1.4129,1.4444,1.4479,1.4176,1.4479,1.4755,1.5017,1.5017,1.4501,1.3621,1.3621,1.3716,1.3962,1.3962,1.3973,1.3926,1.3915,1.3563,1.2967,1.2919,1.2667,1.2365,1.2463,1.2647,1.2725,1.203,1.1765,1.1616,1.0965,1.045,1.0026,0.9273,0.8528,0.7723,0.6602,0.5509,0.4543,0.3909,0.3066,0.2066,0.0742,0.0413,0.01,-0.1159,-0.1466,-0.1564,-0.1849,-0.2038,-0.211,-0.2029,-0.2125,-0.2154,-0.2029,-0.2279,-0.2499,-0.2499,-0.3734,-0.4705,-0.4705,-0.5669,-0.6532,-0.693,-0.7426,-0.8136,-0.9056,-0.9655,-1.0361,-1.1276,-1.3495,-1.5815,-1.8115,-1.8251,-1.8776,-1.9773,-2.0548,-2.1087,-2.1448,-2.1924,-2.2512,-2.323,-2.3414,-2.3774,0.875,0.959,1.0374,1.0548,1.1491,0.0,0.0,1.1736,1.2078,1.3249,1.3859,0.0,0.0,0.0,1.5367,0.0,0.0,0.0,0.0,0.0,0.0,0.0,0.0,0.0,0.0,0.0,0.0,0.0,0.0,0.0,1.4525,1.4766,1.4994,1.5062,1.5164,1.5367,1.5647,1.5468,1.5142,1.4766,1.4536,1.4444,1.4547,1.4326,1.415,1.402,1.4197,1.3999,1.3621,1.3362,1.3314,1.3362,1.3266,1.3276,1.3286,1.2822,1.2657,1.257,1.194,1.1484,1.1048,1.032,0.9592,0.8842,0.7788,0.6982,0.6332,0.5695,0.516,0.4224,0.2126,0.1417,0.1039,0.0312,-0.0099,-0.0428,-0.076,-0.0698,-0.0729,-0.1032,-0.1087,-0.1184,-0.1479,-0.1787,-0.2055,-0.2279,-0.2984,-0.3558,-0.3822,-0.4434,-0.5168,-0.6016,-0.7522,-0.8691,-0.9142,-0.9864,-1.0634,-1.1425,-1.345,-1.5235,-1.6753,-1.8075,-1.9046,-1.9609,-2.0429,-2.1087,-2.1582,-2.2214,-2.2822,-2.3392,-2.3671,-2.3937,0.8315,0.9377,1.0423,1.0393,0.0,0.0,1.2467,1.2677,1.3155,1.4139,1.4834,1.5367,1.5901,0.0,0.0,0.0,0.0,0.0,0.0,0.0,0.0,0.0,0.0,0.0,0.0,0.0,0.0,0.0,0.0,0.0,0.0,1.5355,1.5579,1.5732,1.5844,1.6001,1.6163,1.5988,1.5944,1.5957,1.5457,1.5175,1.5096,1.4731,1.4466,1.4291,1.4373,1.4291,1.4104,1.3847,1.381,1.3973,1.3905,1.3847,1.38,1.3684,1.3589,1.3457,1.2939,1.253,1.212,1.1233,1.0669,1.0084,0.9058,0.8435,0.7847,0.7278,0.6681,0.5882,0.3934,0.2741,0.194,0.1508,0.0919,0.0388,0.0145,0.0233,0.0224,-0.0179,-0.0179,-0.0269,-0.0672,-0.0895,-0.1071,-0.1339,-0.1958,-0.2532,-0.2796,-0.346,-0.4252,-0.5229,-0.6787,-0.8008,-0.8617,-0.9651,-1.0604,-1.1467,-1.3501,-1.5044,-1.5872,-1.7628,-1.8846,-1.9369,-2.0296,-2.1007,-2.1472,-2.2415,-2.3087,-2.3522,-2.3795,-2.4016,0.7726,0.8838,1.024,0.9986,0.0,0.0,1.2765,1.29,1.313,1.3864,1.4789,1.5603,1.5944,0.0,0.0,0.0,0.0,0.0,0.0,0.0,0.0,0.0,0.0,0.0,0.0,0.0,0.0,0.0,0.0,0.0,0.0,1.6337,1.6349,1.6032,1.6607,1.6791,1.6522,1.6778,1.6918,1.6876,1.6293,1.5824,1.5513,1.5085,1.4903,1.4903,1.4558,1.4419,1.4419,1.4419,1.4244,1.402,1.4373,1.4408,1.4269,1.4571,1.4479,1.4176,1.392,1.3542,1.3064,1.212,1.1814,1.1616,1.0517,0.9673,0.8978,0.833,0.7587,0.6891,0.6195,0.4601,0.2952,0.2173,0.1432,0.0806,0.0806,0.0761,0.0719,0.0719,0.0719,0.0719,0.0719,0.0717,0.0716,0.0716,-0.0577,-0.1589,-0.1589,-0.292,-0.4077,-0.4626,-0.4938,-0.5706,-0.7169,-0.8615,-0.9916,-1.0983,-1.3564,-1.5325,-1.5877,-1.6916,-1.7993,-1.9087,-2.0234,-2.0847,-2.1021,-2.2344,-2.317,-2.3522,-2.3714,-2.3955,0.8733,0.9427,1.0408,1.0848,0.0,0.0,0.0,1.379,0.0,0.0,1.5289,1.5603,1.5944,0.0,0.0,0.0,0.0,0.0,0.0,0.0,0.0,0.0,0.0,0.0,0.0,0.0,0.0,0.0,0.0,0.0,0.0,1.6607,1.6748,1.6663,1.6947,1.7199,1.7338,1.7434,1.7475,1.7475,1.7297,1.6921,1.6337,1.5635,1.54,1.5478,1.4994,1.4915,1.5153,1.5153,1.496,1.4686,1.5051,1.5187,1.5096,1.5006,1.4915,1.4731,1.4061,1.3721,1.3447,1.2491,1.2157,1.2008,1.115,1.0728,1.0466,0.9747,0.9214,0.8738,0.8218,0.6709,0.498,0.3828,0.3066,0.2563,0.2507,0.2362,0.2144,0.17,0.1611,0.1433,0.0809,0.0942,0.103,0.076,0.049,0.0044,-0.0843,-0.231,-0.3382,-0.3767,-0.4596,-0.5326,-0.5896,-0.6767,-0.7382,-0.771,-1.0577,-1.3353,-1.5795,-1.6889,-1.8172,-1.9768,-1.9986,-2.0806,-2.2204,-2.2888,-2.3432,-2.3876,-2.4016,-2.4113,1.0021,1.0775,1.1619,1.2483,1.385,1.4989,1.5026,0.0,0.0,0.0,1.5603,1.5768,1.5944,1.625,0.0,0.0,0.0,0.0,0.0,0.0,0.0,0.0,0.0,0.0,0.0,0.0,0.0,0.0,0.0,0.0,0.0,1.6905,1.7073,1.7199,1.7393,1.7625,1.7854,1.7948,1.8028,1.8028,1.7787,1.7585,1.7284,1.6411,1.602,1.6139,1.5522,1.54,1.5591,1.5513,1.5379,1.5187,1.5546,1.5691,1.5691,1.568,1.5546,1.5367,1.4732,1.4422,1.4165,1.3314,1.3035,1.289,1.2039,1.1635,1.1389,1.0788,1.0167,0.9678,0.9349,0.8271,0.6929,0.5362,0.4164,0.3415,0.336,0.3301,0.3114,0.2758,0.2799,0.2708,0.218,0.2315,0.2359,0.2004,0.1603,0.098,0.0,-0.1067,-0.1689,-0.1638,-0.2739,-0.3517,-0.3519,-0.5079,-0.6025,-0.6032,-0.8725,-1.1741,-1.4919,-1.6377,-1.7868,-1.9387,-1.9845,-2.0891,-2.2599,-2.3171,-2.3646,-2.3996,-2.4074,-2.4151,1.1266,1.2367,1.3361,1.4437,1.5119,1.5637,1.6243,1.5932,1.5591,1.5558,0.0,1.5988,1.6032,0.0,0.0,0.0,0.0,0.0,0.0,0.0,0.0,0.0,0.0,0.0,0.0,0.0,0.0,0.0,0.0,0.0,0.0,1.724,1.7393,1.772,1.7948,1.8094,1.8224,1.8447,1.8539,1.8539,1.8068,1.7988,1.8266,1.7214,1.6723,1.6667,1.6139,1.5876,1.5832,1.568,1.5603,1.5591,1.5901,1.6032,1.6076,1.6392,1.6293,1.5988,1.5688,1.5389,1.5051,1.4455,1.4269,1.4071,1.3102,1.2539,1.2128,1.1585,1.0895,1.0254,0.9957,0.9511,0.8704,0.6999,0.5233,0.39,0.389,0.3894,0.3898,0.3854,0.4109,0.4275,0.4227,0.4287,0.4299,0.4081,0.2752,0.1601,0.1066,0.0622,0.0577,0.1107,-0.0089,-0.0795,-0.0564,-0.3308,-0.5042,-0.5055,-0.7369,-1.0086,-1.3173,-1.5346,-1.7171,-1.8614,-1.9909,-2.12,-2.2496,-2.3305,-2.3813,-2.404,-2.4018,-2.4114,1.084,1.1885,1.3245,1.4587,1.5527,1.6206,1.6655,1.6522,1.6207,1.5944,1.5944,1.6032,0.0,0.0,0.0,0.0,0.0,0.0,0.0,0.0,0.0,0.0,0.0,0.0,0.0,0.0,0.0,0.0,0.0,0.0,1.7199,1.7598,1.7868,1.7908,1.8383,1.8731,1.8968,1.902,1.9058,0.0,1.8945,1.8679,1.8266,1.7462,1.6934,1.671,1.685,1.657,1.6071,1.6423,1.6423,1.6151,1.6337,1.6392,1.6392,1.6466,1.6436,1.6337,1.5776,1.5543,1.5377,1.4801,1.4571,1.4571,1.4329,1.4207,1.3957,1.3301,1.2964,1.2666,1.1975,1.0919,0.9905,0.9498,0.7895,0.6341,0.6074,0.5763,0.5422,0.5163,0.4986,0.4765,0.4275,0.4461,0.4822,0.5168,0.4188,0.343,0.3457,0.2325,0.1586,0.1718,0.1059,0.0661,0.0703,-0.0131,-0.0739,-0.0868,-0.3458,-0.6361,-0.9448,-1.2951,-1.6608,-2.0356,-2.073,-2.1643,-2.32,-2.3584,-2.3969,-2.4313,-2.421,-2.436,1.1715,1.279,0.0,1.5926,0.0,1.6808,1.6989,1.6778,1.6392,1.6076,1.6132,1.625,0.0,0.0,0.0,0.0,0.0,0.0,0.0,0.0,0.0,0.0,0.0,0.0,0.0,0.0,0.0,0.0,0.0,1.7693,1.772,1.7988,1.8266,1.8563,1.8846,1.9147,1.9442,1.9442,1.9442,1.9442,1.9281,1.8945,1.85,1.7841,1.7516,1.7449,1.7393,1.7131,1.6769,1.6976,1.6905,1.6727,1.6472,1.6578,1.6782,1.6514,1.659,1.6808,1.6484,1.6355,1.6256,1.5676,1.5466,1.5377,1.4994,1.4722,1.4474,1.4207,1.3693,1.3243,1.3032,1.1978,1.0866,1.0496,0.8921,0.7465,0.7327,0.7151,0.6939,0.6758,0.6807,0.6723,0.6403,0.6168,0.6052,0.6143,0.5305,0.4776,0.5232,0.4448,0.3846,0.385,0.3104,0.2628,0.2778,0.1628,0.0968,0.1191,-0.0086,-0.2251,-0.5262,-0.6929,-1.1873,-2.054,-2.0849,-2.1846,-2.3746,-2.3914,-2.4155,-2.4447,-2.4504,-2.4607,1.2434,1.367,1.4816,1.7149,1.7396,0.0,1.7186,1.6863,1.6392,1.6076,1.6262,0.0,0.0,0.0,0.0,0.0,0.0,0.0,0.0,0.0,0.0,0.0,0.0,0.0,0.0,0.0,0.0,0.0,0.0,1.8135,1.8383,1.8461,1.8717,1.9169,1.9281,1.9479,1.9762,1.9726,1.9726,1.9762,1.9406,1.9147,1.8936,1.8372,1.8214,1.8344,1.7801,1.7611,1.7625,1.7246,1.7137,1.7113,1.6454,1.652,1.6968,1.6586,1.6717,1.7151,1.7242,1.724,1.7157,1.671,1.6527,1.6398,1.5744,1.5259,1.4888,1.4936,1.4249,1.3525,1.3839,1.3017,1.1888,1.1195,0.9787,0.8512,0.8255,0.8276,0.8334,0.8399,0.8602,0.8756,0.8756,0.8162,0.7563,0.7259,0.6642,0.642,0.6954,0.6726,0.6469,0.65,0.5514,0.4919,0.5072,0.3413,0.2531,0.3023,0.308,0.1738,-0.1258,-0.0877,-0.6029,-1.7653,-1.9097,-2.1145,-2.4033,-2.4095,-2.4224,-2.4428,-2.4607,-2.46,1.0754,0.0,1.4881,0.0,1.6784,1.6557,0.0,0.0,1.6392,0.0,0.0,0.0,0.0,0.0,0.0,0.0,0.0,0.0,0.0,0.0,0.0,0.0,0.0,0.0,0.0,0.0,0.0,0.0,1.8707,1.8707,1.8745,1.9109,1.9295,1.9207,1.9639,1.9919,1.9955,1.9797,1.9797,1.9955,1.9603,1.9479,1.9581,1.9139,1.886,1.8707,1.8095,1.7975,1.8106,1.7089,1.6796,1.6937,1.6155,1.6029,1.6308,1.6818,1.691,1.6837,1.7424,1.7434,1.724,1.7421,1.7503,1.7503,1.738,1.7136,1.6793,1.6232,1.599,1.5768,1.5332,1.4416,1.3545,1.3253,1.22,1.0937,0.9707,0.931,0.9253,0.9672,0.9306,0.8941,0.8941,0.9036,0.9067,0.8973,0.9252,0.9412,0.9226,0.8936,0.8671,0.844,0.7799,0.7341,0.7114,0.7312,0.7229,0.6826,0.652,0.4901,0.1579,0.0467,-0.2517,-0.7642,-1.2817,-1.8175,-2.3752,-2.3756,-2.3906,-2.4144,-2.3883,-2.3932,1.1228,1.2951,1.4732,0.0,1.6819,1.6613,1.7068,1.6947,1.6607,1.6076,0.0,0.0,0.0,0.0,0.0,0.0,0.0,0.0,0.0,0.0,0.0,0.0,0.0,0.0,0.0,0.0,0.0,0.0,1.8697,1.8898,1.9199,1.9384,1.9603,1.9818,2.0061,2.0181,2.0181,2.008,2.008,2.0181,2.001,1.9975,2.001,1.9675,1.9332,1.8997,1.8592,1.8254,1.7965,1.7473,1.713,1.6828,1.6132,1.6139,1.6543,1.688,1.713,1.7408,1.8096,1.8226,1.8108,1.8147,1.8147,1.8108,1.7974,1.7733,1.7489,1.734,1.7037,1.6744,1.6689,1.5605,1.4479,1.4271,1.3222,1.2128,1.1637,1.1106,1.0695,1.0712,1.0636,1.0494,1.034,1.0464,1.052,1.0446,1.0613,1.0733,1.0682,1.0651,1.0525,1.021,0.9858,0.9456,0.8937,0.8993,0.8846,0.8357,0.8751,0.8256,0.6543,0.6698,0.4396,-0.0823,-0.6611,-1.1235,-1.4629,-1.7594,-1.732,-1.4156,-2.007,-2.0842,0.0,0.0,1.354,1.5913,1.6123,1.6,0.0,0.0,1.657,0.0,0.0,0.0,0.0,0.0,0.0,0.0,0.0,0.0,0.0,0.0,0.0,0.0,0.0,0.0,0.0,0.0,0.0,0.0,1.876,1.9134,1.966,1.9747,1.9925,2.0304,2.0339,2.0392,2.046,2.046,2.0392,2.0304,2.0339,2.0339,2.0304,2.0065,1.9803,1.9479,1.9109,1.8685,1.8274,1.787,1.7418,1.6983,1.6256,1.6242,1.6702,1.714,1.7529,1.7927,1.8759,1.8974,1.886,1.8846,1.8769,1.864,1.8574,1.8302,1.8094,1.8224,1.792,1.7626,1.7706,1.6621,1.5406,1.5169,1.4031,1.2973,1.2904,1.2567,1.2175,1.1875,1.1959,1.2031,1.1766,1.1805,1.1866,1.1782,1.1892,1.2023,1.2022,1.2283,1.2341,1.1919,1.1779,1.1449,1.075,1.061,1.0372,0.9857,1.0772,1.1094,1.0572,1.1696,1.0069,0.5206,0.1071,-0.298,-0.6941,-1.0703,-1.0808,-0.7745,-1.567,-1.7278,0.0,1.0031,0.0,1.3539,1.3871,1.4095,0.0,0.0,0.0,0.0,0.0,0.0,0.0,0.0,0.0,0.0,0.0,0.0,0.0,0.0,0.0,0.0,0.0,0.0,0.0,0.0,0.0,0.0,1.9186,1.9492,2.0224,2.0392,2.0392,2.0304,2.0426,2.0613,2.0861,2.0861,2.0679,2.0304,2.0426,2.0426,2.0304,2.0426,2.0392,2.02,1.9558,1.9419,1.9566,1.8056,1.7569,1.7646,1.6512,1.6139,1.6412,1.788,1.8145,1.799,1.9301,1.9442,1.9176,1.9573,1.9464,1.9244,1.9609,1.9427,1.9058,1.8727,1.8788,1.876,1.821,1.7432,1.6683,1.6297,1.5101,1.3776,1.2834,1.3144,1.3517,1.3268,1.3051,1.2936,1.2889,1.2926,1.2948,1.3078,1.3578,1.3828,1.3457,1.4014,1.4192,1.3465,1.3546,1.337,1.2616,1.293,1.2911,1.2153,1.2916,1.2941,1.2018,1.2472,1.2278,1.1182,1.1338,0.589,-0.5412,-0.4919,-0.703,-1.1489,-1.1564,-1.3934,0.0,0.0,0.0,1.2595,1.3553,1.422,1.5239,1.5842,0.0,0.0,0.0,0.0,0.0,0.0,0.0,0.0,0.0,0.0,0.0,0.0,0.0,0.0,0.0,0.0,0.0,0.0,0.0,0.0,0.0,1.9559,1.9954,1.9905,2.0108,2.0613,2.0384,2.0559,2.126,2.1308,2.1166,2.0876,2.0941,2.0827,2.0628,2.0662,2.0662,2.0628,2.0563,2.0182,1.9632,1.9057,1.8718,1.8476,1.7587,1.7266,1.7409,1.84,1.8542,1.847,2.003,2.033,2.0104,2.0465,2.0364,2.0158,2.0465,2.0124,1.9645,1.9879,1.9864,1.9758,1.9707,1.8714,1.7416,1.6097,1.5313,1.4769,1.4428,1.4428,1.4379,1.39,1.39,1.39,1.3723,1.4119,1.4391,1.4169,1.4729,1.5078,1.4809,1.5139,1.5316,1.5183,1.5006,1.4811,1.4581,1.4351,1.4006,1.3483,1.3689,1.3433,1.2579,1.3067,1.3056,1.2335,1.2921,1.076,0.5793,0.2461,0.2001,0.4008,-0.2683,-0.4489,0.9725,0.0,0.0,0.0,0.0,1.3182,1.4854,0.0,0.0,0.0,0.0,0.0,0.0,0.0,0.0,0.0,0.0,0.0,0.0,0.0,0.0,0.0,0.0,0.0,0.0,0.0,0.0,0.0,0.0,0.0,1.9631,1.951,1.9702,2.0288,2.0081,2.0225,2.0773,2.0862,2.0773,2.0566,2.0566,2.0413,2.0194,2.0432,2.0575,2.0575,2.1007,2.0799,2.0131,1.9985,1.9736,1.9455,1.8784,1.8508,1.8524,1.9264,1.9364,1.9363,2.0685,2.1039,2.0878,2.1103,2.0975,2.078,2.1071,2.0764,2.0398,2.0797,2.0764,2.0618,2.0462,1.9186,1.759,1.605,1.5666,1.5609,1.5433,1.5344,1.5106,1.4631,1.4755,1.4892,1.4727,1.5138,1.5404,1.5301,1.5721,1.6077,1.6165,1.6506,1.6714,1.6675,1.6493,1.6205,1.5796,1.53,1.4797,1.4356,1.4214,1.3742,1.2928,1.3484,1.3518,1.2867,1.3238,1.3119,1.2439,0.8765,0.8094,1.016,0.3144,0.126,0.0,0.0,0.0,0.0,0.0,0.0,1.533,0.0,0.0,0.0,0.0,0.0,0.0,0.0,0.0,0.0,0.0,0.0,0.0,0.0,0.0,0.0,0.0,0.0,0.0,0.0,0.0,0.0,1.8297,1.8582,1.9257,1.9279,1.9279,1.929,1.9568,1.9568,1.9323,1.9568,1.9584,1.9323,1.9323,1.9228,1.9065,1.9785,2.012,2.0199,2.0924,2.123,2.1182,2.0727,2.055,2.0496,2.0023,1.9714,1.9652,2.0511,2.0688,2.0615,2.1292,2.1462,2.137,2.1477,2.1323,2.1086,2.1415,2.1415,2.1354,2.1491,2.1521,2.1313,2.0337,1.8837,1.7308,1.6366,1.627,1.6274,1.5724,1.5739,1.5754,1.5477,1.5638,1.5853,1.5922,1.5879,1.5963,1.6363,1.657,1.6886,1.7455,1.817,1.8401,1.7861,1.7969,1.7556,1.6215,1.5823,1.5389,1.4856,1.4578,1.4044,1.3162,1.3684,1.3698,1.3098,1.2978,1.3082,1.3314,1.3484,1.0595,0.5026,0.5417,0.2722,0.8967,0.0,0.0,0.0,0.0,0.0,0.0,0.0,0.0,0.0,0.0,0.0,0.0,0.0,0.0,0.0,0.0,0.0,0.0,0.0,0.0,0.0,0.0,0.0,0.0,0.0,0.0,0.0,1.831,1.8608,1.879,1.9126,1.9132,1.879,1.9382,1.9727,1.9805,1.9883,1.9822,1.9595,1.9691,1.9876,2.0176,2.0471,2.0908,2.1495,2.1852,2.1994,2.1977,2.1666,2.1685,2.186,2.1107,2.0829,2.0899,2.1039,2.0944,2.086,2.1877,2.2056,2.1924,2.2254,2.2181,2.2005,2.2281,2.2113,2.1836,2.2034,2.2022,2.1623,2.03,1.9345,1.8414,1.7133,1.6617,1.6409,1.6405,1.6496,1.6496,1.612,1.6313,1.6512,1.6538,1.6757,1.6869,1.685,1.7642,1.8278,1.8299,1.8642,1.8757,1.8434,1.7996,1.7412,1.6602,1.6278,1.5864,1.5269,1.527,1.4772,1.3729,1.3772,1.344,1.2604,1.2282,1.1893,1.1392,1.1913,1.1434,1.0011,0.9986,0.9144,0.9996,0.0,0.0,0.0,0.0,0.0,0.0,1.152,0.0,0.0,0.0,0.0,0.0,0.0,0.0,0.0,0.0,0.0,0.0,0.0,0.0,0.0,0.0,0.0,0.0,1.7811,1.7811,1.7811,1.8101,1.8306,1.8353,1.8618,1.8651,1.8447,1.8805,1.9065,1.9144,1.9096,1.9048,1.8992,1.9376,1.9681,1.9963,2.0646,2.1248,2.1731,2.2112,2.2358,2.2446,2.2298,2.2371,2.2544,2.2019,2.1875,2.1927,2.1795,2.1688,2.1684,2.2289,2.2426,2.2409,2.2615,2.2598,2.25,2.2642,2.2508,2.2326,2.2483,2.2261,2.1763,2.0858,1.9866,1.8899,1.8054,1.7329,1.6815,1.6825,1.7002,1.701,1.6607,1.6763,1.6993,1.7002,1.7535,1.792,1.7823,1.8552,1.929,1.9681,1.9754,1.9688,1.9454,1.9081,1.8563,1.7845,1.7216,1.6815,1.6686,1.6401,1.5921,1.5267,1.4725,1.4162,1.3618,1.1354,0.9601,0.8407,1.0292,1.0914,1.0375,1.0151,0.9843,1.1625,1.1376,0.0,0.0,1.1048,0.0,1.1814,1.1268,1.0892,0.0,0.0,0.0,0.0,0.0,0.0,0.0,0.0,0.0,0.0,0.0,0.0,0.0,0.0,0.0,1.7772,1.7833,1.7833,1.7833,1.7833,1.7895,1.8022,1.8005,1.8087,1.819,1.8087,1.8022,1.8005,1.7895,1.7917,1.8022,1.8767,1.9161,1.9229,2.0645,2.137,2.1533,2.2139,2.2527,2.2738,2.2738,2.2738,2.2712,2.2712,2.2712,2.2712,2.2569,2.2605,2.2685,2.2579,2.2605,2.2712,2.2738,2.2738,2.2738,2.2738,2.2738,2.2764,2.2893,2.2464,2.193,2.1697,2.0467,1.9233,1.9063,1.8332,1.7584,1.7362,1.7543,1.764,1.7245,1.7297,1.742,1.7575,1.8399,1.9063,1.9087,1.9441,2.0154,2.1216,2.1197,2.1,2.0783,2.0732,2.0367,1.9563,1.8577,1.8227,1.8722,1.7983,1.7406,1.7177,1.6085,1.5197,1.4618,0.9855,0.6627,0.5077,0.8689,0.9599,0.8072,0.7818,0.7343,1.3238,1.3346,1.3276,1.1679,0.0,0.0,1.0774,1.1006,1.1679,0.0,0.0,0.0,0.0,0.0,0.0,0.0,0.0,0.0,0.0,0.0,0.0,0.0,0.0,0.0,1.7726,1.7944,1.8108,1.8108,1.8108,1.813,1.8168,1.8168,1.8168,1.8211,1.8151,1.8108,1.8005,1.8087,1.8087,1.8022,1.8957,1.972,2.0304,2.1376,2.2174,2.2768,2.2883,2.2977,2.302,2.302,2.297,2.2868,2.2738,2.2764,2.2825,2.2712,2.2685,2.2712,2.279,2.2842,2.2893,2.2995,2.302,2.302,2.302,2.302,2.3045,2.3119,2.3106,2.2899,2.2113,2.1516,2.0894,2.0057,1.9547,1.9258,1.9249,1.9301,1.9403,1.9579,1.9048,1.874,1.9303,1.9747,2.0079,2.0158,2.0848,2.1429,2.1673,2.1989,2.2093,2.1826,2.1578,2.1188,2.0723,2.0553,2.045,2.0365,2.0228,1.9388,1.765,1.6878,1.4504,1.0234,0.6233,0.4006,0.3607,0.744,0.8862,0.7953,0.79,0.7688,1.4917,1.4861,1.4803,1.3718,0.0,0.0,0.0,1.1206,1.1197,1.2069,0.0,0.0,0.0,0.0,0.0,0.0,0.0,0.0,0.0,0.0,0.0,0.0,0.0,0.0,1.7284,1.7847,1.8211,1.8211,1.8211,1.8215,1.826,1.8243,1.8281,1.836,1.8281,1.8222,1.8142,1.826,1.8284,1.8266,1.9175,2.0008,2.0824,2.1633,2.24,2.3119,2.3217,2.3193,2.3102,2.3277,2.3277,2.3126,2.2952,2.2944,2.2995,2.2764,2.2738,2.279,2.2712,2.279,2.2919,2.2995,2.3045,2.3095,2.3095,2.3168,2.3289,2.3371,2.3399,2.3287,2.2822,2.2248,2.1625,2.1007,2.0432,2.0027,1.9925,1.9916,2.0043,2.0543,2.0306,2.0069,2.0077,2.0624,2.1053,2.1053,2.1604,2.2136,2.2547,2.2725,2.2722,2.2567,2.2601,2.2537,2.2271,2.194,2.1833,2.2029,2.1767,2.1149,2.015,1.8448,1.4178,0.6998,0.6279,0.4549,0.1608,0.4535,0.5676,0.5153,0.5153,0.4877,0.0,0.0,0.0,0.0,0.0,1.4192,0.0,0.0,0.0,1.2338,0.0,0.0,0.0,0.0,0.0,0.0,0.0,0.0,0.0,0.0,0.0,0.0,0.0,0.0,0.0,1.7472,1.7965,1.8263,1.8,1.7989,1.833,1.833,1.8408,1.8544,1.843,1.8391,1.8373,1.8467,1.8508,1.855,1.9542,2.0309,2.0865,2.1856,2.2553,2.2988,2.3294,2.3342,2.3223,2.3495,2.3535,2.3412,2.3271,2.3151,2.3095,2.2919,2.2893,2.2944,2.2738,2.2816,2.2995,2.2995,2.307,2.3168,2.3168,2.3336,2.3526,2.3646,2.3598,2.3499,2.3453,2.2852,2.2189,2.1881,2.134,2.0818,2.0543,2.0501,2.0688,2.1228,2.1443,2.1352,2.0814,2.1433,2.1955,2.1906,2.2177,2.266,2.3397,2.3401,2.3332,2.334,2.3713,2.3937,2.3817,2.3205,2.3086,2.365,2.3201,2.2823,2.2624,1.9199,1.3721,0.6099,0.7073,0.5223,0.0265,0.1782,0.2511,0.25,0.2358,0.1938,0.0,0.0,0.0,0.0,1.6607,0.0,0.0,0.0,1.329,1.1511,0.0,0.0,0.0,0.0,0.0,0.0,0.0,0.0,0.0,0.0,0.0,0.0,0.0,0.0,0.0,1.6674,1.71,1.8534,1.733,1.7082,1.8415,1.8485,1.8544,1.8678,1.8659,1.8643,1.8663,1.8789,1.8789,1.8699,2.0329,2.0798,2.0277,2.2449,2.3074,2.2532,2.3257,2.3562,2.3562,2.3566,2.3588,2.3584,2.3562,2.3399,2.3193,2.3289,2.3265,2.3193,2.3265,2.3313,2.3336,2.3336,2.336,2.336,2.336,2.3594,2.3855,2.3876,2.3855,2.3813,2.3628,2.3414,2.3141,2.2678,2.26,2.2539,2.2268,2.2295,2.2418,2.2478,2.2626,2.2617,2.2306,2.2444,2.2678,2.2905,2.2979,2.32,2.3769,2.4029,2.4269,2.4548,2.4803,2.4934,2.4914,2.4832,2.4877,2.5063,2.5113,2.4501,2.3086,1.7024,1.2578,1.0185,0.603,0.2988,0.1147,0.111,0.1709,0.2822,0.2168,0.1657,0.0,0.0,0.0,0.0,0.0,0.0,1.4328,0.0,1.3109,0.0,0.0,0.0,0.0,0.0,0.0,0.0,0.0,0.0,0.0,0.0,0.0,0.0,0.0,0.0,0.0,0.0,0.0,0.0,1.6742,1.6764,1.7877,1.8373,1.8641,1.8697,1.8771,1.8825,1.8825,1.8947,1.8981,1.8929,1.9668,2.0101,2.0264,2.165,2.2311,2.2452,2.3371,2.3714,2.3628,2.3837,2.3876,2.3795,2.3896,2.375,2.3422,2.3422,2.3324,2.3217,2.3259,2.3277,2.3313,2.3463,2.3513,2.3553,2.3642,2.3792,2.3896,2.3896,2.3896,2.3834,2.3553,2.3435,2.3289,2.2919,2.2868,2.2868,2.2659,2.2747,2.2876,2.2816,2.296,2.3025,2.2875,2.2985,2.3095,2.2995,2.3324,2.3584,2.3702,2.4234,2.4635,2.4772,2.4957,2.5024,2.4982,2.4878,2.4802,2.4771,2.4827,2.4064,2.2286,1.8852,1.526,1.1564,0.8228,0.5414,0.3145,0.1874,0.1623,0.2356,0.1147,0.0753,1.8485,0.0,0.0,0.0,0.0,0.0,0.0,0.0,0.0,0.0,0.0,0.0,0.0,0.0,0.0,0.0,0.0,0.0,0.0,0.0,0.0,0.0,0.0,0.0,0.0,0.0,0.0,0.0,0.0,1.6047,1.7488,1.8111,1.8539,1.8807,1.8913,1.8982,1.9016,1.9115,1.9146,1.9164,1.9383,1.9693,2.0077,2.1025,2.1659,2.2004,2.2955,2.3391,2.3472,2.3764,2.3912,2.3996,2.4151,2.4016,2.3753,2.3588,2.345,2.3348,2.3387,2.3382,2.3417,2.3562,2.3649,2.3714,2.3876,2.3937,2.3976,2.3976,2.3896,2.3753,2.3508,2.343,2.3336,2.3045,2.302,2.2995,2.2868,2.2977,2.306,2.2944,2.3122,2.3248,2.3077,2.3217,2.3265,2.2977,2.3417,2.3732,2.3678,2.4308,2.4767,2.4779,2.4903,2.4925,2.4725,2.462,2.4471,2.4325,2.4327,2.3675,2.2251,2.0804,1.7977,1.3575,1.1046,0.8424,0.569,0.367,0.2717,0.2672,0.0894,0.0168,0.0,0.0,0.0,1.6762,0.0,0.0,0.0,0.0,1.5216,0.0,0.0,0.0,0.0,0.0,0.0,0.0,0.0,0.0,0.0,0.0,0.0,0.0,0.0,0.0,0.0,0.0,0.0,0.0,0.0,0.0,1.7532,1.773,1.8138,1.9046,1.9099,1.9164,1.9289,1.9289,1.9289,1.9289,2.0081,2.0092,1.9487,2.1131,2.1512,2.0889,2.1643,2.2404,2.3123,2.3052,2.3492,2.419,2.4208,2.419,2.4151,2.3976,2.3795,2.3692,2.3837,2.3876,2.3855,2.3671,2.3735,2.3896,2.3896,2.4054,2.419,2.419,2.3917,2.3628,2.3606,2.3508,2.336,2.3217,2.3289,2.3336,2.3217,2.3289,2.3289,2.2952,2.3265,2.345,2.2977,2.3052,2.3193,2.3102,2.3289,2.3535,2.385,2.4377,2.4703,2.4697,2.4888,2.4786,2.4267,2.4335,2.4325,2.4116,2.4116,2.3989,2.3729,2.1704,1.9547,1.7392,1.3747,1.0876,0.8729,0.6656,0.5273,0.456,0.2006,0.0335,0.0,0.0,1.9361,1.7378,0.0,0.0,0.0,0.0,0.0,0.0,0.0,0.0,0.0,0.0,0.0,0.0,0.0,0.0,0.0,0.0,0.0,0.0,0.0,0.0,0.0,0.0,0.0,0.0,1.4654,0.0,0.0,1.8071,1.8792,1.9143,1.924,1.935,1.9493,1.9493,1.9493,1.9493,1.9771,1.981,1.9641,2.0751,2.1129,2.0982,2.1765,2.223,2.2486,2.2994,2.3318,2.3599,2.4135,2.4338,2.4321,2.4171,2.3996,2.3837,2.3939,2.4058,2.4154,2.4136,2.4192,2.4211,2.4173,2.421,2.4228,2.4056,2.4037,2.3999,2.3674,2.3692,2.3735,2.3518,2.3513,2.3513,2.3473,2.3602,2.3664,2.3405,2.371,2.3855,2.3427,2.3405,2.3376,2.3126,2.3348,2.3562,2.3699,2.425,2.4575,2.444,2.459,2.4511,2.4152,2.3891,2.3599,2.3315,2.331,2.3223,2.2992,2.1121,1.951,1.831,1.501,1.2273,1.0237,0.8391,0.6796,0.5386,0.4549,0.3663,1.8505,1.8972,0.0,1.7717,1.7453,0.0,1.5729,0.0,0.0,0.0,0.0,0.0,0.0,0.0,0.0,0.0,0.0,0.0,0.0,0.0,0.0,0.0,0.0,0.0,0.0,0.0,1.2581,1.3391,1.433,0.0,0.0,0.0,1.9041,1.9335,1.9427,1.9504,1.9602,1.9602,1.9602,1.9602,1.9602,1.9647,1.9738,2.027,2.0559,2.0668,2.118,2.1695,2.2243,2.2741,2.3278,2.3814,2.4335,2.454,2.4524,2.4338,2.421,2.4173,2.4192,2.4319,2.4478,2.4458,2.4458,2.4441,2.4374,2.4338,2.4302,2.4135,2.4173,2.4192,2.3881,2.3941,2.402,2.386,2.3819,2.3819,2.3819,2.3881,2.3878,2.3714,2.3976,2.4074,2.3671,2.3588,2.3518,2.3247,2.3422,2.362,2.3721,2.4224,2.451,2.4352,2.4311,2.4115,2.3707,2.3341,2.301,2.2816,2.2868,2.2747,2.2398,2.1064,1.9885,1.8921,1.612,1.3814,1.2137,1.0019,0.8306,0.7121,0.7228,0.7004]}]]